[[{"header":{"parameterUnit":"m.s-1","parameterCategory":1,"la1":30.6,"la2":29.2853,"lo1":-89.7004,"lo2":-87.6739,"dy":0.0162,"dx":0.0183,"nx":112,"ny":82,"refTime":"2024-02-02T06:00:00:Z","depth":0,"parameterNumber":2,"parameterNumberName":"U-component_of_WINDS"},"data":[0.0,0.0,0.0,0.0,0.0,0.0,0.0,0.0,0.0,0.0,0.0,0.0,0.0,0.0,0.0,0.0,0.0,0.0,0.0,0.0,0.0,0.0,0.0,0.0,0.0,0.0,0.0,0.0,0.0,0.0,0.0,0.0,0.0,0.0,0.0,0.0,0.0,0.0,0.0,0.0,0.0,0.0,0.0,0.0,0.0,0.0,0.0,0.0,0.0,0.0,0.0,0.0,0.0,0.0,0.0,0.0,0.0,0.0,0.0,0.0,0.0,0.0,0.0,0.0,0.0,0.0,0.0,0.0,0.0,0.0,0.0,0.0,0.0,0.0,0.0,0.0,0.0,0.0,0.0,0.0,0.0,0.0,0.0,0.0,0.0,0.0,0.0,0.0,0.0,0.0,2.9407,2.9407,2.9511,2.9589,2.9589,2.975,2.9915,3.0095,0.0,0.0,0.0,0.0,0.0,0.0,0.0,0.0,0.0,0.0,0.0,0.0,0.0,0.0,0.0,0.0,0.0,0.0,0.0,0.0,0.0,0.0,0.0,0.0,0.0,0.0,0.0,0.0,0.0,0.0,0.0,0.0,0.0,0.0,0.0,0.0,0.0,0.0,0.0,0.0,0.0,0.0,0.0,0.0,0.0,0.0,0.0,0.0,0.0,0.0,0.0,0.0,0.0,0.0,0.0,0.0,0.0,0.0,0.0,0.0,0.0,0.0,0.0,0.0,0.0,0.0,0.0,0.0,0.0,0.0,0.0,0.0,0.0,0.0,0.0,0.0,0.0,0.0,0.0,0.0,0.0,0.0,0.0,0.0,0.0,0.0,0.0,0.0,0.0,0.0,0.0,0.0,0.0,0.0,0.0,0.0,0.0,0.0,0.0,0.0,0.0,0.0,0.0,0.0,2.9407,2.9407,2.9427,2.9491,2.957,2.9607,2.9784,3.0095,0.0,0.0,0.0,0.0,0.0,0.0,0.0,0.0,0.0,0.0,0.0,0.0,0.0,0.0,0.0,0.0,0.0,0.0,0.0,0.0,0.0,0.0,0.0,0.0,0.0,0.0,0.0,0.0,0.0,0.0,0.0,0.0,0.0,0.0,0.0,0.0,0.0,0.0,0.0,0.0,0.0,0.0,0.0,0.0,0.0,0.0,0.0,0.0,0.0,0.0,0.0,0.0,0.0,0.0,0.0,0.0,0.0,0.0,0.0,0.0,0.0,0.0,0.0,0.0,0.0,0.0,0.0,0.0,0.0,0.0,0.0,0.0,0.0,0.0,0.0,0.0,0.0,0.0,0.0,0.0,0.0,0.0,0.0,0.0,0.0,0.0,0.0,0.0,0.0,0.0,0.0,0.0,0.0,0.0,0.0,0.0,0.0,0.0,0.0,0.0,0.0,0.0,0.0,2.9344,2.9407,2.9407,2.9407,2.9411,2.9491,2.9511,2.9589,2.9834,2.978,0.0,0.0,0.0,0.0,0.0,0.0,0.0,0.0,0.0,0.0,0.0,0.0,0.0,0.0,0.0,0.0,0.0,0.0,0.0,0.0,0.0,0.0,0.0,0.0,0.0,0.0,0.0,0.0,0.0,0.0,0.0,0.0,0.0,0.0,0.0,0.0,0.0,0.0,0.0,0.0,0.0,0.0,0.0,0.0,0.0,0.0,0.0,0.0,0.0,0.0,0.0,0.0,0.0,0.0,0.0,0.0,0.0,0.0,0.0,0.0,0.0,0.0,0.0,0.0,0.0,0.0,0.0,0.0,0.0,0.0,0.0,0.0,0.0,0.0,0.0,0.0,0.0,0.0,0.0,0.0,0.0,0.0,0.0,0.0,0.0,0.0,0.0,0.0,0.0,0.0,0.0,0.0,0.0,0.0,0.0,0.0,0.0,0.0,0.0,0.0,0.0,0.0,2.92,2.9222,2.9323,2.9344,2.9344,2.9386,2.9386,2.9431,2.9533,2.9476,0.0,0.0,0.0,0.0,0.0,0.0,0.0,0.0,0.0,0.0,0.0,0.0,0.0,0.0,0.0,0.0,0.0,0.0,0.0,0.0,0.0,0.0,0.0,0.0,0.0,0.0,0.0,0.0,0.0,0.0,0.0,0.0,0.0,0.0,0.0,0.0,0.0,0.0,0.0,0.0,0.0,0.0,0.0,0.0,0.0,0.0,0.0,0.0,0.0,0.0,0.0,0.0,0.0,0.0,0.0,0.0,0.0,0.0,0.0,0.0,0.0,0.0,0.0,0.0,0.0,0.0,0.0,0.0,0.0,0.0,0.0,0.0,0.0,0.0,0.0,0.0,0.0,0.0,0.0,0.0,0.0,0.0,0.0,0.0,0.0,0.0,0.0,0.0,0.0,0.0,0.0,0.0,0.0,0.0,0.0,0.0,0.0,0.0,0.0,0.0,0.0,0.0,2.8676,2.8712,2.9067,2.9112,2.9156,2.9302,2.9302,2.9349,2.9399,2.9399,0.0,0.0,0.0,0.0,0.0,0.0,0.0,0.0,0.0,0.0,0.0,0.0,0.0,0.0,0.0,0.0,0.0,0.0,0.0,0.0,0.0,0.0,0.0,0.0,0.0,0.0,0.0,0.0,0.0,0.0,0.0,0.0,0.0,0.0,0.0,0.0,0.0,0.0,0.0,0.0,0.0,0.0,0.0,0.0,0.0,0.0,0.0,0.0,0.0,0.0,0.0,0.0,0.0,0.0,0.0,0.0,0.0,0.0,0.0,0.0,0.0,0.0,0.0,0.0,0.0,0.0,0.0,0.0,0.0,0.0,0.0,0.0,0.0,0.0,0.0,0.0,0.0,0.0,0.0,0.0,0.0,0.0,0.0,0.0,0.0,0.0,0.0,0.0,0.0,0.0,0.0,0.0,0.0,0.0,0.0,0.0,0.0,0.0,0.0,0.0,0.0,0.0,2.8737,2.8761,2.8905,2.8927,2.8873,2.882,2.8815,2.883,2.8952,0.0,0.0,0.0,0.0,0.0,0.0,0.0,0.0,0.0,0.0,0.0,0.0,0.0,0.0,0.0,0.0,0.0,0.0,0.0,0.0,0.0,0.0,0.0,0.0,0.0,0.0,0.0,0.0,0.0,0.0,0.0,0.0,0.0,0.0,0.0,0.0,0.0,0.0,0.0,0.0,0.0,0.0,0.0,0.0,0.0,0.0,0.0,0.0,0.0,0.0,0.0,0.0,0.0,0.0,0.0,0.0,0.0,0.0,0.0,0.0,0.0,0.0,0.0,0.0,0.0,0.0,0.0,0.0,0.0,0.0,0.0,0.0,0.0,0.0,0.0,0.0,0.0,0.0,0.0,0.0,0.0,0.0,0.0,0.0,0.0,0.0,0.0,0.0,0.0,0.0,0.0,0.0,0.0,0.0,0.0,0.0,0.0,0.0,0.0,0.0,0.0,0.0,2.8446,2.8408,2.8431,2.854,2.8615,2.8654,2.8522,2.8484,2.8503,2.8492,0.0,0.0,0.0,0.0,0.0,0.0,0.0,0.0,0.0,0.0,0.0,0.0,0.0,0.0,0.0,0.0,0.0,0.0,0.0,0.0,0.0,0.0,0.0,0.0,0.0,0.0,0.0,0.0,0.0,0.0,0.0,0.0,0.0,0.0,0.0,0.0,0.0,0.0,0.0,0.0,0.0,0.0,0.0,0.0,0.0,0.0,0.0,0.0,0.0,0.0,0.0,0.0,0.0,0.0,0.0,0.0,0.0,0.0,0.0,0.0,0.0,0.0,0.0,0.0,0.0,0.0,0.0,0.0,0.0,0.0,0.0,0.0,0.0,0.0,0.0,0.0,0.0,0.0,0.0,0.0,0.0,0.0,0.0,0.0,0.0,0.0,0.0,0.0,0.0,0.0,0.0,0.0,0.0,0.0,0.0,0.0,0.0,0.0,0.0,0.0,0.0,0.0,2.7654,2.7556,2.7591,2.7958,2.8298,2.8488,2.8506,2.8489,2.8353,0.0,0.0,0.0,0.0,0.0,0.0,0.0,0.0,0.0,0.0,0.0,0.0,0.0,0.0,0.0,0.0,0.0,0.0,0.0,0.0,0.0,0.0,0.0,0.0,0.0,0.0,0.0,0.0,0.0,0.0,0.0,0.0,0.0,0.0,0.0,0.0,0.0,0.0,0.0,0.0,0.0,0.0,0.0,0.0,0.0,0.0,0.0,0.0,0.0,0.0,0.0,0.0,0.0,0.0,0.0,0.0,0.0,0.0,0.0,0.0,0.0,0.0,0.0,0.0,0.0,0.0,0.0,0.0,0.0,0.0,0.0,0.0,0.0,0.0,0.0,0.0,0.0,0.0,0.0,0.0,0.0,0.0,0.0,0.0,0.0,0.0,0.0,0.0,0.0,0.0,0.0,0.0,0.0,0.0,0.0,0.0,0.0,0.0,0.0,0.0,0.0,0.0,0.0,2.6576,2.683,2.7115,2.7232,2.7315,2.7405,2.7504,2.7501,2.7587,2.7827,0.0,0.0,0.0,0.0,0.0,0.0,0.0,0.0,0.0,0.0,0.0,0.0,0.0,0.0,0.0,0.0,0.0,0.0,0.0,0.0,0.0,0.0,0.0,0.0,0.0,0.0,0.0,0.0,0.0,0.0,0.0,0.0,0.0,0.0,0.0,0.0,0.0,0.0,0.0,0.0,0.0,0.0,0.0,0.0,0.0,0.0,0.0,0.0,0.0,0.0,0.0,0.0,0.0,0.0,0.0,0.0,0.0,0.0,0.0,0.0,0.0,0.0,0.0,0.0,0.0,0.0,0.0,0.0,0.0,0.0,0.0,0.0,0.0,0.0,0.0,0.0,0.0,0.0,0.0,0.0,0.0,0.0,0.0,0.0,0.0,0.0,0.0,0.0,0.0,0.0,0.0,0.0,0.0,0.0,0.0,0.0,0.0,0.0,0.0,0.0,0.0,0.0,2.5763,2.6251,2.6649,2.6678,2.6808,2.6908,2.6943,2.6943,2.7012,2.7147,0.0,0.0,0.0,0.0,0.0,0.0,0.0,0.0,0.0,0.0,0.0,0.0,0.0,0.0,0.0,0.0,0.0,0.0,0.0,0.0,0.0,0.0,0.0,0.0,0.0,0.0,0.0,0.0,0.0,0.0,0.0,0.0,0.0,0.0,0.0,0.0,0.0,0.0,0.0,0.0,0.0,0.0,0.0,0.0,0.0,0.0,0.0,0.0,0.0,0.0,0.0,0.0,0.0,0.0,0.0,0.0,0.0,0.0,0.0,0.0,0.0,0.0,0.0,0.0,0.0,0.0,0.0,0.0,0.0,0.0,0.0,0.0,0.0,0.0,0.0,0.0,0.0,0.0,0.0,0.0,0.0,0.0,0.0,0.0,0.0,0.0,0.0,0.0,0.0,0.0,0.0,0.0,0.0,0.0,0.0,0.0,0.0,0.0,0.0,0.0,0.0,0.0,2.5195,2.5718,2.6124,2.6292,2.6602,2.6738,2.6634,2.6622,2.658,2.6413,0.0,0.0,0.0,0.0,0.0,0.0,0.0,0.0,0.0,0.0,0.0,0.0,0.0,0.0,0.0,0.0,0.0,0.0,0.0,0.0,0.0,0.0,0.0,0.0,0.0,0.0,0.0,0.0,0.0,0.0,0.0,0.0,0.0,0.0,0.0,0.0,0.0,0.0,0.0,0.0,0.0,0.0,0.0,0.0,0.0,0.0,0.0,0.0,0.0,0.0,0.0,0.0,0.0,0.0,0.0,0.0,0.0,0.0,0.0,0.0,2.1834,2.1992,0.0,0.0,0.0,0.0,0.0,0.0,0.0,0.0,0.0,0.0,0.0,0.0,0.0,0.0,0.0,0.0,0.0,0.0,0.0,0.0,0.0,0.0,0.0,0.0,0.0,0.0,0.0,0.0,0.0,0.0,0.0,0.0,0.0,0.0,0.0,0.0,0.0,0.0,0.0,0.0,2.4351,2.4804,2.5309,2.5751,2.5816,2.5918,2.6124,2.6147,2.6224,2.636,2.6495,0.0,0.0,0.0,0.0,0.0,0.0,0.0,0.0,0.0,0.0,0.0,0.0,0.0,0.0,0.0,0.0,0.0,0.0,0.0,0.0,0.0,0.0,0.0,0.0,0.0,0.0,0.0,0.0,0.0,0.0,0.0,0.0,0.0,0.0,0.0,0.0,0.0,0.0,0.0,0.0,0.0,0.0,0.0,0.0,0.0,0.0,0.0,0.0,0.0,0.0,0.0,0.0,0.0,0.0,0.0,0.0,0.0,0.0,0.0,2.0141,2.086,0.0,0.0,0.0,0.0,0.0,0.0,0.0,0.0,0.0,0.0,0.0,0.0,0.0,0.0,0.0,0.0,0.0,0.0,0.0,0.0,0.0,0.0,0.0,0.0,0.0,0.0,0.0,0.0,0.0,0.0,0.0,0.0,0.0,0.0,0.0,0.0,0.0,0.0,0.0,0.0,2.3662,2.4202,2.4703,2.4957,2.5155,2.5309,2.5443,2.5681,2.5886,2.6021,2.6124,0.0,0.0,0.0,0.0,0.0,0.0,0.0,0.0,0.0,0.0,0.0,0.0,0.0,0.0,0.0,0.0,0.0,0.0,0.0,0.0,0.0,0.0,0.0,0.0,0.0,0.0,0.0,0.0,0.0,0.0,0.0,0.0,0.0,0.0,0.0,0.0,0.0,0.0,0.0,0.0,0.0,0.0,0.0,0.0,0.0,0.0,0.0,0.0,0.0,0.0,0.0,0.0,0.0,1.6925,1.661,1.6229,1.5813,1.5661,1.5776,1.8216,1.9401,1.9556,1.9535,0.0,0.0,0.0,0.0,0.0,0.0,0.0,0.0,0.0,0.0,0.0,0.0,0.0,0.0,0.0,0.0,0.0,0.0,0.0,0.0,0.0,0.0,2.4759,2.4854,2.4547,2.4404,2.5155,0.0,0.0,0.0,0.0,0.0,0.0,0.0,0.0,0.0,0.0,0.0,2.3272,2.3793,2.4234,2.4313,2.4585,2.4837,2.4868,2.5265,2.5502,2.5578,2.5783,2.6016,0.0,0.0,0.0,0.0,0.0,0.0,0.0,0.0,0.0,0.0,0.0,0.0,0.0,0.0,0.0,0.0,0.0,0.0,0.0,0.0,0.0,0.0,0.0,0.0,0.0,0.0,0.0,0.0,0.0,0.0,0.0,0.0,2.1619,2.1533,0.0,0.0,0.0,0.0,0.0,0.0,0.0,0.0,0.0,0.0,0.0,0.0,0.0,1.5446,1.5389,1.5177,1.4964,1.4866,1.51,1.5158,1.51,1.5041,1.5041,1.5041,1.5428,0.0,1.698,1.6972,0.0,0.0,0.0,0.0,0.0,0.0,0.0,0.0,0.0,0.0,0.0,0.0,0.0,0.0,0.0,0.0,0.0,0.0,0.0,0.0,0.0,0.0,2.3662,2.4359,2.3958,2.3546,2.3822,2.42,2.4451,2.4112,2.4379,2.4592,0.0,0.0,0.0,0.0,0.0,0.0,2.3538,2.3629,2.3852,2.4283,2.4358,2.4529,2.4856,2.4957,2.5187,2.5578,2.5648,2.5691,2.5779,2.5848,0.0,0.0,0.0,0.0,0.0,0.0,0.0,0.0,0.0,0.0,0.0,0.0,0.0,0.0,0.0,0.0,0.0,0.0,0.0,0.0,0.0,0.0,0.0,0.0,0.0,0.0,0.0,0.0,0.0,2.0241,1.9635,1.8867,1.8495,1.7986,0.0,0.0,0.0,0.0,0.0,0.0,0.0,0.0,0.0,1.4282,1.4022,1.3981,1.404,1.3939,1.376,1.3537,1.364,1.358,1.3278,1.3278,1.3278,1.3278,1.3647,1.41,1.4569,1.5459,1.5967,1.6299,0.0,0.0,0.0,0.0,1.8994,1.9519,1.9673,2.0064,2.0603,2.0917,0.0,0.0,0.0,0.0,0.0,0.0,0.0,2.3024,2.3172,2.305,2.2921,2.3245,2.2922,2.2611,2.2694,2.2958,2.3289,2.3504,2.3696,2.3835,2.3788,2.3812,0.0,0.0,0.0,2.3198,2.3169,2.3198,2.3301,2.3509,2.3763,2.3975,2.4143,2.4632,2.5005,2.5169,2.5355,2.5508,2.5701,2.5556,2.5811,0.0,0.0,0.0,0.0,0.0,0.0,0.0,0.0,0.0,0.0,0.0,0.0,0.0,0.0,0.0,0.0,0.0,0.0,0.0,0.0,0.0,0.0,0.0,0.0,0.0,0.0,0.0,0.0,1.8313,1.7476,1.6161,1.6252,1.5883,0.0,0.0,0.0,0.0,0.0,0.0,1.261,1.2227,1.2089,1.2089,1.215,1.215,1.2289,1.2305,1.2166,1.1807,1.1833,1.1687,1.1383,1.1383,1.1354,1.1347,1.1839,1.2197,1.2552,1.4142,1.4939,1.5199,1.5699,1.6199,1.6675,1.7313,1.7978,1.8548,1.8721,1.919,1.9799,2.022,2.0725,2.1206,2.1349,0.0,0.0,0.0,0.0,2.2253,2.2356,2.2295,2.2249,2.2358,2.2074,2.1868,2.1868,2.1896,2.217,2.2776,2.3049,2.3137,2.3252,2.3223,0.0,2.308,2.2908,2.2826,2.2768,2.2797,2.2826,2.2872,2.3187,2.3434,2.358,2.4214,2.4664,2.4823,2.5013,2.5208,2.5438,2.5253,2.554,2.6261,0.0,0.0,0.0,0.0,0.0,0.0,0.0,0.0,0.0,0.0,0.0,0.0,0.0,0.0,0.0,0.0,0.0,0.0,0.0,0.0,0.0,0.0,0.0,0.0,0.0,0.0,0.0,0.0,0.0,1.3471,1.4045,0.0,0.0,0.0,0.0,1.2135,1.0766,1.0021,1.0135,0.9372,0.8988,0.918,0.9244,0.9116,0.8924,0.9074,0.912,0.9197,0.9308,0.9488,0.9627,0.9627,0.9582,0.9455,0.9443,1.0055,1.1057,1.2722,1.3392,1.3502,1.407,1.4594,1.5155,1.6177,1.6899,1.7305,1.7291,1.7598,1.8155,1.8853,1.9736,2.0623,2.1209,2.1183,0.0,0.0,2.1465,2.1542,2.193,2.1722,2.1565,2.193,2.1749,2.1439,2.1439,2.1259,2.1259,2.1772,2.2448,2.2837,2.2526,0.0,2.2648,2.2644,2.2637,2.2619,2.2615,2.2626,2.2655,2.2809,2.2855,2.3052,2.3566,2.3653,2.3921,2.4583,2.4623,2.4623,2.4655,2.4655,2.5049,2.5923,2.6366,0.0,0.0,0.0,0.0,0.0,0.0,0.0,0.0,0.0,0.0,0.0,0.0,0.0,0.0,0.0,0.0,0.0,0.0,0.0,0.0,0.0,0.0,0.0,0.0,0.0,0.0,0.0,0.0,1.2177,1.2271,0.0,1.0725,1.0299,0.9996,0.9869,0.9169,0.8796,0.8849,0.8474,0.8354,0.8501,0.8512,0.8441,0.8313,0.8393,0.8423,0.8423,0.8434,0.8614,0.8824,0.8779,0.8832,0.8894,0.904,0.9676,1.0627,1.1341,1.2088,1.2816,1.3409,1.3718,1.4028,1.5042,1.5753,1.6255,1.6652,1.7288,1.7991,1.8524,1.9208,1.9862,2.0042,2.027,2.0445,2.0597,2.0627,2.0655,2.0835,2.0757,2.0679,2.0832,2.083,2.0801,2.0801,2.0904,2.1057,2.1262,2.1636,2.1965,2.1993,2.1959,2.1952,2.1856,2.1979,2.2074,2.1963,2.2338,2.2644,2.2809,2.3062,2.3357,2.3652,2.4627,2.5227,2.5316,2.5808,2.6094,2.5944,2.5815,2.6037,2.6598,2.7057,2.759,0.0,0.0,0.0,0.0,0.0,0.0,0.0,0.0,0.0,0.0,0.0,0.0,0.0,0.0,0.0,0.0,0.0,0.0,0.0,0.0,0.0,0.0,0.0,0.0,0.0,1.3528,1.2655,1.0581,1.0635,1.0312,0.8935,0.8678,0.8613,0.8549,0.7821,0.7532,0.7805,0.7341,0.717,0.7449,0.7449,0.7372,0.7212,0.7254,0.7271,0.7271,0.7356,0.7543,0.7825,0.7798,0.7895,0.8028,0.8226,0.8983,1.0012,1.0226,1.1049,1.2365,1.287,1.3223,1.3535,1.4488,1.5138,1.5678,1.6316,1.7077,1.7776,1.8047,1.8529,1.904,1.9098,1.9458,1.9864,1.994,2.0042,2.0168,2.0168,2.0169,2.0144,1.9962,2.0246,2.0472,2.0271,2.0575,2.0904,2.0904,2.1232,2.1572,2.1777,2.1808,2.1703,2.1469,2.1712,2.1911,2.1855,2.2432,2.2969,2.332,2.3693,2.3923,2.4019,2.4988,2.5601,2.5725,2.6198,2.6541,2.666,2.6514,2.6607,2.7136,2.7966,2.8567,2.89,0.0,0.0,0.0,0.0,0.0,0.0,0.0,0.0,0.0,0.0,0.0,0.0,0.0,0.0,0.0,0.0,0.0,0.0,0.0,0.0,0.0,0.0,0.0,1.2722,1.189,1.0559,0.8719,0.904,0.8935,0.7596,0.7977,0.8301,0.8052,0.6689,0.618,0.695,0.5718,0.5297,0.5957,0.5957,0.5813,0.546,0.5622,0.5667,0.5667,0.5854,0.6093,0.6542,0.6542,0.6619,0.6605,0.6765,0.7727,0.9163,0.9319,1.041,1.1939,1.2452,1.3105,1.3723,1.4425,1.5116,1.5702,1.628,1.6863,1.7413,1.7413,1.7829,1.8306,1.8466,1.8842,1.9248,1.9377,1.9809,2.0193,2.0193,2.0167,2.0062,1.9516,1.993,2.0271,1.9703,2.0118,2.0649,2.0675,2.1269,2.178,2.1801,2.1991,2.201,2.1485,2.1896,0.0,2.2301,2.293,2.3623,2.4397,2.4661,2.471,2.4603,2.4681,2.5024,2.5831,2.5644,2.5878,2.6723,2.6576,2.6795,2.7442,2.9029,3.0054,3.0518,0.0,0.0,0.0,0.0,0.0,0.0,0.0,0.0,0.0,0.0,0.0,0.0,0.0,0.0,0.0,0.0,0.0,0.0,0.0,0.0,0.0,1.1903,1.164,1.1675,1.0913,0.992,0.877,0.8249,0.7503,0.6233,0.5834,0.5467,0.4874,0.4349,0.4089,0.4303,0.3975,0.4162,0.4882,0.4888,0.5018,0.5366,0.539,0.5407,0.5413,0.5461,0.564,0.5867,0.6015,0.617,0.6402,0.6563,0.7752,0.9489,0.9564,1.0654,1.2425,1.2331,1.2473,1.2796,1.4112,1.5522,1.677,1.712,1.7356,1.7592,1.7592,1.801,1.8552,1.8523,1.8951,1.9426,1.9495,1.9611,1.9667,1.9667,1.9715,1.9549,1.9076,1.9215,1.9323,1.8994,1.9239,1.9624,2.0232,2.1095,2.1676,2.1539,2.1614,2.1783,2.2011,2.2565,2.3022,2.3032,2.352,2.3956,2.4276,2.4753,2.5089,2.5191,2.6176,2.6942,2.7139,2.7575,2.789,2.8124,2.7968,2.8249,2.9106,2.9476,3.0097,0.0,0.0,0.0,0.0,0.0,0.0,0.0,0.0,0.0,0.0,0.0,0.0,0.0,0.0,0.0,0.0,0.0,0.0,0.0,0.0,0.0,0.0,1.1156,1.078,1.0275,0.9767,0.9227,0.8493,0.7371,0.6368,0.5567,0.4669,0.3994,0.3619,0.3143,0.3011,0.3377,0.3131,0.3396,0.4336,0.4412,0.4604,0.5168,0.5168,0.5168,0.5174,0.5174,0.5335,0.5569,0.5718,0.5951,0.6338,0.6578,0.7529,0.8875,0.9095,1.0251,1.1883,0.0,0.0,0.0,0.0,1.5388,1.6654,1.6941,1.7246,1.7655,1.7676,1.7922,1.8216,1.8198,1.8602,1.9105,1.91,1.9275,1.9508,1.9508,1.9471,1.9422,1.9032,1.9229,1.9422,1.923,1.9514,1.994,2.0367,2.1129,0.0,2.1843,2.2288,2.2607,2.2736,2.3242,2.3647,2.3685,2.4211,2.4685,2.5043,2.5412,2.5745,2.5821,2.6814,0.0,0.0,0.0,2.8494,2.8573,2.8429,0.0,0.0,0.0,2.9955,3.1066,3.1183,0.0,0.0,3.1924,3.2235,0.0,0.0,0.0,0.0,0.0,0.0,0.0,0.0,0.0,0.0,0.0,0.0,0.0,0.0,0.0,0.0,1.0401,0.9818,0.8603,0.8431,0.8275,0.7807,0.6431,0.5395,0.5069,0.4061,0.3415,0.3366,0.2598,0.2473,0.322,0.2706,0.0,0.0,0.0,0.4224,0.4784,0.494,0.5018,0.5018,0.5018,0.5257,0.5575,0.5652,0.5879,0.6338,0.674,0.7219,0.7923,0.8571,0.9649,1.1144,1.2378,1.3068,1.3433,1.4134,1.5001,1.5978,1.6376,0.0,0.0,1.7789,1.7789,1.7789,1.7876,1.8209,1.8655,1.8655,1.9061,1.9434,1.9434,1.9493,1.9434,1.9126,1.9604,2.003,1.9784,2.025,2.0734,2.0897,2.1431,2.2014,2.2614,2.3494,2.3984,2.3543,2.3937,2.4291,2.4367,2.4905,2.5554,2.6229,2.6286,0.0,2.6578,2.6967,2.7378,2.773,2.8027,2.8253,2.8411,2.8411,2.8411,2.8508,2.8967,2.9726,3.0868,3.1407,3.2269,3.3389,3.2538,3.2747,0.0,0.0,0.0,0.0,0.0,0.0,0.0,0.0,0.0,0.0,0.0,0.0,0.0,0.0,0.0,0.9308,0.8871,0.8161,0.6793,0.6731,0.6627,0.6173,0.5514,0.4483,0.3165,0.2779,0.2291,0.1775,0.1552,0.1556,0.1711,0.1566,0.1963,0.2829,0.2591,0.2907,0.362,0.455,0.5096,0.5257,0.5257,0.0,0.5575,0.5796,0.6022,0.6338,0.6578,0.7281,0.8376,0.9106,1.0663,1.2539,1.2792,1.3506,1.4429,1.5153,1.599,1.6974,1.7655,1.8104,1.8347,1.8496,1.8588,1.8609,1.8783,1.892,0.0,1.8968,1.9078,1.9188,1.9188,1.9382,1.949,1.9039,1.9244,1.9505,1.9366,1.9417,1.9828,2.0879,2.1923,2.285,2.38,2.4067,2.4281,2.4626,2.5152,2.557,2.5574,2.5656,2.5875,2.6096,2.6233,2.6447,2.6841,2.7429,2.7849,2.8143,2.8415,2.8525,2.8411,2.8411,2.8573,2.8967,2.9438,2.9946,3.0591,3.1641,3.2562,3.3423,3.3212,3.342,0.0,0.0,0.0,0.0,0.0,0.0,0.0,0.0,0.0,0.0,0.0,1.1841,1.1267,0.0,0.9767,0.8613,0.8301,0.7707,0.6268,0.6207,0.6022,0.523,0.4496,0.3669,0.2731,0.2122,0.1605,0.1333,0.1335,0.1335,0.1335,0.1335,0.1414,0.1651,0.1492,0.2199,0.3769,0.4311,0.4857,0.5419,0.5485,0.564,0.5957,0.6028,0.6261,0.6578,0.6802,0.718,0.7795,0.916,1.0795,1.2471,1.2924,1.3492,1.4091,1.4444,1.5353,1.6492,1.6986,1.7707,1.8454,1.8731,1.8777,1.8844,1.9065,1.9065,1.9065,1.9065,1.9065,1.9131,1.9351,1.9483,1.9617,1.9748,1.9874,2.0061,2.0149,2.0412,2.0764,2.1608,2.2732,2.3738,2.4372,2.4831,2.5133,2.543,2.5711,2.5907,2.5907,2.5962,2.6071,2.6179,2.6286,2.6447,2.687,2.7408,2.8027,2.8654,2.859,2.8632,2.8904,2.8904,2.9157,2.9762,3.0004,3.0686,3.1745,3.2331,3.3328,3.4506,3.4506,3.4592,0.0,0.0,0.0,0.0,0.0,0.0,0.0,1.4332,1.3554,1.2704,1.1531,1.0604,1.0148,0.9576,0.8871,0.8096,0.7912,0.7381,0.6063,0.599,0.5586,0.4304,0.3501,0.2965,0.2563,0.1722,0.1257,0.1257,0.1257,0.1335,0.1335,0.1335,0.1178,0.0943,0.1021,0.2118,0.4155,0.4224,0.4774,0.573,0.5712,0.5944,0.6423,0.6416,0.6648,0.6964,0.7257,0.748,0.7787,0.9468,1.0998,1.2317,1.2983,1.3331,1.3492,1.3667,1.4577,1.5755,1.6064,1.7116,1.8279,1.8637,1.8771,1.8818,1.8998,1.9065,1.9131,1.9198,1.9198,1.9264,1.9594,1.9726,1.9922,2.0442,2.0764,2.0955,2.1336,2.1815,2.2249,2.2677,2.361,2.4509,2.4824,2.5412,2.5907,2.5907,2.5907,2.5907,2.5962,2.6016,2.6179,2.634,2.6418,2.6741,2.738,2.7961,2.8652,2.9454,2.9121,2.9076,2.9581,2.9612,2.9858,3.0412,3.0618,3.1394,3.2821,3.3142,3.3975,3.5419,3.569,3.5757,1.6545,1.6353,1.6239,1.6181,1.5623,1.4904,0.0,1.3356,1.2642,1.167,1.0856,1.0148,0.9524,0.8613,0.7707,0.712,0.6802,0.6203,0.512,0.5134,0.4556,0.2696,0.2824,0.2662,0.1476,0.1257,0.1178,0.1178,0.1257,0.1335,0.1335,0.1335,0.1257,0.1257,0.1965,0.291,0.4178,0.4302,0.4991,0.6183,0.6261,0.6423,0.6817,0.6865,0.6927,0.7173,0.7727,0.8933,1.0395,1.0787,1.184,1.307,1.3331,1.3492,1.3579,1.4267,1.4984,1.5843,1.6524,1.7304,1.8076,1.8414,1.8549,1.8617,1.8998,1.9065,1.9131,1.9462,1.9528,1.9594,1.9987,2.0248,2.0506,2.0571,2.121,2.1815,2.2187,2.2616,2.322,2.393,2.4368,2.4824,2.53,2.5688,2.5907,2.5907,2.5907,2.5962,2.6071,2.6125,2.6204,2.6472,2.6886,2.7861,2.9609,3.0413,3.084,3.097,3.0673,3.0452,3.0289,3.032,3.0351,3.0412,3.1307,3.1837,3.2028,3.3606,3.4452,3.4641,3.6028,3.6265,1.6144,1.5778,1.5584,1.5642,1.504,1.4255,1.3837,1.3114,1.2397,1.1608,1.0541,0.9588,0.9192,0.8096,0.7064,0.6671,0.6482,0.6152,0.555,0.5272,0.461,0.3293,0.3084,0.2523,0.129,0.1224,0.1181,0.1173,0.1492,0.1651,0.1651,0.1651,0.173,0.1965,0.2123,0.2914,0.4501,0.454,0.5306,0.6662,0.6641,0.6788,0.7103,0.7326,0.7642,0.8119,0.8713,0.9743,1.1047,1.1464,1.2317,1.3404,1.3492,1.3492,1.3564,1.4305,1.5029,1.5808,1.6594,1.7461,1.8212,1.8414,1.8549,1.8751,1.8998,1.9198,1.9417,1.955,1.9726,1.9987,2.0313,2.0764,2.1146,2.1313,2.2002,2.2677,2.2798,2.3339,2.393,2.4425,2.4851,2.5272,2.5688,2.5853,2.5962,2.6016,2.6016,2.615,2.6496,2.6788,2.727,2.816,2.8771,2.9531,3.0637,3.0872,3.1011,3.1223,3.0942,3.0876,3.0966,3.0997,3.1182,3.1551,3.1998,3.2329,3.2684,3.417,3.5063,3.5412,3.6767,3.728,1.6029,1.5604,1.5235,1.5294,1.451,1.3657,1.3416,1.281,1.2089,1.1622,1.0415,0.9396,0.8988,0.7912,0.6942,0.6482,0.649,0.6358,0.5962,0.5684,0.5092,0.3937,0.35,0.276,0.1613,0.1479,0.1478,0.1483,0.1887,0.2044,0.2042,0.2042,0.2277,0.2753,0.2437,0.3146,0.4894,0.4924,0.561,0.6964,0.7096,0.7242,0.748,0.7863,0.8408,0.9133,0.9562,1.0398,1.154,1.2125,1.2868,1.3695,1.3783,1.3928,1.4129,1.4871,1.5387,1.5913,1.6766,1.7628,1.8414,1.8549,1.8684,1.8865,1.9131,1.9417,1.9681,1.9791,2.0053,2.0313,2.07,2.1083,2.1463,2.1939,2.2592,2.3195,2.3492,2.4105,2.4708,2.4993,2.5328,2.5688,2.5853,2.5962,2.6073,2.6351,2.6569,2.6891,2.7284,2.7924,2.8753,2.9955,3.0556,3.1142,3.1674,3.1734,3.1729,3.1892,3.164,3.1602,3.1805,3.1728,3.1982,3.2659,3.2826,3.3162,3.3783,3.5033,3.5891,3.6323,3.758,3.8193,1.6374,1.5894,1.5352,1.4982,1.3957,1.2948,1.2626,1.2027,1.156,1.1373,1.0604,0.9703,0.886,0.8032,0.726,0.6548,0.6696,0.663,0.6005,0.6194,0.581,0.3977,0.387,0.3431,0.2281,0.222,0.2256,0.2265,0.2439,0.2512,0.2504,0.2504,0.2744,0.3388,0.3374,0.4081,0.5593,0.561,0.613,0.7165,0.7565,0.788,0.8119,0.8514,0.9195,1.0154,1.0166,1.1107,1.2576,1.297,1.3504,1.4099,1.4418,1.4919,1.5542,1.6245,1.6298,1.614,1.706,1.7833,1.8549,1.8751,1.8818,1.8885,1.9417,1.9615,1.9747,2.0377,2.0571,2.07,2.1106,2.1169,2.14,2.2187,2.2738,2.3374,2.4399,2.5104,2.555,2.5798,2.5907,2.5907,2.5907,2.6016,2.6323,2.6974,2.7773,2.836,2.833,2.9529,3.0525,3.111,3.1842,3.2456,3.3016,3.3598,3.3885,3.363,3.3403,3.3087,3.285,3.2547,3.269,3.3367,3.3897,3.4486,3.5268,3.6405,3.6952,3.7003,3.8354,3.8971,1.5836,1.5526,1.5118,1.4469,1.3554,1.2826,1.2565,1.1903,1.1435,1.1498,1.0717,0.9767,0.9052,0.8226,0.7456,0.6811,0.6828,0.7025,0.7344,0.7161,0.6773,0.6163,0.5383,0.459,0.3976,0.2891,0.2318,0.2491,0.2744,0.3136,0.3761,0.3921,0.4399,0.5202,0.4996,0.5604,0.7042,0.678,0.7165,0.8205,0.8304,0.8761,0.9483,0.9205,1.001,1.1578,1.1559,1.2417,1.3795,1.4291,1.4789,1.5247,1.5323,1.5788,1.6416,1.7242,1.7733,1.7981,1.8095,1.8395,1.8684,1.8818,1.9272,1.9927,2.0062,2.0704,2.1373,2.1576,2.1845,2.2023,2.2313,2.2686,2.3032,2.3443,2.4131,2.4929,2.5652,2.6104,2.6525,2.7059,2.7144,2.7201,2.7286,2.7343,2.7769,2.9024,2.9361,2.972,3.0334,3.1444,3.2297,3.2507,3.3099,3.3595,3.3744,3.4392,3.471,3.445,3.4578,3.4557,3.4223,3.3939,3.3891,3.4106,3.4337,3.4488,3.4794,3.5999,3.6831,3.7208,3.8546,3.9327,1.5894,1.5526,1.5059,1.4231,1.345,1.2765,1.2274,1.1794,1.1435,1.156,1.0982,1.0212,0.9308,0.8678,0.8042,0.7222,0.7231,0.7419,0.7922,0.7798,0.76,0.7279,0.6339,0.5505,0.5059,0.3966,0.3251,0.318,0.3611,0.4155,0.4794,0.5251,0.5867,0.6718,0.6506,0.6973,0.8128,0.7855,0.8161,0.9047,0.9301,0.9916,1.0738,1.0409,1.1254,1.2973,1.2837,1.3503,1.4849,1.5388,1.5774,1.5979,1.6365,1.6987,1.7692,1.8507,1.9311,1.9859,1.954,1.9493,1.963,1.9745,2.0296,2.0896,2.0964,2.1616,2.2228,2.2343,2.2685,2.3068,2.3246,2.3774,2.4331,2.4864,2.5474,2.6098,2.6715,2.7029,2.7284,2.7794,2.7879,2.7937,2.8024,2.8484,2.9315,3.0788,3.1098,3.1393,3.1964,3.2889,3.3433,3.3547,3.4092,3.4489,3.4489,3.5169,3.5538,3.5326,3.5473,3.5419,3.508,3.4794,3.4685,3.4814,3.4845,3.4968,3.5183,3.624,3.7068,3.7653,3.8689,3.954,1.6374,1.5951,1.5235,1.4213,1.3494,1.2826,1.1809,1.1622,1.1622,1.1622,1.1435,1.0919,0.9767,0.9396,0.8894,0.7775,0.7831,0.7932,0.7827,0.8301,0.8262,0.7425,0.6879,0.6294,0.5519,0.5393,0.5052,0.4372,0.5046,0.5575,0.5743,0.6479,0.7202,0.7912,0.7912,0.8192,0.877,0.8761,0.911,0.9679,1.0489,1.1226,1.1865,1.207,1.2947,1.437,1.3853,1.4468,1.592,1.6223,1.6387,1.6496,1.7574,1.8601,1.9462,2.0042,2.0899,2.1625,2.1274,2.109,2.1118,2.1468,2.1629,2.1721,2.2112,2.2273,2.2364,2.2754,2.3206,2.3718,2.4067,2.4589,2.532,2.6417,2.6634,2.6876,2.7673,2.7877,2.7935,2.811,2.8167,2.8225,2.8398,2.9574,3.091,3.2226,3.2918,3.3298,3.3298,3.3797,3.4165,3.4198,3.4845,3.5234,3.5234,3.5914,3.6367,3.6367,3.6066,3.5792,3.5545,3.5174,3.5198,3.5582,3.5522,3.5861,3.6507,3.7118,3.7679,3.8278,3.892,3.954,1.6239,1.6181,1.5778,1.4195,1.3777,1.3373,1.1934,1.1622,1.1622,1.1622,1.156,1.1233,1.0275,0.9767,0.9204,0.8495,0.8192,0.8203,0.8668,0.8865,0.8911,0.8871,0.8236,0.7752,0.7503,0.6888,0.6564,0.6742,0.6653,0.6894,0.766,0.8192,0.8732,0.9346,0.9195,0.9367,0.9797,0.9852,1.0251,1.1163,1.134,1.2231,1.3606,1.3223,1.4097,1.5734,1.5184,1.57,1.7069,1.7346,1.7579,1.7978,1.8981,1.9813,2.05,2.1329,2.202,2.2703,2.2849,2.2292,2.1468,2.1538,2.2081,2.2581,2.2674,2.3299,2.4024,2.4588,2.5006,2.5419,2.6206,2.6557,2.6781,2.722,2.7412,2.7698,2.8443,2.8615,2.8966,2.9988,3.0683,3.108,3.108,3.1897,3.2748,3.3688,3.4281,3.4671,3.4671,3.4826,3.5104,3.5687,3.5914,3.6011,3.6011,3.6659,3.7048,3.7048,3.7255,3.7342,3.7259,3.6735,3.6502,3.6628,3.6353,3.6322,3.6507,3.7118,3.7679,3.8278,3.892,3.984,1.6467,1.6353,1.5951,1.4669,1.4213,1.3795,1.2597,1.2058,1.1809,1.1809,1.1685,1.1373,1.0667,1.0288,0.9843,0.9098,0.8798,0.8755,0.8939,0.9121,0.9251,0.9427,0.892,0.8538,0.8581,0.8138,0.8021,0.8441,0.7996,0.7999,0.875,0.9381,0.9788,1.0121,1.0034,1.0293,1.0825,1.0865,1.1352,1.2355,1.2949,1.3726,1.4712,1.4825,1.561,1.6976,1.6492,1.6901,1.804,1.8136,1.8558,1.9134,1.9982,2.0837,2.1756,2.2435,2.3054,2.3519,2.3835,2.3451,2.2835,2.2764,2.3157,2.3621,2.3621,2.4306,2.5158,2.5533,2.6089,2.6773,2.7537,2.7889,2.8157,2.847,2.8619,2.8873,2.9693,2.981,3.0133,3.1302,3.1875,3.2444,3.2943,3.3388,3.4016,3.4994,3.5444,3.5785,3.6076,3.5849,3.5849,3.627,3.6562,3.6756,3.6756,3.7404,3.7792,3.7792,3.7979,3.8059,3.7886,3.7567,3.7329,3.715,3.6877,3.6693,3.6693,3.7178,3.7897,3.8902,3.9435,4.0461,1.6864,1.6524,1.6046,1.5468,1.4805,1.4154,1.3554,1.2842,1.2228,1.2181,1.192,1.1487,1.1009,1.0809,1.0461,0.956,0.9491,0.9362,0.8927,0.9227,0.9484,0.9548,0.9192,0.9041,0.918,0.9122,0.9313,0.9676,0.9253,0.9145,0.9564,1.0289,1.0697,1.0783,1.0783,1.1154,1.1979,1.1938,1.252,1.3548,1.4737,1.5396,1.566,1.654,1.7309,1.7929,1.7683,1.7974,1.8692,1.8851,1.9292,2.006,2.076,2.1756,2.2809,2.3519,2.3959,2.4273,2.4273,2.4418,2.449,2.4345,2.4418,2.4706,2.4706,2.53,2.602,2.6089,2.6909,2.7934,2.8417,2.8803,2.9338,2.987,2.9993,3.0147,3.0955,3.1188,3.1477,3.2124,3.2523,3.3131,3.4248,3.4492,3.4972,3.6228,3.6432,3.6691,3.7371,3.6853,3.6465,3.6562,3.7112,3.7469,3.7469,3.8051,3.8408,3.8408,3.8408,3.8262,3.7943,3.7943,3.777,3.7476,3.721,3.7091,3.7306,3.7634,3.8509,3.9935,4.0382,4.1359,1.7145,1.692,1.6581,1.6083,1.5507,1.4864,1.4296,1.3614,1.3003,1.2688,1.2209,1.1791,1.1395,1.0987,1.0592,1.0105,0.9804,0.9633,0.9432,0.956,0.9765,0.9906,0.9843,0.9869,1.0072,0.992,1.0135,1.0798,1.0651,1.065,1.1031,1.1353,1.1702,1.2201,1.2276,1.2628,1.3337,1.3346,1.4047,1.5342,1.5593,1.6399,1.7581,1.7826,1.8152,1.8559,1.8479,1.8594,1.8772,1.9608,2.0041,2.0275,2.1983,2.2756,2.3075,2.3982,2.4418,2.449,2.4657,2.4729,2.4729,2.449,2.4969,2.5557,2.5557,2.6227,2.7111,2.767,2.813,2.8556,2.9345,2.9623,2.987,3.0629,3.0807,3.0984,3.1762,3.24,3.2864,3.2971,3.39,3.4748,3.4981,3.5529,3.6228,3.6993,3.7145,3.7404,3.8116,3.7598,3.7371,3.7987,3.8149,3.8213,3.8213,3.8343,3.8408,3.8408,3.8408,3.8408,3.8319,3.8059,3.7886,3.7828,3.7476,3.7821,3.8836,3.9357,4.0282,4.151,4.2117,4.2788,1.7479,1.7256,1.6976,1.6786,1.6332,1.5736,1.5249,1.4352,1.3433,1.2989,1.2314,1.1751,1.1648,1.139,1.1042,1.0555,1.0358,1.0162,0.9703,0.9767,0.9983,1.0123,1.0225,1.0338,1.0478,1.0555,1.0771,1.1206,1.1362,1.1525,1.1539,1.2004,1.2485,1.2783,1.3128,1.3735,1.4489,1.4497,1.5138,1.6413,1.6702,1.7235,1.8082,1.8488,1.8798,1.8834,1.8993,1.9231,1.9706,2.0294,2.1048,2.1866,2.2883,2.357,2.3982,2.449,2.4657,2.4657,2.4801,2.5135,2.5465,2.537,2.5652,2.5975,2.5975,2.6841,2.7973,2.8325,2.8712,2.9184,2.9685,3.0025,3.0389,3.0984,3.1649,3.2358,3.306,3.3751,3.4354,3.4771,3.5336,3.5882,3.6238,3.6594,3.708,3.7792,3.789,3.8075,3.8623,3.8196,3.8019,3.8375,3.8408,3.8408,3.8408,3.8408,3.8408,3.8408,3.8408,3.8408,3.8408,3.8617,3.8753,3.8753,3.9017,3.9398,3.9956,4.0701,4.1598,4.2576,4.311,4.3784,1.7865,1.759,1.7312,1.7423,1.7002,1.6419,1.6093,1.4979,1.3922,1.3366,1.2534,1.1859,1.1792,1.1721,1.1423,1.0748,1.084,1.0733,0.9958,1.0059,1.0275,1.0415,1.0555,1.0694,1.073,1.0975,1.1347,1.1755,1.2289,1.2462,1.2138,1.2885,1.3344,1.355,1.4065,1.4755,1.5584,1.5584,1.6067,1.7195,1.7828,1.8294,1.8611,1.9455,1.9728,1.9687,1.9825,2.0294,2.0914,2.1201,2.2113,2.3401,2.3694,2.4227,2.4801,2.4849,2.4849,2.4849,2.5064,2.5606,2.6183,2.6321,2.6526,2.6569,2.6569,2.7644,2.8748,2.8748,2.9247,2.9803,3.0225,3.0713,3.122,3.1955,3.3005,3.4027,3.4632,3.508,3.559,3.6206,3.6432,3.6745,3.7264,3.7601,3.7948,3.8423,3.8655,3.8821,3.9007,3.8876,3.8766,3.8766,3.86,3.852,3.852,3.86,3.8655,3.8655,3.8786,3.8884,3.8884,3.9625,4.0018,4.0018,4.0623,4.1066,4.1346,4.1999,4.2753,4.3681,4.4019,4.4574,1.8325,1.7975,1.77,1.7975,1.7233,1.6557,1.6727,1.5796,1.4675,1.3818,1.3227,1.265,1.1846,1.1674,1.1437,1.0594,1.0942,1.1034,1.0045,1.0555,1.0911,1.0771,1.0911,1.1024,1.1066,1.129,1.1896,1.2837,1.4022,1.4324,1.3618,1.412,1.4788,1.5513,1.5618,1.6017,1.6733,1.6733,1.7133,1.8026,1.8825,1.9564,2.0333,2.1192,2.1611,2.1735,2.1735,2.1886,2.2167,2.2914,2.3379,2.3526,2.4394,2.4706,2.4801,2.4992,2.504,2.5182,2.6,2.6277,2.6483,2.7136,2.7776,2.8298,2.8298,2.8967,2.9685,2.9685,2.9837,3.0348,3.1721,3.2109,3.2616,3.4591,3.5505,3.6002,3.6066,3.6152,3.6238,3.6303,3.6896,3.7427,3.7492,3.8553,3.9229,3.8843,3.9401,3.9714,3.9242,3.9558,3.9868,3.9868,3.9329,3.8898,3.8898,3.9276,3.9506,3.9506,4.0174,4.0595,4.0595,4.1297,4.1665,4.1665,4.1732,4.232,4.341,4.3464,4.4087,4.5214,4.5267,4.5302,1.8101,1.8123,1.8302,1.8356,1.7855,1.7237,1.7042,1.6059,1.5006,1.4435,1.3557,1.283,1.2627,1.2314,1.1908,1.1506,1.157,1.1432,1.0899,1.1129,1.1396,1.1262,1.1401,1.1464,1.1421,1.2078,1.3056,1.4313,1.5257,1.5652,1.5475,1.5354,1.5583,1.6102,1.6468,1.6835,1.7235,1.7235,1.7929,1.9185,1.9487,2.0346,2.1597,2.1954,2.2125,2.2188,2.2188,2.2489,2.3084,2.3526,2.3963,2.4587,2.5441,2.5465,2.5182,2.6208,2.6277,2.6,2.6824,2.7572,2.8331,2.8705,2.9542,3.0276,2.947,2.9775,3.046,3.0984,3.1449,3.1977,3.2703,3.3484,3.4478,3.5632,3.6142,3.6432,3.6821,3.6972,3.7124,3.7578,3.7981,3.8417,3.8705,3.9254,3.9629,3.9698,3.9952,4.0201,4.0285,4.0235,4.0251,4.0577,3.9986,3.961,3.961,4.0012,4.0333,4.0333,4.1037,4.1439,4.1439,4.2143,4.2546,4.2546,4.3259,4.3796,4.4266,4.457,4.4955,4.5423,4.5423,4.5423,1.8181,1.8566,1.9028,1.8655,1.8329,1.7882,1.7376,1.6489,1.5691,1.5261,1.4312,1.358,1.36,1.3075,1.2494,1.2253,1.2126,1.1952,1.1673,1.1896,1.2149,1.2226,1.2348,1.2458,1.246,1.3558,1.4698,1.5739,1.636,1.6912,1.7267,1.6872,1.6609,1.6656,1.7042,1.7442,1.7765,1.7833,1.8587,2.0226,2.044,2.128,2.2616,2.2936,2.3084,2.3158,2.3158,2.3452,2.4036,2.4181,2.4707,2.5535,2.6139,2.6208,2.6045,2.7136,2.7136,2.685,2.7788,2.8798,2.964,3.0201,3.1152,3.1947,3.1245,3.124,3.1622,3.2211,3.3111,3.4031,3.4152,3.5225,3.6358,3.6809,3.6918,3.7156,3.7775,3.8035,3.8327,3.8983,3.9242,3.9454,3.9834,4.0036,4.0235,4.0397,4.0638,4.0827,4.1036,4.0908,4.0977,4.1579,4.1207,4.0822,4.0526,4.1189,4.1578,4.1508,4.2185,4.2591,4.2591,4.3335,4.3707,4.3707,4.4524,4.4872,4.4872,4.523,4.5423,4.5423,4.5423,4.5423,1.8859,1.9434,1.994,1.8869,1.8618,1.846,1.7926,1.7396,1.6921,1.6378,1.58,1.5236,1.4663,1.3854,1.3106,1.2605,1.2616,1.2604,1.2334,1.2883,1.3369,1.3669,1.3862,1.4123,1.4559,1.5824,1.6819,1.7022,1.7483,1.8076,1.8911,1.8643,1.8192,1.7529,1.7461,1.7803,1.8509,1.8509,1.9274,2.0913,2.1724,2.2677,2.3526,2.4394,2.4849,2.504,2.504,2.5182,2.53,2.53,2.5721,2.6414,2.6414,2.6824,2.7471,2.7471,2.7471,2.7683,2.917,2.969,2.9931,3.148,3.2425,3.3143,3.3921,3.3716,3.3181,3.3179,3.4695,3.6368,3.6368,3.7342,3.8375,3.8375,3.8488,3.8733,3.9262,3.9473,3.9732,4.0201,4.0446,4.0577,4.0577,4.1094,4.1356,4.0849,4.1401,4.1701,4.1255,4.1613,4.2192,4.3014,4.3085,4.2693,4.1759,4.2777,4.3374,4.3197,4.3871,4.4285,4.4285,4.501,4.5371,4.5371,4.5371,4.5371,4.5371,4.5423,4.5423,4.5423,4.5423,4.5423,1.8973,1.9428,1.9991,1.9631,1.9029,1.8434,1.8232,1.775,1.7147,1.6549,1.6109,1.5625,1.5028,1.426,1.3659,1.3491,1.3115,1.2937,1.3181,1.344,1.379,1.4183,1.4551,1.5136,1.6048,1.6562,1.7406,1.8721,1.8803,1.911,1.9879,1.9814,1.9617,1.9309,1.9156,1.9222,1.9573,1.9573,2.0421,2.2115,2.2412,2.3306,2.4707,2.504,2.5182,2.5253,2.5253,2.5511,2.607,2.6208,2.6663,2.7378,2.7973,2.8038,2.7934,2.8931,2.8967,2.8702,3.0135,3.0898,3.1545,3.3019,3.3938,3.4579,3.5425,3.5155,3.476,3.5796,3.6526,3.7186,3.7623,3.8157,3.86,3.9007,3.9189,3.9401,3.9902,4.0152,4.0334,4.048,4.0625,4.0849,4.1139,4.1366,4.1578,4.1788,4.2002,4.2299,4.2739,4.2896,4.3266,4.4013,4.4618,4.4556,4.3535,4.3999,4.4356,4.4502,4.4836,4.5148,4.5319,4.539,4.5423,4.5423,4.5423,4.5423,4.5423,4.5423,4.5423,4.5423,4.5423,4.5632,1.9809,2.0273,2.0868,2.0497,1.9888,1.9309,1.9108,1.861,1.8068,1.7677,1.7272,1.6744,1.6177,1.5239,1.4488,1.4268,1.3641,1.341,1.4023,1.4176,1.4525,1.5332,1.5836,1.6582,1.7745,1.7901,1.8582,1.9987,1.9879,2.0074,2.0782,2.0782,2.0846,2.106,2.0398,2.0139,2.0484,2.0549,2.1433,2.3136,2.3179,2.3925,2.53,2.5394,2.537,2.5465,2.5791,2.6183,0.0,2.7002,2.7577,2.8206,2.8812,2.8876,2.8931,2.9775,2.9978,2.9982,3.1363,3.228,3.3048,3.4562,3.5485,3.6134,3.6874,3.6654,3.6253,3.7467,3.7828,3.7943,3.8408,3.8711,3.9061,3.9401,3.9732,4.0136,4.059,4.0827,4.1001,4.1185,4.1311,4.1445,4.1753,4.1796,4.1917,4.2246,4.2537,4.2929,4.3465,4.375,4.4214,4.4963,4.5499,4.5668,4.5356,4.5411,4.5418,4.5515,4.5626,4.5752,4.592,4.5803,4.5649,4.5546,4.5546,4.5528,4.5423,4.5423,4.5528,4.5701,4.5701,4.6005,0.0,2.1795,2.231,2.1307,2.1015,2.0868,2.037,1.9836,0.0,1.9393,1.8898,1.8313,1.7765,1.6539,1.5442,1.4965,1.424,1.4063,1.4992,1.5172,1.568,1.6939,1.7512,1.8279,1.9375,1.977,2.0204,2.0824,2.0782,2.0974,2.169,2.169,2.2002,2.269,2.129,2.0782,2.1187,2.14,2.2297,2.3779,2.4001,2.4536,2.5392,2.5652,2.5746,2.5816,2.6595,2.7002,2.7111,2.7776,2.8492,2.9066,2.9129,2.956,3.0111,3.0168,3.0602,3.1363,3.2786,3.3719,3.4502,3.5983,3.6906,3.7594,3.8205,3.7976,3.7594,3.8205,3.852,3.8632,3.8655,3.9169,3.9662,3.968,4.0186,4.0814,4.1276,4.1455,4.1709,4.2205,4.2287,4.2287,4.2287,4.2323,4.2394,4.2394,4.3072,4.3607,4.3721,4.4328,4.5043,4.5873,4.5936,4.6222,4.6972,4.6778,4.6495,4.6301,4.6253,4.6204,4.6253,4.6204,4.607,4.5819,4.5819,4.5701,4.5528,4.5528,4.5752,4.6266,4.6266,4.6554,2.3629,0.0,2.2085,2.1815,2.1485,2.1118,0.0,2.0577,0.0,0.0,0.0,1.8026,1.7427,1.6492,1.5728,1.5449,1.5309,1.5437,1.6011,1.674,1.7387,1.7874,1.855,1.9349,2.0217,2.0737,2.125,2.1791,2.1667,2.1877,2.258,2.258,2.2604,2.269,2.2859,2.2774,2.2359,2.2359,2.2761,2.3545,2.4556,2.5304,2.5962,2.6997,2.7471,2.7471,2.7644,2.8038,2.8556,2.8839,2.9407,2.9993,3.0176,3.0326,3.0534,3.0997,3.1626,3.2347,3.3662,3.4544,3.537,3.6747,3.7594,3.8205,3.8464,3.8432,3.8319,3.852,3.8655,3.8843,3.9242,3.9558,3.9935,4.0733,4.1094,4.1445,4.1959,4.2086,4.2127,4.2287,4.2287,4.2287,4.2287,4.2822,4.3215,4.3215,4.3857,4.4657,4.5528,4.5786,4.6302,4.7384,4.7247,4.7183,4.7363,4.6916,4.6637,4.6778,4.6447,4.6301,4.6495,4.6301,4.6204,4.6105,4.6105,4.6217,4.6376,4.6376,4.6613,4.699,4.699,4.7212,2.4761,2.3851,2.2901,2.2867,2.2328,2.1805,2.1794,2.1218,0.0,0.0,0.0,1.8556,1.792,1.7204,1.6499,1.5941,1.6053,1.635,1.6723,1.7594,1.8336,1.8703,1.929,2.0155,2.1323,2.169,2.2063,2.2494,2.2494,2.2641,2.2969,2.2969,2.309,2.3305,2.3721,2.3636,2.3125,2.3458,2.3859,2.4325,2.5361,2.6096,2.6544,2.7576,2.8103,2.813,2.8583,2.8967,2.9345,2.9747,3.0115,3.0507,3.0866,3.0866,3.0775,3.1901,3.2617,3.3216,3.4759,3.6004,3.6996,3.77,3.8262,3.8655,3.8952,3.9115,3.9169,3.9061,3.9169,3.9401,3.9935,4.0334,4.0685,4.1276,4.1622,4.1959,4.2246,4.2287,4.2287,4.2287,4.2608,4.29,4.3068,4.3714,4.4294,4.4457,4.5106,4.5838,4.6477,4.6839,4.732,4.7955,4.7829,4.7747,4.7747,4.7414,4.7187,4.6998,4.687,4.687,4.7007,4.7017,4.6936,4.6845,4.6753,4.6717,4.6945,4.6945,4.7124,4.7512,4.7512,4.7761,2.5319,2.4748,2.4103,2.4,2.3362,2.2714,2.2714,0.0,0.0,0.0,0.0,0.0,1.8752,1.8037,1.7253,1.6447,1.6802,1.735,1.7548,1.8295,1.9064,1.9622,2.0029,2.0864,2.2493,2.2738,2.2859,2.3125,2.3245,2.3305,2.3305,2.3245,2.3543,2.4247,2.4363,2.4221,2.393,2.4483,2.4895,2.5255,2.6142,2.6769,2.7149,2.8021,2.8474,2.862,2.9407,2.9747,2.9808,3.0507,3.0747,3.0807,3.1422,3.1366,3.125,3.2932,3.3719,3.4212,3.6075,3.7544,3.8632,3.86,3.8766,3.9007,3.9506,3.9783,3.9935,3.9885,3.9935,4.0086,4.0625,4.1094,4.1534,4.1622,4.1959,4.2287,4.2287,4.2287,4.2323,4.2465,4.3078,4.3704,4.4101,4.4831,4.5457,4.5731,4.6499,4.701,4.7049,4.7633,4.8072,4.8151,4.8111,4.8072,4.8072,4.8032,4.7747,4.7187,4.7407,4.7578,4.7578,4.7829,4.7875,4.7674,4.7428,4.7342,4.7349,4.7349,4.7638,4.8078,4.8078,4.8271,2.5859,2.5579,2.5125,2.4591,2.41,2.3686,2.3686,0.0,0.0,0.0,0.0,0.0,0.0,1.7963,1.7089,1.7089,1.8073,1.8962,1.9282,1.994,2.063,2.1026,2.1281,2.204,2.3625,2.4079,2.4105,2.3569,2.3897,2.4131,2.4131,2.4015,2.4221,2.4851,2.5384,2.5605,2.555,2.5133,2.4991,2.5043,2.6214,2.7055,2.7698,2.885,2.9688,3.0237,3.0387,3.0447,3.0507,3.1073,3.1364,3.1422,3.2048,3.2553,3.3047,3.3925,3.4953,3.6164,3.7729,3.8423,3.8632,3.8711,3.9115,3.9506,3.968,4.0086,4.0577,4.1047,4.0908,4.0754,4.123,4.1445,4.1622,4.2044,4.2246,4.2287,4.2287,4.2287,4.2501,4.3179,4.3642,4.4133,4.4827,4.5824,4.6567,4.6606,4.7299,4.7929,4.8124,4.8272,4.8421,4.875,4.8495,4.8345,4.8345,4.8151,4.7951,4.787,4.7911,4.7911,4.7911,4.7992,4.7992,4.7951,4.7875,4.7995,4.8194,4.8194,4.8421,4.875,4.875,4.8785,2.642,2.632,2.6208,2.6129,2.5277,2.4335,2.392,2.331,0.0,0.0,0.0,0.0,0.0,1.876,1.8405,1.916,1.985,2.0416,2.0633,2.1135,2.174,2.2406,2.2751,2.3474,2.4772,2.505,2.5021,2.4624,2.4738,2.4794,2.4794,2.4681,2.4851,2.5495,2.577,2.6071,2.6394,2.639,2.6201,2.5988,2.6885,2.7625,2.834,2.9519,3.0452,3.1073,3.1422,3.1595,3.1595,3.1879,3.1992,3.2048,3.2625,3.3029,3.3604,3.4945,3.6368,3.7721,3.8712,3.9169,3.9295,3.9662,3.9986,4.0285,4.0625,4.0908,4.1185,4.1753,4.1578,4.1311,4.1796,4.1959,4.2002,4.2246,4.2287,4.2287,4.2287,4.2772,4.3324,4.3683,4.4722,4.5688,4.617,4.7055,4.7719,4.7905,4.8237,4.8532,4.8678,4.8678,4.875,4.889,4.875,4.8678,4.8678,4.8569,4.842,4.8231,4.8192,4.8269,4.8495,4.8495,4.8495,4.8495,4.8495,4.8569,4.8678,4.8678,4.875,4.889,4.889,4.889,2.6922,2.695,2.6994,2.7065,2.5979,2.4736,2.4229,2.3571,0.0,0.0,0.0,0.0,2.0115,1.9808,1.9901,2.0999,2.1383,2.1636,2.1974,2.2179,2.2687,2.3649,2.3895,2.4502,2.5739,2.5851,2.5742,2.5522,2.5522,2.5522,2.5522,2.5494,2.5769,2.6336,2.6443,2.6707,2.7181,2.753,2.7429,2.6974,2.7577,2.8277,2.9098,3.0013,3.0895,3.1709,3.2216,3.2382,3.2382,3.2547,3.2602,3.2656,3.3456,3.4026,3.4666,3.6349,3.7745,3.8931,3.9348,3.9732,4.0086,4.048,4.0802,4.1036,4.1401,4.1578,4.1753,4.2205,4.2002,4.1753,4.2205,4.2287,4.2328,4.2409,4.2374,4.2486,4.2745,4.3484,4.4222,4.4584,4.5872,4.7056,4.75,4.8089,4.8605,4.8855,4.889,4.889,4.889,4.889,4.889,4.889,4.889,4.889,4.889,4.889,4.8785,4.8532,4.8495,4.8605,4.889,4.889,4.889,4.889,4.889,4.889,4.889,4.889,4.9002,4.9187,4.9187,4.9299,2.7352,2.7365,2.7161,2.6462,2.5487,0.0,2.5041,2.4028,0.0,2.2112,0.0,0.0,2.0958,2.0725,2.0858,2.1766,2.2051,2.2494,2.3498,2.3289,2.3506,2.4742,2.4348,2.4708,2.6433,2.663,2.639,2.5797,2.6176,2.639,2.639,2.6701,2.7136,2.775,2.8125,2.8319,2.8367,2.8288,2.7947,2.7479,2.8008,2.8958,3.0216,3.0247,3.1067,3.2327,3.2382,3.2382,3.2437,3.2949,3.313,3.3245,3.471,3.6157,3.76,3.8319,3.8995,3.9558,3.9732,4.0136,4.0577,4.0754,4.1082,4.1445,4.149,4.1874,4.2246,4.2287,4.2287,4.2246,4.2287,4.2287,4.2369,4.2613,4.2655,4.2948,4.4014,4.4308,4.4819,4.6314,4.6984,4.7463,4.82,4.8604,4.8855,4.889,4.889,4.889,4.889,4.889,4.889,4.889,4.889,4.889,4.889,4.889,4.889,4.8855,4.8855,4.8855,4.889,4.889,4.889,4.889,4.889,4.889,4.889,4.889,4.9299,5.0042,5.0079,5.0525,2.7747,2.743,2.7,2.6961,2.5657,0.0,0.0,2.3549,2.2802,2.1878,2.1624,0.0,2.173,2.2141,2.2702,2.3285,2.3748,2.42,2.4618,2.4521,2.4885,2.6161,2.6091,2.652,2.8069,2.8192,2.8094,2.7868,2.7947,2.7997,2.7997,2.8015,2.8161,2.8384,2.8559,2.8654,2.8654,2.8857,2.8904,2.8686,2.8432,2.8996,3.032,3.0678,3.1612,3.2949,3.3403,3.3559,3.361,3.3917,3.4018,3.4165,3.5654,3.7063,3.8299,3.903,3.9714,4.0285,4.059,4.092,4.123,4.1622,4.1874,4.2002,4.2002,4.2127,4.2287,4.2287,4.2414,4.2494,4.2369,4.2414,4.2573,4.2691,4.3244,4.3905,4.4309,4.537,4.6397,4.6985,4.7757,4.8379,4.864,4.882,4.889,4.889,4.889,4.889,4.889,4.889,4.889,4.889,4.889,4.889,4.889,4.889,4.889,4.889,4.889,4.889,4.889,4.889,4.889,4.889,4.889,4.889,4.889,4.889,4.9076,4.9336,4.9373,4.9559,2.8376,2.7825,2.7163,2.7126,0.0,0.0,2.3641,2.3309,2.2892,2.2152,2.2228,2.2448,2.2736,2.3422,2.411,2.4424,2.4922,2.5297,2.5449,2.5335,2.567,2.6691,2.6999,2.7561,2.8677,2.8993,2.9074,2.9074,2.8982,2.8935,2.8935,2.9028,2.9074,2.9074,2.9166,2.9257,2.9257,2.9528,2.9661,2.9661,2.9134,2.9579,3.088,3.1307,3.2269,3.3578,3.4118,3.4349,3.4349,3.4448,3.4808,3.5383,3.6538,3.7803,3.9059,3.9716,4.0334,4.0908,4.1276,4.1499,4.1796,4.2205,4.2287,4.2287,4.2287,4.2369,4.2414,4.2414,4.2652,4.2842,4.2936,4.291,4.2918,4.3285,4.3944,4.4674,4.5333,4.6505,4.7496,4.7755,4.8414,4.889,4.889,4.889,4.889,4.889,4.889,4.889,4.889,4.889,4.889,4.889,4.889,4.889,4.889,4.889,4.889,4.889,4.889,4.889,4.889,4.889,4.889,4.889,4.889,4.889,4.889,4.889,4.9039,4.9299,4.9299,4.9517,2.927,2.866,2.7746,2.6843,0.0,0.0,2.375,2.3319,2.3091,2.3091,2.3493,2.3842,2.3979,2.4447,2.4875,2.5079,2.5285,2.5594,2.6068,2.5705,2.5625,2.6254,2.6796,2.737,2.8069,2.8709,2.912,2.912,2.912,2.912,2.912,2.9572,2.9793,2.9793,3.0172,3.0417,3.0417,3.029,3.0205,3.0205,3.0205,3.0915,3.2183,3.2183,3.2964,3.43,3.4448,3.4497,3.4497,3.4497,3.5448,3.6967,3.7416,3.8618,4.0086,4.0611,4.1128,4.1534,4.1534,4.1874,4.2287,4.2287,4.2287,4.2287,4.2287,4.2494,4.2693,4.2693,4.2957,4.3397,4.4199,4.3834,4.3506,4.4557,4.4847,4.5358,4.7262,4.7701,4.7961,4.8742,4.889,4.889,4.889,4.889,4.889,4.889,4.889,4.889,4.889,4.889,4.889,4.889,4.889,4.889,4.889,4.889,4.889,4.889,4.889,4.889,4.889,4.889,4.889,4.889,4.889,4.889,4.889,4.889,4.9299,5.0079,5.0153,5.0773,2.9254,2.8234,2.7062,2.6696,0.0,0.0,0.0,2.3952,0.0,0.0,2.4445,2.5108,2.5739,2.5962,2.6182,2.6512,2.6622,2.6624,2.6556,2.6385,2.658,2.7205,2.7783,2.8392,2.9108,2.9747,3.0054,3.0054,3.0054,3.0054,3.0054,3.0215,3.03,3.03,3.0384,3.0593,3.0885,3.0593,3.0551,3.0804,3.051,3.1046,3.2321,3.2321,3.3107,3.4448,3.4594,3.4802,3.5144,3.552,3.6616,3.8023,3.8174,3.9376,4.1047,4.123,4.1622,4.2044,4.2044,4.2205,4.2287,4.2287,4.2414,4.2573,4.2573,4.2806,4.3141,4.376,4.4126,4.4524,4.5332,4.551,4.554,4.5621,4.6276,4.7006,4.759,4.8147,4.863,4.8853,4.889,4.889,4.889,4.889,4.889,4.889,4.889,4.889,4.889,4.9094,4.9257,4.9257,4.9431,4.9579,4.955,4.9333,4.9302,4.9521,4.9346,4.916,4.889,4.889,4.889,4.889,4.889,4.9027,4.9257,4.9027,4.9235,4.9897,5.0284,5.0792,2.9514,2.8333,2.7062,2.6879,2.567,2.47,2.5356,2.4975,2.4658,2.5258,2.5738,2.6242,2.6915,2.7063,2.7116,2.7361,2.74,2.7276,2.6956,2.7021,2.7262,2.7705,2.8522,2.9304,2.982,3.0442,3.0797,3.0757,3.0593,3.0551,3.0757,3.0593,3.0634,3.0965,3.0804,3.0925,3.1355,3.1123,3.1123,3.1355,3.1044,3.1691,3.3048,3.2796,3.3594,3.5131,3.5237,3.5464,3.5776,3.6431,3.7387,3.856,3.9059,4.0149,4.1534,4.1753,4.2002,4.2287,4.2287,4.2369,4.2454,4.2454,4.2652,4.292,4.292,4.3324,4.3942,4.4418,4.4998,4.5648,4.6461,4.6857,4.6925,4.6718,4.7191,4.7776,4.811,4.8556,4.889,4.889,4.889,4.889,4.889,4.8993,4.9094,4.9094,4.9123,4.9155,4.9123,4.9346,4.9558,4.957,4.9792,4.9898,4.9846,4.97,4.9673,4.9846,4.9683,4.9483,4.9302,4.9277,4.9283,4.9283,4.9283,4.9377,4.9558,4.9678,4.9951,5.0334,5.0959,5.1462,2.9855,2.873,2.7449,2.7253,2.6038,2.5089,2.5778,2.6486,2.7031,2.7148,2.7137,2.7308,2.7811,2.7824,2.7789,2.776,2.776,2.7642,2.7307,2.7592,2.784,2.7913,2.9108,3.0038,3.0345,3.095,3.1278,3.1162,3.0804,3.0797,3.1123,3.0838,3.0925,3.1694,3.1355,3.1355,3.1768,3.1731,3.1731,3.1768,3.1731,3.2524,3.4047,3.3529,3.4304,3.6079,3.6249,3.6256,3.6326,3.717,3.7966,3.8772,3.9974,4.0918,4.1622,4.2086,4.2328,4.2328,4.2328,4.2494,4.2768,4.2768,4.2957,4.3251,4.3324,4.405,4.4881,4.5029,4.5827,4.6773,4.759,4.7813,4.7813,4.7813,4.7813,4.7999,4.8742,4.889,4.8925,4.8925,4.8959,4.8959,4.8959,4.922,4.9439,4.9439,4.9558,4.9608,4.9445,4.9627,4.9819,4.9923,4.9973,4.9973,4.9973,4.9948,4.9948,4.9973,4.9948,4.9948,4.9973,4.9872,4.983,4.983,4.9879,4.9944,4.9971,5.0778,5.1223,5.1315,5.2085,5.2665,2.9888,2.873,2.7449,2.7253,2.6935,2.6892,2.7687,2.9024,2.9774,2.8778,2.8397,2.8474,2.9215,2.8828,2.8317,2.8065,2.8037,2.7926,2.7642,2.8198,2.8654,2.8638,2.9892,3.0731,3.0803,3.132,3.166,3.1582,3.1507,3.1507,3.1582,3.1507,3.1545,3.1694,3.162,3.1768,3.2162,3.1877,3.1877,3.2162,3.1877,3.2711,3.4541,3.4047,3.4679,3.6172,3.658,3.6741,3.6851,3.8015,3.8947,3.9691,4.0593,4.1451,4.2127,4.2246,4.2414,4.2613,4.2613,4.2844,4.3069,4.3069,4.3286,4.364,4.4265,4.4767,4.5482,4.6743,4.7259,4.7627,4.8444,4.863,4.863,4.863,4.863,4.8704,4.8853,4.8993,4.9164,4.9164,4.9346,4.9521,4.9521,4.9683,4.9808,4.9808,4.9834,4.9834,4.9796,5.0073,5.0275,5.0298,5.0547,5.0663,5.0625,5.043,5.0371,5.0606,5.0406,5.0385,5.0606,5.0159,4.9884,4.9884,5.0502,5.0924,5.1127,5.176,5.231,5.2746,5.3413,5.3866,2.9984,2.8821,2.731,2.6397,2.7055,2.807,2.8525,3.0179,3.1544,3.1171,3.0522,3.0039,3.016,2.9612,2.9047,2.8612,2.8412,2.8371,2.845,2.8963,2.9503,2.9941,3.0938,3.1608,3.1702,3.1986,3.2127,3.1985,3.1804,3.1804,3.1985,3.1804,3.1877,3.2266,3.2091,3.2197,3.2606,3.2369,3.2369,3.2606,3.2369,3.3213,3.4942,3.5465,3.6162,3.69,3.7129,3.7243,3.7314,3.875,3.9651,4.0269,4.1417,4.2214,4.2765,4.2765,4.2806,4.2957,4.2957,4.3142,4.3391,4.3391,4.3858,4.4498,4.4905,4.5708,4.6624,4.7441,4.7999,4.837,4.8779,4.8959,4.9027,4.9027,4.9027,4.9027,4.9027,4.9257,4.9439,4.9439,4.9627,4.9781,4.9781,4.9986,5.013,5.013,5.0176,5.0199,5.0138,5.0368,5.0567,5.0644,5.0808,5.0897,5.0841,5.0735,5.0678,5.0841,5.1103,5.1316,5.146,5.1528,5.1398,5.0955,5.1775,5.228,5.2427,5.3085,5.3574,5.3899,5.4626,5.5032,3.0133,2.8924,2.7205,2.5513,2.6949,2.8869,2.9022,3.0896,3.2825,3.3545,3.258,3.139,3.0884,3.0304,2.9746,2.9154,2.8978,2.9062,2.9431,2.9962,3.0559,3.132,3.2008,3.2457,3.2666,3.2811,3.2781,3.2438,3.2196,3.2195,3.2404,3.2091,3.2231,3.2866,3.2573,3.2573,3.2902,3.2898,3.2898,3.2898,3.3152,3.4005,3.5325,3.7077,3.7864,3.7791,3.7648,3.7684,3.7898,3.9363,4.0161,4.0528,4.2192,4.2957,4.3214,4.3214,4.3251,4.3286,4.3286,4.3426,4.3664,4.3664,4.442,4.5324,4.5472,4.6513,4.7738,4.7887,4.8404,4.8959,4.8993,4.916,4.9289,4.9352,4.9352,4.9352,4.9289,4.9558,4.9803,4.9803,4.9911,5.0021,5.0068,5.0303,5.0507,5.0507,5.0587,5.0625,5.051,5.0605,5.0773,5.089,5.0906,5.0983,5.1099,5.1138,5.1177,5.1331,5.2028,5.2414,5.2414,5.3194,5.3314,5.2584,5.3261,5.359,5.359,5.4438,5.4824,5.4824,5.5557,5.5905,3.029,2.9055,2.7402,2.5754,2.7187,2.918,2.9946,3.2001,3.3996,3.4797,3.3279,3.18,3.1688,3.0968,3.0139,2.9381,2.9826,3.0287,3.0317,3.1446,3.2287,3.2391,3.2892,3.3196,3.3055,3.3633,3.3745,3.2905,3.3446,3.3484,3.2838,3.277,3.2802,3.2902,3.2834,3.2834,3.2898,3.2898,3.2898,3.2934,3.4258,3.5142,3.5624,3.7931,3.8834,3.8611,3.7898,3.8005,3.8719,3.9876,4.0347,4.0564,4.2414,4.3178,4.3214,4.3214,4.3321,4.3563,4.3563,4.373,4.3923,4.3923,4.4549,4.5435,4.6141,4.6995,4.785,4.8556,4.8919,4.9193,4.9302,4.9491,4.9665,4.9781,4.9949,4.9987,4.9693,4.991,5.0135,5.0135,5.0363,5.0625,5.0752,5.0803,5.0841,5.0841,5.0858,5.0858,5.0858,5.0874,5.0874,5.089,5.0906,5.1215,5.195,5.2028,5.2337,5.3111,5.3265,5.3343,5.3343,5.4155,5.4564,5.4448,5.4455,5.4438,5.4438,5.5326,5.575,5.575,5.5904,5.6,2.9274,2.8452,2.7589,2.6356,2.7595,2.9434,3.0737,3.2595,3.4165,3.4496,3.3739,3.2864,3.2354,3.1314,3.0437,3.0243,3.0367,3.0841,3.1749,3.2437,3.2945,3.3246,3.3613,3.3753,3.3473,3.3676,3.3653,3.3208,3.344,3.3418,3.2934,3.2993,3.3024,3.2898,3.2898,3.293,3.3086,3.3086,3.3086,3.3086,3.4794,3.5869,3.6374,3.8023,3.8932,3.9227,3.8865,3.8902,3.9299,4.0236,4.0702,4.1022,4.2768,4.3495,4.3704,4.4217,4.4136,4.3902,4.4383,4.43,4.4098,4.4581,4.5287,4.6136,4.7052,4.7965,4.8765,4.9234,4.9491,4.9627,4.9635,4.9846,5.0012,5.0073,5.0642,5.1041,5.0412,5.0402,5.0507,5.0568,5.0699,5.0841,5.089,5.0906,5.0906,5.0906,5.0906,5.0906,5.0906,5.0906,5.1099,5.1563,5.1641,5.1989,5.284,5.2917,5.3072,5.3459,5.3962,5.4233,5.4233,5.5045,5.547,5.547,5.5397,5.5379,5.5379,5.5748,5.5941,5.5941,5.5998,5.6016,2.8793,2.8345,2.8112,2.7207,2.8295,2.989,3.1069,3.2632,3.384,3.384,3.3541,3.3149,3.2469,3.1445,3.0771,3.0959,3.0997,3.1532,3.297,3.3299,3.3557,3.3968,3.4105,3.408,3.3797,3.3835,3.3761,3.3522,3.356,3.3418,3.3122,3.3238,3.3238,3.3086,3.3055,3.3147,3.3327,3.3327,3.34,3.3617,3.543,3.6583,3.7108,3.8469,3.9365,3.9795,3.9447,3.9528,3.9966,4.0617,4.1115,4.1641,4.3144,4.3976,4.4395,4.5064,4.5026,4.4692,4.5138,4.4878,4.4432,4.5127,4.5935,4.6781,4.7829,4.8792,4.9561,4.9711,4.986,4.9973,5.0021,5.0344,5.0687,5.0692,5.1587,5.2144,5.1257,5.091,5.0791,5.0874,5.0906,5.0906,5.0906,5.0906,5.0906,5.0906,5.0906,5.0906,5.0906,5.1099,5.1486,5.2144,5.2414,5.2879,5.3768,5.3846,5.3923,5.4116,5.4735,5.5084,5.5084,5.5664,5.6012,5.6012,5.6012,5.6012,5.6012,5.6012,5.6012,5.6012,5.6012,5.6012,2.9679,2.9408,2.921,2.8332,2.9347,3.0535,3.0637,3.1912,3.3042,3.3042,3.2375,3.1763,3.166,3.146,3.1276,3.1298,3.1927,3.2689,3.3525,3.4182,3.4524,3.4561,3.4358,3.4154,3.3981,3.4555,3.4568,3.3743,3.4264,3.4324,3.3595,3.3559,3.3559,3.3559,3.3559,3.3559,3.3559,3.3559,3.3988,3.4754,3.6389,3.7314,3.7632,3.9989,4.0812,4.0288,3.8988,3.9312,4.0769,4.1071,4.1641,4.2447,4.3558,4.4506,4.5249,4.5287,4.5732,4.6252,4.5547,4.5249,4.5244,4.5431,4.6165,4.7156,4.8163,4.9148,4.9873,4.9873,5.0011,5.0191,5.0329,5.1144,5.1953,5.2056,5.2785,5.3188,5.2298,5.147,5.089,5.0906,5.0906,5.0906,5.0906,5.0906,5.0906,5.0906,5.0906,5.0906,5.0906,5.1602,5.2144,5.2182,5.2917,5.3807,5.4658,5.4735,5.5045,5.5818,5.5896,5.5935,5.5935,5.5973,5.6012,5.6012,5.6012,5.6012,5.6012,5.6012,5.6012,5.6012,5.6012,5.6012,2.9764,2.9452,2.937,2.9098,2.9439,3.0125,3.1176,3.188,3.2296,3.2296,3.198,3.171,3.1796,3.158,3.1604,3.2119,3.2825,3.3633,3.4466,3.4718,3.4751,3.4604,3.4647,3.4588,3.4413,3.4521,3.4463,3.4105,3.4238,3.4127,3.3623,3.3726,3.3726,3.3587,3.3587,3.3671,3.3807,3.3939,3.4308,3.5018,3.6261,3.7386,3.8427,3.9394,4.0036,4.0383,3.9875,4.0295,4.1329,4.1422,4.223,4.3489,4.4475,4.5324,4.6141,4.6661,4.6698,4.6471,4.627,4.5854,4.5543,4.6318,4.6825,4.7424,4.9087,4.9916,5.0265,5.0368,5.0913,5.1509,5.1563,5.2254,5.3138,5.3713,5.3265,5.2724,5.2995,5.1912,5.0906,5.0906,5.0906,5.0906,5.0906,5.0906,5.0906,5.0906,5.137,5.1718,5.1718,5.2492,5.3265,5.3807,5.4155,5.4658,5.5509,5.5586,5.5702,5.5973,5.6012,5.6012,5.6012,5.6012,5.6012,5.6012,5.6012,5.6012,5.6012,5.6012,5.6012,5.6012,5.6012,5.6321,3.0116,0.0,0.0,2.9922,2.9882,3.0154,3.127,3.1543,3.1514,3.1534,3.1685,3.1856,3.1895,3.2213,3.2644,3.3146,3.3608,3.4203,3.4971,3.4999,3.4908,3.473,3.4831,3.485,3.471,3.4588,3.4524,3.4473,3.4311,3.408,3.3887,3.3928,3.3965,3.3807,3.3807,3.3887,3.3979,3.4427,3.4983,3.5668,3.6912,3.8025,3.8921,3.936,3.9677,3.9974,4.0271,4.0866,4.1646,4.2166,4.3206,4.4506,4.5361,4.6178,4.6958,4.7516,4.7616,4.741,4.6881,4.666,4.6666,4.7148,4.7555,4.8196,4.9877,5.0469,5.0663,5.1064,5.1691,5.226,5.2569,5.3265,5.4155,5.5006,5.3884,5.2801,5.3382,5.2144,5.0906,5.0906,5.0906,5.0906,5.0906,5.0906,5.1022,5.1293,5.1834,5.2298,5.2608,5.3382,5.4155,5.4735,5.5045,5.5432,5.5935,5.6012,5.6012,5.6012,5.6012,5.6012,5.6012,5.6012,5.6012,5.6012,5.6012,5.6128,5.6437,5.6128,5.6167,5.6437,5.6437,5.7056,0.0,0.0,0.0,3.0817,3.0818,3.0781,3.0804,3.0794,3.0785,3.0793,3.1486,3.206,3.1955,3.3332,3.4447,3.4299,3.4263,3.4455,3.5021,3.5086,3.5034,3.4927,3.4908,3.4908,3.4908,3.4831,3.4809,3.4788,3.4561,3.4404,3.4404,3.425,3.4179,3.4179,3.4179,3.4216,3.4253,3.507,3.5925,3.6742,3.8302,3.9082,3.912,3.9974,3.99,3.9194,4.0085,4.094,4.1794,4.3355,4.4544,4.5435,4.6248,4.7066,4.7772,4.7772,4.8477,4.916,4.7342,4.7589,4.8552,4.7781,4.828,4.9413,5.0413,5.0846,5.1138,5.1989,5.226,5.2492,5.3343,5.4194,5.5045,5.578,5.4697,5.3498,5.3459,5.2105,5.0906,5.0906,5.0906,5.0906,5.0906,5.0945,5.1215,5.2066,5.2221,5.2569,5.342,5.431,5.4851,5.4851,5.5548,5.6012,5.6012,5.6012,5.6012,5.6012,5.6012,5.6012,5.6012,5.6051,5.6051,5.6051,5.6089,5.6515,5.7366,5.6476,5.6476,5.7327,5.7366,5.8333,3.0801,0.0,0.0,0.0,0.0,0.0,3.0781,3.0817,3.0808,3.0788,3.1484,3.2292,3.2878,3.3841,3.4743,3.5262,3.5206,3.511,3.5297,3.5184,3.5034,3.4927,3.5001,3.5019,3.4927,3.4982,3.4945,3.4809,3.4626,3.4495,3.4404,3.425,3.4179,3.4179,3.4179,3.4476,3.5107,3.5367,3.6185,3.7559,3.8005,3.8525,3.912,3.9342,3.9677,4.0123,4.1534,4.2575,4.3355,4.3838,4.5212,4.7066,4.7535,4.822,4.8964,4.9221,4.9473,4.9542,4.7973,4.8057,4.8754,4.8181,4.8606,4.9661,5.1288,5.1802,5.2028,5.2879,5.3575,5.4271,5.5084,5.5509,5.5586,5.5238,5.431,5.3343,5.2685,5.1679,5.0906,5.0906,5.0906,5.0906,5.0906,5.1409,5.1912,5.2144,5.3265,5.4155,5.4426,5.5161,5.5664,5.5664,5.5857,5.6012,5.6012,5.6089,5.6128,5.6128,5.6205,5.6205,5.6167,5.6708,5.7056,5.7074,5.7654,5.8118,5.8445,5.7538,5.7499,5.8351,5.9047,5.9662,0.0,0.0,0.0,3.0739,0.0,0.0,3.0778,3.0781,3.0818,3.0799,3.1767,3.281,3.3327,3.433,3.5293,3.5755,3.5688,3.5554,3.5432,3.5321,3.52,3.5069,3.5157,3.5119,3.5019,3.5034,3.5037,3.4831,3.473,3.4583,3.4427,3.425,3.4179,3.4179,3.455,3.4996,3.5479,3.6147,3.6965,3.7894,3.8228,3.8637,3.912,3.9491,4.0085,4.1006,4.2723,4.4162,4.5245,4.5752,4.6697,4.7991,4.8673,4.9191,4.9607,4.9822,4.9997,4.9924,4.864,4.8886,4.9625,4.8911,4.956,5.0769,5.1857,5.2453,5.2917,5.3807,5.4658,5.5393,5.5896,5.6012,5.5818,5.5006,5.4116,5.3265,5.2376,5.1525,5.0906,5.0906,5.1177,5.1447,5.1447,5.2182,5.2879,5.3227,5.4155,5.4929,5.5277,5.578,5.6089,5.6089,5.6128,5.6128,5.6128,5.6205,5.6388,5.6756,5.6809,5.7003,5.7313,5.7776,5.8041,5.808,5.8537,5.9017,5.9469,5.8523,5.8513,5.9347,6.0334,6.0793,0.0,0.0,0.0,3.0701,3.0732,0.0,3.0775,3.0778,3.0781,3.0806,3.2204,3.3406,3.3414,3.4774,3.5899,3.5894,3.584,3.5736,3.5546,3.5496,3.5443,3.533,3.5315,3.5285,3.5157,3.5157,3.5069,3.4945,3.4868,3.4706,3.445,3.4386,3.4351,3.4327,3.5182,3.5665,3.5776,3.7188,3.7931,3.8042,3.8748,3.9082,3.912,4.003,4.0923,4.1882,4.383,4.5594,4.7203,4.8339,4.8655,4.8485,4.9556,4.9948,4.9973,4.9997,5.0183,5.0297,4.9346,4.9817,5.0774,4.9847,5.0748,5.2221,5.2414,5.3033,5.3807,5.4697,5.547,5.6012,5.6012,5.6012,5.578,5.4851,5.4039,5.3227,5.226,5.1525,5.1061,5.1061,5.1679,5.2221,5.2337,5.3072,5.3923,5.4697,5.489,5.5238,5.5935,5.6128,5.6261,5.6333,5.6427,5.6466,5.6582,5.6588,5.6931,5.7712,5.7767,5.8141,5.8882,5.8997,5.9065,5.9047,5.9176,5.9616,6.0455,5.9607,5.959,6.0403,6.1239,6.1591,0.0,0.0,3.1488,3.0788,3.0686,0.0,3.0732,3.0752,3.0811,3.0781,3.2187,3.3397,3.3389,3.4791,3.5955,3.5919,3.5839,3.5733,3.5581,3.5519,3.5443,3.533,3.5402,3.5416,3.5285,3.5374,3.5345,3.5069,3.4889,3.471,3.4588,3.5049,3.528,3.5244,3.6036,3.6779,3.7411,3.7745,3.8228,3.8859,3.9008,3.9082,3.912,4.021,4.1515,4.3004,4.5004,4.6797,4.8377,4.9564,4.9877,4.9591,5.0099,5.0308,5.035,5.0624,5.0769,5.0687,4.9843,5.0146,5.0851,5.0681,5.1315,5.2453,5.3884,5.4426,5.4735,5.5548,5.5896,5.6012,5.6012,5.6012,5.5625,5.4116,5.3614,5.3072,5.1486,5.1641,5.2121,5.2121,5.216,5.2414,5.3204,5.4056,5.4713,5.4907,5.5565,5.6051,5.6205,5.6244,5.6552,5.7253,5.7352,5.7624,5.8325,5.845,5.8557,5.87,5.8825,5.8901,5.8979,5.9643,6.0029,6.0029,6.0783,6.1223,6.144,6.1194,6.1201,6.1401,6.1587,6.1697,3.2723,3.2443,3.2326,3.19,3.1887,0.0,0.0,3.1364,3.1406,3.1392,3.2457,3.3515,3.3981,3.5112,3.6005,3.5942,3.586,3.5794,3.5718,3.5626,3.5584,3.5522,3.5572,3.5714,3.6031,3.5726,3.5416,3.52,3.547,3.5515,3.5398,3.6001,3.6307,3.6199,3.6905,3.7564,3.8065,3.8476,3.8964,3.9464,3.9464,3.969,4.0165,4.1604,4.3151,4.4815,4.6786,4.835,4.9557,5.0317,5.0529,5.0406,5.0587,5.0661,5.0678,5.0819,5.0906,5.0828,5.0442,5.0867,5.1563,5.1563,5.2414,5.3652,5.4542,5.5084,5.547,5.5896,5.6012,5.6012,5.6012,5.5702,5.5084,5.3846,5.3227,5.2685,5.1873,5.2082,5.2685,5.3533,5.3635,5.3741,5.4204,5.5007,5.5605,5.5644,5.6382,5.6965,5.6965,5.7381,5.7815,5.8247,5.8367,5.8562,5.8992,5.9092,5.9278,5.9677,5.9748,5.9961,6.0312,6.0768,6.1002,6.1002,6.1465,6.1705,6.1712,6.1655,6.1654,6.1719,6.1719,6.1719,3.3506,3.3225,3.3186,3.3032,3.3064,3.2981,0.0,0.0,0.0,3.2257,3.299,3.3864,3.457,3.5429,3.5935,3.5774,3.5786,3.5761,3.5581,3.563,3.5704,3.5704,3.5704,3.5991,3.6755,3.6151,3.5765,3.5849,3.622,3.6451,3.6519,3.7103,3.7363,3.7263,3.7879,3.8378,3.8583,3.9223,3.9656,3.9797,3.9797,4.035,4.1396,4.3025,4.4782,4.6633,4.8409,4.9682,5.0527,5.0773,5.0897,5.0897,5.089,5.0906,5.0906,5.0906,5.0906,5.0945,5.1099,5.1602,5.226,5.2569,5.3768,5.5045,5.5045,5.547,5.6012,5.6012,5.6012,5.6012,5.6012,5.5393,5.4619,5.3807,5.3072,5.2546,5.2506,5.2763,5.3466,5.4996,5.545,5.5483,5.532,5.6006,5.6592,5.6581,5.7336,5.7921,5.7921,5.8576,5.9114,5.9269,5.9357,5.9492,5.9687,5.9687,5.9961,6.0625,6.0664,6.0976,6.168,6.1719,6.1719,6.1719,6.1719,6.1719,6.1719,6.1719,6.1719,6.1719,6.1719,6.1719,3.434,3.4071,3.3878,3.3108,3.296,3.3006,3.289,0.0,3.3075,3.3151,0.0,3.4515,3.4669,0.0,0.0,3.4986,3.5425,3.5611,3.4759,3.5278,3.5704,3.5704,3.5704,3.6013,3.6814,3.6742,3.6987,3.7796,3.7046,3.6903,3.7663,3.8232,3.8512,3.8512,3.9135,3.9566,3.9602,3.9738,3.9775,3.9797,3.9797,4.0637,4.2281,4.352,4.54,4.7759,4.9024,5.0036,5.0846,5.0874,5.089,5.089,5.089,5.0906,5.0906,5.0906,5.0906,5.1022,5.1796,5.2105,5.2453,5.4,5.5122,5.5857,5.5857,5.5935,5.6012,5.6012,5.6012,5.6012,5.6012,5.5393,5.4619,5.3807,5.3498,5.3281,5.2621,5.3766,5.5165,5.6141,5.6998,5.7323,5.6482,5.6991,5.7599,5.7684,5.8475,5.9022,5.9022,5.9098,5.9446,6.0149,6.0233,6.0586,6.1367,6.1406,6.1445,6.1562,6.1562,6.1601,6.1719,6.1719,6.1719,6.1719,6.1719,6.1719,6.1719,6.1719,6.1719,6.1719,6.1719,6.1719,3.5084,3.4995,3.4916,3.452,3.4453,3.4367,3.3836,3.3776,3.3868,3.3882,0.0,0.0,0.0,0.0,0.0,0.0,3.5696,3.574,3.5327,3.5514,3.5704,3.5704,3.5704,3.6013,3.6826,3.7796,3.8337,3.8206,3.826,3.8387,3.8676,3.9325,3.9623,3.9509,3.9709,3.9899,4.0024,4.0043,4.0101,4.0286,4.0781,4.1928,4.3691,4.518,4.6964,4.8947,4.9953,5.0565,5.0913,5.089,5.0906,5.0906,5.0906,5.0906,5.0906,5.0906,5.1215,5.1718,5.2066,5.284,5.3923,5.5122,5.5741,5.6012,5.6012,5.6012,5.6012,5.6012,5.6012,5.5896,5.5453,5.4718,5.4061,5.3812,5.3382,5.3352,5.4596,5.5499,5.6433,5.7776,5.8373,5.8523,5.8123,5.8343,5.8577,5.8631,5.9375,5.9883,5.9883,6.0351,6.0781,6.1133,6.1133,6.1289,6.168,6.1719,6.1719,6.1719,6.1719,6.1719,6.1719,6.1719,6.1719,6.1719,6.1719,6.1719,6.1719,6.1719,6.1719,6.1719,6.1719,6.1719,3.4891,3.4815,3.4863,3.4802,3.5007,3.5056,3.434,3.4417,3.4643,3.4649,3.472,0.0,0.0,0.0,3.5841,3.5655,0.0,3.5819,3.5515,3.5638,3.5742,3.5704,3.6091,3.6593,3.7212,3.8605,3.934,3.8953,3.9262,3.9547,3.97,4.0177,4.0367,4.0262,4.0119,4.0157,4.0317,4.0317,4.0537,4.0969,4.1846,4.3303,4.5248,4.6746,4.8346,4.9969,5.0619,5.0906,5.0906,5.0906,5.0906,5.0906,5.0906,5.1061,5.1254,5.1254,5.1641,5.226,5.2763,5.3884,5.5238,5.5818,5.6012,5.6012,5.6012,5.6012,5.6012,5.6012,5.5857,5.5569,5.5028,5.4281,5.3746,5.4138,5.3962,5.4259,5.6476,5.7148,5.7765,5.9241,5.9524,5.9609,5.9844,5.9687,5.9531,5.9531,6.0234,6.0742,6.0742,6.1328,6.1719,6.1719,6.1719,6.1719,6.1719,6.1719,6.1719,6.1719,6.1719,6.1719,6.1719,6.1719,6.1719,6.1719,6.1719,6.1719,6.1719,6.1719,6.1719,6.1719,6.1719,6.1719,3.3288,3.2968,3.2968,3.2968,3.3622,3.425,3.4199,3.4853,3.547,3.5527,3.5549,3.5621,3.5866,3.5888,3.5645,3.4876,3.5467,0.0,0.0,3.5366,3.5858,3.5704,3.7135,3.8141,3.8179,3.8953,3.9855,4.0655,3.9959,3.9881,4.0694,4.0588,4.0559,4.0668,4.0569,4.05,4.0588,4.0588,4.1012,4.1861,4.2748,4.4515,4.7017,4.7867,4.9196,5.0851,5.0906,5.0906,5.0906,5.0906,5.0906,5.0906,5.0906,5.1409,5.2144,5.2144,5.2182,5.2453,5.4116,5.5277,5.5973,5.6012,5.6012,5.6012,5.6012,5.6012,5.6012,5.6012,5.5492,5.4951,5.4912,5.4362,5.4012,5.4955,5.5775,5.6654,5.7647,5.8515,5.9375,6.0195,6.0351,6.0625,6.1484,6.0937,6.0351,6.0351,6.1094,6.164,6.164,6.168,6.1719,6.1719,6.1719,6.1719,6.1719,6.1719,6.1719,6.1719,6.1719,6.1719,6.1719,6.1719,6.1719,6.1719,6.1719,6.1719,6.1719,6.1719,6.1719,6.1719,6.1719,6.1719,3.3019,3.2952,3.3153,3.3647,3.4005,3.4426,3.4943,3.5276,3.552,3.5522,3.5534,3.5581,3.5749,3.5762,3.5738,3.5576,3.5819,3.5886,0.0,3.6176,3.6681,3.6566,3.751,3.8218,3.8218,3.9495,4.0462,4.0771,4.0539,4.05,4.0771,4.0746,4.0733,4.0759,4.0693,4.064,4.0668,4.1247,4.1942,4.2792,4.4288,4.6042,4.799,4.8841,4.9846,5.0906,5.0906,5.0906,5.0906,5.0906,5.0906,5.0983,5.1525,5.195,5.2182,5.2182,5.2917,5.4078,5.52,5.578,5.6012,5.6012,5.6012,5.6012,5.6012,5.6051,5.6012,5.5415,5.5531,5.5685,5.5221,5.5343,5.5825,5.6737,5.7211,5.7816,5.9256,5.9805,6.0234,6.1094,6.125,6.1367,6.164,6.1445,6.125,6.125,6.1523,6.1719,6.1719,6.1719,6.1719,6.1719,6.1719,6.1719,6.1719,6.1719,6.1719,6.1719,6.1719,6.1719,6.1719,6.1719,6.1719,6.1719,6.1719,6.1719,6.1719,6.1719,6.1719,6.1719,6.1719,6.1719,3.2107,3.2309,3.2767,3.3532,3.4224,3.4955,3.5751,3.6161,3.6406,3.6421,3.6433,3.6447,3.6634,3.6651,3.6703,3.6894,3.6912,3.6907,0.0,3.728,3.7598,3.7544,3.8218,3.8694,3.8644,3.9959,4.081,4.081,4.081,4.081,4.081,4.081,4.081,4.081,4.0746,4.0849,4.1158,4.2008,4.3013,4.4148,4.5955,4.7502,4.8894,4.9745,5.0403,5.0906,5.0906,5.0906,5.0906,5.0906,5.1099,5.1409,5.1989,5.2569,5.3111,5.3111,5.4,5.5316,5.5818,5.6012,5.6012,5.6012,5.6051,5.6089,5.6089,5.5935,5.5719,5.5458,5.563,5.5857,5.5685,5.634,5.7225,5.8159,5.8594,5.918,6.0547,6.0859,6.1015,6.1601,6.1719,6.1719,6.1719,6.1719,6.1719,6.1719,6.1719,6.1719,6.1719,6.1719,6.1719,6.1719,6.1719,6.1719,6.1719,6.1719,6.1719,6.1719,6.1719,6.1719,6.1719,6.1719,6.1719,6.1719,6.1719,6.1719,6.1719,6.1719,6.1719,6.1719,6.1719,6.1719]},{"header":{"parameterUnit":"m.s-1","parameterCategory":1,"la1":30.6,"la2":29.2853,"lo1":-89.7004,"lo2":-87.6739,"dy":0.0162,"dx":0.0183,"nx":112,"ny":82,"refTime":"2024-02-02T06:00:00:Z","depth":0,"parameterNumber":3,"parameterNumberName":"V-component_of_WINDS"},"data":[0.0,0.0,0.0,0.0,0.0,0.0,0.0,0.0,0.0,0.0,0.0,0.0,0.0,0.0,0.0,0.0,0.0,0.0,0.0,0.0,0.0,0.0,0.0,0.0,0.0,0.0,0.0,0.0,0.0,0.0,0.0,0.0,0.0,0.0,0.0,0.0,0.0,0.0,0.0,0.0,0.0,0.0,0.0,0.0,0.0,0.0,0.0,0.0,0.0,0.0,0.0,0.0,0.0,0.0,0.0,0.0,0.0,0.0,0.0,0.0,0.0,0.0,0.0,0.0,0.0,0.0,0.0,0.0,0.0,0.0,0.0,0.0,0.0,0.0,0.0,0.0,0.0,0.0,0.0,0.0,0.0,0.0,0.0,0.0,0.0,0.0,0.0,0.0,0.0,0.0,-0.9484,-0.9484,-0.9022,-0.8624,-0.8484,-0.7902,-0.7251,-0.6465,0.0,0.0,0.0,0.0,0.0,0.0,0.0,0.0,0.0,0.0,0.0,0.0,0.0,0.0,0.0,0.0,0.0,0.0,0.0,0.0,0.0,0.0,0.0,0.0,0.0,0.0,0.0,0.0,0.0,0.0,0.0,0.0,0.0,0.0,0.0,0.0,0.0,0.0,0.0,0.0,0.0,0.0,0.0,0.0,0.0,0.0,0.0,0.0,0.0,0.0,0.0,0.0,0.0,0.0,0.0,0.0,0.0,0.0,0.0,0.0,0.0,0.0,0.0,0.0,0.0,0.0,0.0,0.0,0.0,0.0,0.0,0.0,0.0,0.0,0.0,0.0,0.0,0.0,0.0,0.0,0.0,0.0,0.0,0.0,0.0,0.0,0.0,0.0,0.0,0.0,0.0,0.0,0.0,0.0,0.0,0.0,0.0,0.0,0.0,0.0,0.0,0.0,0.0,0.0,-0.9484,-0.9484,-0.942,-0.9087,-0.8549,-0.842,-0.7772,-0.6465,0.0,0.0,0.0,0.0,0.0,0.0,0.0,0.0,0.0,0.0,0.0,0.0,0.0,0.0,0.0,0.0,0.0,0.0,0.0,0.0,0.0,0.0,0.0,0.0,0.0,0.0,0.0,0.0,0.0,0.0,0.0,0.0,0.0,0.0,0.0,0.0,0.0,0.0,0.0,0.0,0.0,0.0,0.0,0.0,0.0,0.0,0.0,0.0,0.0,0.0,0.0,0.0,0.0,0.0,0.0,0.0,0.0,0.0,0.0,0.0,0.0,0.0,0.0,0.0,0.0,0.0,0.0,0.0,0.0,0.0,0.0,0.0,0.0,0.0,0.0,0.0,0.0,0.0,0.0,0.0,0.0,0.0,0.0,0.0,0.0,0.0,0.0,0.0,0.0,0.0,0.0,0.0,0.0,0.0,0.0,0.0,0.0,0.0,0.0,0.0,0.0,0.0,0.0,-0.9676,-0.9484,-0.9484,-0.9484,-0.9344,-0.9087,-0.9022,-0.8624,-0.7577,-0.7632,0.0,0.0,0.0,0.0,0.0,0.0,0.0,0.0,0.0,0.0,0.0,0.0,0.0,0.0,0.0,0.0,0.0,0.0,0.0,0.0,0.0,0.0,0.0,0.0,0.0,0.0,0.0,0.0,0.0,0.0,0.0,0.0,0.0,0.0,0.0,0.0,0.0,0.0,0.0,0.0,0.0,0.0,0.0,0.0,0.0,0.0,0.0,0.0,0.0,0.0,0.0,0.0,0.0,0.0,0.0,0.0,0.0,0.0,0.0,0.0,0.0,0.0,0.0,0.0,0.0,0.0,0.0,0.0,0.0,0.0,0.0,0.0,0.0,0.0,0.0,0.0,0.0,0.0,0.0,0.0,0.0,0.0,0.0,0.0,0.0,0.0,0.0,0.0,0.0,0.0,0.0,0.0,0.0,0.0,0.0,0.0,0.0,0.0,0.0,0.0,0.0,0.0,-0.9983,-0.9919,-0.974,-0.9676,-0.9676,-0.9548,-0.9548,-0.928,-0.8678,-0.8731,0.0,0.0,0.0,0.0,0.0,0.0,0.0,0.0,0.0,0.0,0.0,0.0,0.0,0.0,0.0,0.0,0.0,0.0,0.0,0.0,0.0,0.0,0.0,0.0,0.0,0.0,0.0,0.0,0.0,0.0,0.0,0.0,0.0,0.0,0.0,0.0,0.0,0.0,0.0,0.0,0.0,0.0,0.0,0.0,0.0,0.0,0.0,0.0,0.0,0.0,0.0,0.0,0.0,0.0,0.0,0.0,0.0,0.0,0.0,0.0,0.0,0.0,0.0,0.0,0.0,0.0,0.0,0.0,0.0,0.0,0.0,0.0,0.0,0.0,0.0,0.0,0.0,0.0,0.0,0.0,0.0,0.0,0.0,0.0,0.0,0.0,0.0,0.0,0.0,0.0,0.0,0.0,0.0,0.0,0.0,0.0,0.0,0.0,0.0,0.0,0.0,0.0,-1.1296,-1.131,-1.0364,-1.0238,-1.011,-0.9804,-0.9804,-0.9536,-0.8988,-0.8988,0.0,0.0,0.0,0.0,0.0,0.0,0.0,0.0,0.0,0.0,0.0,0.0,0.0,0.0,0.0,0.0,0.0,0.0,0.0,0.0,0.0,0.0,0.0,0.0,0.0,0.0,0.0,0.0,0.0,0.0,0.0,0.0,0.0,0.0,0.0,0.0,0.0,0.0,0.0,0.0,0.0,0.0,0.0,0.0,0.0,0.0,0.0,0.0,0.0,0.0,0.0,0.0,0.0,0.0,0.0,0.0,0.0,0.0,0.0,0.0,0.0,0.0,0.0,0.0,0.0,0.0,0.0,0.0,0.0,0.0,0.0,0.0,0.0,0.0,0.0,0.0,0.0,0.0,0.0,0.0,0.0,0.0,0.0,0.0,0.0,0.0,0.0,0.0,0.0,0.0,0.0,0.0,0.0,0.0,0.0,0.0,0.0,0.0,0.0,0.0,0.0,0.0,-1.1031,-1.1185,-1.0807,-1.0173,-0.9731,-0.9643,-0.9781,-0.9857,-0.9617,0.0,0.0,0.0,0.0,0.0,0.0,0.0,0.0,0.0,0.0,0.0,0.0,0.0,0.0,0.0,0.0,0.0,0.0,0.0,0.0,0.0,0.0,0.0,0.0,0.0,0.0,0.0,0.0,0.0,0.0,0.0,0.0,0.0,0.0,0.0,0.0,0.0,0.0,0.0,0.0,0.0,0.0,0.0,0.0,0.0,0.0,0.0,0.0,0.0,0.0,0.0,0.0,0.0,0.0,0.0,0.0,0.0,0.0,0.0,0.0,0.0,0.0,0.0,0.0,0.0,0.0,0.0,0.0,0.0,0.0,0.0,0.0,0.0,0.0,0.0,0.0,0.0,0.0,0.0,0.0,0.0,0.0,0.0,0.0,0.0,0.0,0.0,0.0,0.0,0.0,0.0,0.0,0.0,0.0,0.0,0.0,0.0,0.0,0.0,0.0,0.0,0.0,-1.1133,-1.1334,-1.1487,-1.1531,-1.0913,-1.0358,-1.003,-1.0367,-1.0657,-1.0795,0.0,0.0,0.0,0.0,0.0,0.0,0.0,0.0,0.0,0.0,0.0,0.0,0.0,0.0,0.0,0.0,0.0,0.0,0.0,0.0,0.0,0.0,0.0,0.0,0.0,0.0,0.0,0.0,0.0,0.0,0.0,0.0,0.0,0.0,0.0,0.0,0.0,0.0,0.0,0.0,0.0,0.0,0.0,0.0,0.0,0.0,0.0,0.0,0.0,0.0,0.0,0.0,0.0,0.0,0.0,0.0,0.0,0.0,0.0,0.0,0.0,0.0,0.0,0.0,0.0,0.0,0.0,0.0,0.0,0.0,0.0,0.0,0.0,0.0,0.0,0.0,0.0,0.0,0.0,0.0,0.0,0.0,0.0,0.0,0.0,0.0,0.0,0.0,0.0,0.0,0.0,0.0,0.0,0.0,0.0,0.0,0.0,0.0,0.0,0.0,0.0,0.0,-1.2603,-1.2631,-1.2647,-1.2594,-1.2599,-1.2166,-1.1085,-1.1655,-1.2182,0.0,0.0,0.0,0.0,0.0,0.0,0.0,0.0,0.0,0.0,0.0,0.0,0.0,0.0,0.0,0.0,0.0,0.0,0.0,0.0,0.0,0.0,0.0,0.0,0.0,0.0,0.0,0.0,0.0,0.0,0.0,0.0,0.0,0.0,0.0,0.0,0.0,0.0,0.0,0.0,0.0,0.0,0.0,0.0,0.0,0.0,0.0,0.0,0.0,0.0,0.0,0.0,0.0,0.0,0.0,0.0,0.0,0.0,0.0,0.0,0.0,0.0,0.0,0.0,0.0,0.0,0.0,0.0,0.0,0.0,0.0,0.0,0.0,0.0,0.0,0.0,0.0,0.0,0.0,0.0,0.0,0.0,0.0,0.0,0.0,0.0,0.0,0.0,0.0,0.0,0.0,0.0,0.0,0.0,0.0,0.0,0.0,0.0,0.0,0.0,0.0,0.0,0.0,-1.2605,-1.4191,-1.4569,-1.2771,-1.2592,-1.2489,-1.2174,-1.3117,-1.383,-1.3874,0.0,0.0,0.0,0.0,0.0,0.0,0.0,0.0,0.0,0.0,0.0,0.0,0.0,0.0,0.0,0.0,0.0,0.0,0.0,0.0,0.0,0.0,0.0,0.0,0.0,0.0,0.0,0.0,0.0,0.0,0.0,0.0,0.0,0.0,0.0,0.0,0.0,0.0,0.0,0.0,0.0,0.0,0.0,0.0,0.0,0.0,0.0,0.0,0.0,0.0,0.0,0.0,0.0,0.0,0.0,0.0,0.0,0.0,0.0,0.0,0.0,0.0,0.0,0.0,0.0,0.0,0.0,0.0,0.0,0.0,0.0,0.0,0.0,0.0,0.0,0.0,0.0,0.0,0.0,0.0,0.0,0.0,0.0,0.0,0.0,0.0,0.0,0.0,0.0,0.0,0.0,0.0,0.0,0.0,0.0,0.0,0.0,0.0,0.0,0.0,0.0,0.0,-1.4354,-1.5773,-1.6171,-1.4636,-1.448,-1.4458,-1.4477,-1.4477,-1.4514,-1.451,0.0,0.0,0.0,0.0,0.0,0.0,0.0,0.0,0.0,0.0,0.0,0.0,0.0,0.0,0.0,0.0,0.0,0.0,0.0,0.0,0.0,0.0,0.0,0.0,0.0,0.0,0.0,0.0,0.0,0.0,0.0,0.0,0.0,0.0,0.0,0.0,0.0,0.0,0.0,0.0,0.0,0.0,0.0,0.0,0.0,0.0,0.0,0.0,0.0,0.0,0.0,0.0,0.0,0.0,0.0,0.0,0.0,0.0,0.0,0.0,0.0,0.0,0.0,0.0,0.0,0.0,0.0,0.0,0.0,0.0,0.0,0.0,0.0,0.0,0.0,0.0,0.0,0.0,0.0,0.0,0.0,0.0,0.0,0.0,0.0,0.0,0.0,0.0,0.0,0.0,0.0,0.0,0.0,0.0,0.0,0.0,0.0,0.0,0.0,0.0,0.0,0.0,-1.6994,-1.7266,-1.7291,-1.732,-1.7275,-1.7281,-1.7297,-1.576,-1.4734,-1.4792,0.0,0.0,0.0,0.0,0.0,0.0,0.0,0.0,0.0,0.0,0.0,0.0,0.0,0.0,0.0,0.0,0.0,0.0,0.0,0.0,0.0,0.0,0.0,0.0,0.0,0.0,0.0,0.0,0.0,0.0,0.0,0.0,0.0,0.0,0.0,0.0,0.0,0.0,0.0,0.0,0.0,0.0,0.0,0.0,0.0,0.0,0.0,0.0,0.0,0.0,0.0,0.0,0.0,0.0,0.0,0.0,0.0,0.0,0.0,0.0,-2.1363,-2.1145,0.0,0.0,0.0,0.0,0.0,0.0,0.0,0.0,0.0,0.0,0.0,0.0,0.0,0.0,0.0,0.0,0.0,0.0,0.0,0.0,0.0,0.0,0.0,0.0,0.0,0.0,0.0,0.0,0.0,0.0,0.0,0.0,0.0,0.0,0.0,0.0,0.0,0.0,0.0,0.0,-1.705,-1.7288,-1.7313,-1.7288,-1.7331,-1.7318,-1.7291,-1.6899,-1.6707,-1.6712,-1.6717,0.0,0.0,0.0,0.0,0.0,0.0,0.0,0.0,0.0,0.0,0.0,0.0,0.0,0.0,0.0,0.0,0.0,0.0,0.0,0.0,0.0,0.0,0.0,0.0,0.0,0.0,0.0,0.0,0.0,0.0,0.0,0.0,0.0,0.0,0.0,0.0,0.0,0.0,0.0,0.0,0.0,0.0,0.0,0.0,0.0,0.0,0.0,0.0,0.0,0.0,0.0,0.0,0.0,0.0,0.0,0.0,0.0,0.0,0.0,-2.2966,-2.2369,0.0,0.0,0.0,0.0,0.0,0.0,0.0,0.0,0.0,0.0,0.0,0.0,0.0,0.0,0.0,0.0,0.0,0.0,0.0,0.0,0.0,0.0,0.0,0.0,0.0,0.0,0.0,0.0,0.0,0.0,0.0,0.0,0.0,0.0,0.0,0.0,0.0,0.0,0.0,0.0,-1.8821,-1.799,-1.7702,-1.8807,-1.7943,-1.7313,-1.7324,-1.7322,-1.7296,-1.7305,-1.7291,0.0,0.0,0.0,0.0,0.0,0.0,0.0,0.0,0.0,0.0,0.0,0.0,0.0,0.0,0.0,0.0,0.0,0.0,0.0,0.0,0.0,0.0,0.0,0.0,0.0,0.0,0.0,0.0,0.0,0.0,0.0,0.0,0.0,0.0,0.0,0.0,0.0,0.0,0.0,0.0,0.0,0.0,0.0,0.0,0.0,0.0,0.0,0.0,0.0,0.0,0.0,0.0,0.0,-2.557,-2.5822,-2.5971,-2.6318,-2.6454,-2.6386,-2.4618,-2.3746,-2.3618,-2.3281,0.0,0.0,0.0,0.0,0.0,0.0,0.0,0.0,0.0,0.0,0.0,0.0,0.0,0.0,0.0,0.0,0.0,0.0,0.0,0.0,0.0,0.0,-1.7824,-1.8814,-1.8247,-1.7649,-1.7943,0.0,0.0,0.0,0.0,0.0,0.0,0.0,0.0,0.0,0.0,0.0,-2.068,-1.9096,-1.8596,-2.0492,-1.9036,-1.7716,-1.7332,-1.7446,-1.7445,-1.7334,-1.7309,-1.6814,0.0,0.0,0.0,0.0,0.0,0.0,0.0,0.0,0.0,0.0,0.0,0.0,0.0,0.0,0.0,0.0,0.0,0.0,0.0,0.0,0.0,0.0,0.0,0.0,0.0,0.0,0.0,0.0,0.0,0.0,0.0,0.0,-2.1525,-2.1722,0.0,0.0,0.0,0.0,0.0,0.0,0.0,0.0,0.0,0.0,0.0,0.0,0.0,-2.6354,-2.6387,-2.6555,-2.672,-2.6819,-2.6689,-2.6656,-2.6689,-2.6721,-2.6721,-2.6721,-2.6455,0.0,-2.5533,-2.5163,0.0,0.0,0.0,0.0,0.0,0.0,0.0,0.0,0.0,0.0,0.0,0.0,0.0,0.0,0.0,0.0,0.0,0.0,0.0,0.0,0.0,0.0,-1.8821,-1.8946,-1.8887,-1.9152,-2.0526,-1.9772,-1.8762,-1.8754,-1.8792,-1.8447,0.0,0.0,0.0,0.0,0.0,0.0,-2.0733,-2.045,-2.0371,-2.0648,-2.0439,-1.9424,-1.7486,-1.7884,-1.7965,-1.7334,-1.73,-1.7166,-1.6821,-1.6786,0.0,0.0,0.0,0.0,0.0,0.0,0.0,0.0,0.0,0.0,0.0,0.0,0.0,0.0,0.0,0.0,0.0,0.0,0.0,0.0,0.0,0.0,0.0,0.0,0.0,0.0,0.0,0.0,0.0,-2.2878,-2.34,-2.3825,-2.4213,-2.4642,0.0,0.0,0.0,0.0,0.0,0.0,0.0,0.0,0.0,-2.7002,-2.7226,-2.7291,-2.7261,-2.7357,-2.7447,-2.7601,-2.7507,-2.7537,-2.7683,-2.7683,-2.7683,-2.7683,-2.7372,-2.723,-2.7115,-2.5984,-2.5306,-2.486,0.0,0.0,0.0,0.0,-2.4421,-2.4104,-2.4079,-2.3805,-2.3288,-2.2529,0.0,0.0,0.0,0.0,0.0,0.0,0.0,-2.037,-2.0321,-1.9686,-1.9233,-2.0118,-2.0369,-2.0539,-2.1255,-2.0854,-2.0067,-1.9204,-1.9708,-2.0089,-1.9349,-1.9196,0.0,0.0,0.0,-2.0705,-2.0679,-2.0705,-2.0706,-2.0707,-2.0295,-1.9676,-1.8778,-1.8394,-1.8084,-1.7788,-1.759,-1.7368,-1.7011,-1.7157,-1.6842,0.0,0.0,0.0,0.0,0.0,0.0,0.0,0.0,0.0,0.0,0.0,0.0,0.0,0.0,0.0,0.0,0.0,0.0,0.0,0.0,0.0,0.0,0.0,0.0,0.0,0.0,0.0,0.0,-2.4302,-2.4958,-2.5368,-2.5634,-2.6047,0.0,0.0,0.0,0.0,0.0,0.0,-2.7994,-2.8121,-2.8138,-2.8138,-2.8111,-2.8111,-2.8094,-2.83,-2.8488,-2.868,-2.8923,-2.9109,-2.9271,-2.9271,-2.9198,-2.8991,-2.8582,-2.8389,-2.8191,-2.6458,-2.5745,-2.5547,-2.3945,-2.4129,-2.5314,-2.5309,-2.5321,-2.5296,-2.507,-2.5009,-2.478,-2.3363,-2.2917,-2.274,-2.2011,0.0,0.0,0.0,0.0,-2.1773,-2.1779,-2.0882,-2.0298,-2.1496,-2.1787,-2.1773,-2.1773,-2.1801,-2.141,-2.0239,-2.0753,-2.1295,-2.0936,-2.091,0.0,-2.1242,-2.1083,-2.0825,-2.0772,-2.0799,-2.0825,-2.0775,-2.0245,-1.9838,-1.9786,-1.9004,-1.8417,-1.8201,-1.8007,-1.7733,-1.7401,-1.76,-1.739,-1.6649,0.0,0.0,0.0,0.0,0.0,0.0,0.0,0.0,0.0,0.0,0.0,0.0,0.0,0.0,0.0,0.0,0.0,0.0,0.0,0.0,0.0,0.0,0.0,0.0,0.0,0.0,0.0,0.0,0.0,-2.6016,-2.6554,0.0,0.0,0.0,0.0,-2.8246,-2.8795,-2.9104,-2.9023,-2.9279,-2.9399,-2.9339,-2.9319,-2.9359,-2.9418,-3.0148,-3.0542,-3.056,-3.1424,-3.1778,-3.1736,-3.1736,-3.1341,-3.0686,-3.0648,-2.9835,-2.8433,-2.6823,-2.6714,-2.7531,-2.7465,-2.6879,-2.6117,-2.6142,-2.6147,-2.6021,-2.5277,-2.5016,-2.476,-2.3386,-2.2904,-2.2904,-2.2844,-2.2815,0.0,0.0,-2.2818,-2.28,-2.2808,-2.2791,-2.2725,-2.2808,-2.2819,-2.279,-2.279,-2.2798,-2.2798,-2.2743,-2.1964,-2.1389,-2.1377,0.0,-2.1305,-2.1023,-2.1202,-2.1278,-2.0997,-2.1099,-2.1126,-2.0901,-2.0851,-2.0575,-1.9862,-1.9759,-1.9371,-1.8525,-1.8471,-1.8471,-1.8494,-1.8494,-1.862,-1.8748,-1.8121,0.0,0.0,0.0,0.0,0.0,0.0,0.0,0.0,0.0,0.0,0.0,0.0,0.0,0.0,0.0,0.0,0.0,0.0,0.0,0.0,0.0,0.0,0.0,0.0,0.0,0.0,0.0,0.0,-2.7674,-2.7888,0.0,-2.8686,-2.8883,-2.903,-2.9074,-2.9302,-2.9457,-2.94,-2.9551,-2.9869,-3.0396,-3.0434,-3.0696,-3.1298,-3.16,-3.1713,-3.1713,-3.2033,-3.2147,-3.209,-3.1657,-3.1317,-3.1016,-3.0036,-2.9344,-2.8805,-2.8069,-2.7968,-2.8287,-2.827,-2.7817,-2.7091,-2.6452,-2.6217,-2.6139,-2.5888,-2.5751,-2.5456,-2.3498,-2.2892,-2.295,-2.326,-2.3113,-2.2906,-2.2875,-2.311,-2.3346,-2.3343,-2.3256,-2.3169,-2.3136,-2.3033,-2.29,-2.29,-2.2913,-2.2879,-2.2901,-2.2113,-2.1397,-2.1424,-2.1959,-2.2241,-2.1951,-2.1883,-2.1787,-2.1678,-2.1291,-2.1023,-2.0901,-2.1319,-2.1402,-2.1017,-2.0665,-2.0428,-2.0318,-1.9625,-1.9308,-1.9639,-1.9808,-1.971,-1.9414,-1.877,-1.8261,0.0,0.0,0.0,0.0,0.0,0.0,0.0,0.0,0.0,0.0,0.0,0.0,0.0,0.0,0.0,0.0,0.0,0.0,0.0,0.0,0.0,0.0,0.0,0.0,0.0,-2.7432,-2.7931,-2.8489,-2.8636,-2.892,-2.9456,-2.9533,-2.9551,-2.957,-2.9973,-3.0208,-3.0179,-3.0576,-3.1058,-3.1635,-3.1635,-3.1933,-3.253,-3.2721,-3.2797,-3.2797,-3.3179,-3.3337,-3.3232,-3.2797,-3.2572,-3.25,-3.1522,-3.1071,-3.1043,-3.0561,-3.0356,-3.0225,-2.9076,-2.8357,-2.7906,-2.7247,-2.6757,-2.6353,-2.6239,-2.6171,-2.5986,-2.45,-2.4039,-2.3937,-2.369,-2.3396,-2.3155,-2.3141,-2.3363,-2.3614,-2.3614,-2.3511,-2.3481,-2.3789,-2.3393,-2.3038,-2.3216,-2.3052,-2.2913,-2.2913,-2.2179,-2.1572,-2.1588,-2.1999,-2.2376,-2.233,-2.2094,-2.2007,-2.2337,-2.1757,-2.1419,-2.1557,-2.1902,-2.2114,-2.2009,-2.1626,-2.1387,-2.13,-2.0653,-2.0274,-2.0181,-2.0437,-2.0509,-2.0264,-1.9582,-1.8908,-1.8323,0.0,0.0,0.0,0.0,0.0,0.0,0.0,0.0,0.0,0.0,0.0,0.0,0.0,0.0,0.0,0.0,0.0,0.0,0.0,0.0,0.0,0.0,0.0,-2.6823,-2.7841,-2.8622,-2.8297,-2.8892,-2.9456,-2.991,-2.977,-2.9681,-2.979,-3.0806,-3.1429,-3.1348,-3.2429,-3.2976,-3.2942,-3.2942,-3.2968,-3.3068,-3.3595,-3.3865,-3.3865,-3.4982,-3.5457,-3.5297,-3.5297,-3.5283,-3.5206,-3.5215,-3.5217,-3.5113,-3.4182,-3.3784,-3.3482,-3.0062,-2.8756,-2.877,-2.8774,-2.7841,-2.6657,-2.6308,-2.6217,-2.6184,-2.6184,-2.6186,-2.5903,-2.4284,-2.3794,-2.377,-2.3716,-2.3713,-2.3747,-2.3747,-2.3718,-2.3909,-2.4756,-2.407,-2.3423,-2.3902,-2.3451,-2.2933,-2.2962,-2.2413,-2.1971,-2.1896,-2.1705,-2.163,-2.2152,-2.1801,0.0,-2.2993,-2.2533,-2.232,-2.2751,-2.2697,-2.2643,-2.2644,-2.2616,-2.2237,-2.1294,-2.1518,-2.1237,-2.0229,-2.0485,-2.084,-2.1344,-2.0516,-1.9704,-1.8977,0.0,0.0,0.0,0.0,0.0,0.0,0.0,0.0,0.0,0.0,0.0,0.0,0.0,0.0,0.0,0.0,0.0,0.0,0.0,0.0,0.0,-2.8386,-2.8453,-2.8185,-2.8615,-2.9015,-2.9139,-2.9493,-3.0094,-3.0981,-3.1098,-3.1403,-3.2132,-3.2484,-3.2714,-3.2687,-3.2964,-3.3295,-3.3671,-3.371,-3.4086,-3.4863,-3.5017,-3.5133,-3.5172,-3.5481,-3.5611,-3.5534,-3.547,-3.5443,-3.5402,-3.5412,-3.5331,-3.5107,-3.4196,-3.379,-3.368,-3.2547,-3.2074,-3.2073,-3.2072,-2.966,-2.6323,-2.6237,-2.6222,-2.6205,-2.6205,-2.6205,-2.6494,-2.8119,-2.8632,-2.8265,-2.6587,-2.6502,-2.6945,-2.6945,-2.6522,-2.6061,-2.578,-2.5383,-2.4956,-2.4421,-2.4078,-2.4018,-2.4327,-2.3739,-2.2942,-2.2208,-2.2677,-2.3055,-2.2893,-2.3063,-2.3325,-2.3644,-2.3214,-2.2933,-2.2937,-2.3285,-2.3498,-2.3389,-2.3057,-2.2707,-2.2471,-2.1934,-2.1595,-2.1289,-2.1558,-2.1384,-2.0475,-2.0353,-1.9639,0.0,0.0,0.0,0.0,0.0,0.0,0.0,0.0,0.0,0.0,0.0,0.0,0.0,0.0,0.0,0.0,0.0,0.0,0.0,0.0,0.0,0.0,-2.8688,-2.8832,-2.9016,-2.9191,-2.9488,-3.0114,-3.0408,-3.0953,-3.198,-3.2202,-3.2529,-3.3045,-3.3407,-3.3576,-3.3541,-3.4075,-3.4482,-3.4691,-3.4681,-3.4972,-3.5643,-3.5643,-3.5643,-3.5681,-3.5681,-3.5697,-3.5662,-3.5598,-3.556,-3.5493,-3.5489,-3.542,-3.5268,-3.4242,-3.3792,-3.3792,0.0,0.0,0.0,0.0,-3.0695,-2.8272,-2.8055,-2.8006,-2.7982,-2.8015,-2.7997,-2.8319,-2.9989,-3.0061,-2.9279,-2.792,-2.7656,-2.7732,-2.7732,-2.7423,-2.6978,-2.6681,-2.6346,-2.6009,-2.5519,-2.5203,-2.5068,-2.5377,-2.4848,0.0,-2.3321,-2.3384,-2.3512,-2.3441,-2.3548,-2.3751,-2.4207,-2.3793,-2.3528,-2.3661,-2.401,-2.4113,-2.3973,-2.3515,0.0,0.0,0.0,-2.1963,-2.1925,-2.2111,0.0,0.0,0.0,-2.0205,-1.9131,-1.9015,0.0,0.0,-1.8062,-1.7502,0.0,0.0,0.0,0.0,0.0,0.0,0.0,0.0,0.0,0.0,0.0,0.0,0.0,0.0,0.0,0.0,-2.8971,-2.9132,-2.9514,-2.9645,-3.0094,-3.1025,-3.1259,-3.1811,-3.2932,-3.3072,-3.3184,-3.3425,-3.3963,-3.4286,-3.4224,-3.5365,0.0,0.0,0.0,-3.5688,-3.5736,-3.5715,-3.5704,-3.5704,-3.5704,-3.5709,-3.57,-3.5688,-3.5612,-3.5493,-3.5499,-3.5484,-3.5373,-3.4377,-3.3928,-3.3796,-3.378,-3.3603,-3.3248,-3.1934,-3.1449,-3.1359,-3.08,0.0,0.0,-3.0504,-3.0504,-3.0504,-3.0499,-2.957,-2.8453,-2.8453,-2.7994,-2.7498,-2.7498,-2.7455,-2.7498,-2.757,-2.7232,-2.6823,-2.6859,-2.651,-2.6183,-2.6153,-2.5768,-2.5324,-2.4896,-2.4012,-2.3466,-2.3854,-2.3626,-2.3767,-2.4688,-2.4368,-2.4144,-2.4567,-2.462,0.0,-2.4247,-2.3754,-2.328,-2.2859,-2.2494,-2.2273,-2.2197,-2.2197,-2.2197,-2.2073,-2.1336,-2.0815,-2.0528,-1.9912,-1.9485,-1.9277,-1.9262,-1.8906,0.0,0.0,0.0,0.0,0.0,0.0,0.0,0.0,0.0,0.0,0.0,0.0,0.0,0.0,0.0,-2.9299,-2.9475,-2.968,-3.0022,-3.0676,-3.1178,-3.1391,-3.0879,-3.14,-3.364,-3.3439,-3.3829,-3.5346,-3.5552,-3.563,-3.5623,-3.5864,-3.5962,-3.5943,-3.5922,-3.5937,-3.5951,-3.5766,-3.5693,-3.5709,-3.5709,0.0,-3.57,-3.5586,-3.5509,-3.5493,-3.5489,-3.5392,-3.5229,-3.5209,-3.4605,-3.3762,-3.3542,-3.3429,-3.3382,-3.306,-3.2967,-3.278,-3.1526,-3.1044,-3.0992,-3.063,-3.0482,-3.0516,-3.0501,-3.0278,0.0,-3.0063,-2.9947,-2.9831,-2.9831,-2.9704,-2.9447,-2.8902,-2.853,-2.8116,-2.7402,-2.7222,-2.7166,-2.7209,-2.6477,-2.5941,-2.6087,-2.5251,-2.4387,-2.4095,-2.4395,-2.4693,-2.4913,-2.4885,-2.477,-2.4765,-2.4677,-2.4447,-2.3956,-2.322,-2.2652,-2.2286,-2.2002,-2.1987,-2.2197,-2.2197,-2.1925,-2.1336,-2.0613,-2.0009,-1.9302,-1.9012,-1.899,-1.9297,-1.9272,-1.8908,0.0,0.0,0.0,0.0,0.0,0.0,0.0,0.0,0.0,0.0,0.0,-2.8412,-2.8603,0.0,-2.9191,-2.9551,-2.9681,-2.9801,-3.0136,-3.0508,-3.0983,-3.168,-3.199,-3.2842,-3.4697,-3.4701,-3.5002,-3.5913,-3.5991,-3.5991,-3.5991,-3.5991,-3.5988,-3.6017,-3.5985,-3.5948,-3.5857,-3.5757,-3.5687,-3.5724,-3.5635,-3.5611,-3.5599,-3.5547,-3.5507,-3.5489,-3.5407,-3.5293,-3.5162,-3.4791,-3.4237,-3.3579,-3.3449,-3.3393,-3.3399,-3.3418,-3.2924,-3.2193,-3.1448,-3.1138,-3.1019,-3.0716,-3.0642,-3.0601,-3.051,-3.051,-3.051,-3.051,-3.051,-3.0468,-3.0375,-3.029,-3.0064,-2.9416,-2.9189,-2.8918,-2.8379,-2.8094,-2.7933,-2.7781,-2.6971,-2.6249,-2.625,-2.549,-2.4806,-2.4557,-2.4829,-2.5018,-2.5018,-2.4962,-2.4848,-2.4734,-2.462,-2.4447,-2.3982,-2.3305,-2.2494,-2.169,-2.1839,-2.2169,-2.2582,-2.2582,-2.2575,-2.2427,-2.2101,-2.1487,-2.0615,-2.0498,-2.0224,-1.9922,-1.9922,-1.9771,0.0,0.0,0.0,0.0,0.0,0.0,0.0,-2.7241,-2.7636,-2.8037,-2.854,-2.8938,-2.906,-2.9254,-2.9475,-2.9697,-2.9787,-2.9883,-3.0138,-3.0113,-3.0508,-3.1622,-3.2625,-3.3894,-3.5533,-3.5857,-3.5994,-3.5994,-3.5994,-3.5991,-3.5991,-3.5991,-3.5996,-3.6003,-3.6001,-3.5914,-3.5775,-3.5688,-3.5658,-3.5675,-3.556,-3.5522,-3.5518,-3.5479,-3.5436,-3.5415,-3.5277,-3.519,-3.5124,-3.4141,-3.3597,-3.3386,-3.3385,-3.3415,-3.3393,-3.3406,-3.2549,-3.1428,-3.1359,-3.1199,-3.1032,-3.0864,-3.0783,-3.0708,-3.0551,-3.051,-3.0468,-3.0426,-3.0426,-3.0384,-3.0172,-3.0087,-2.9957,-2.9605,-2.938,-2.9243,-2.8967,-2.8559,-2.8222,-2.7879,-2.7041,-2.6283,-2.5932,-2.5412,-2.5018,-2.5018,-2.5018,-2.5018,-2.4962,-2.4905,-2.4734,-2.4563,-2.4421,-2.4184,-2.3697,-2.3255,-2.2587,-2.1597,-2.2044,-2.2615,-2.3111,-2.3135,-2.3328,-2.3761,-2.3494,-2.2914,-2.2034,-2.1833,-2.1333,-2.0449,-2.0605,-2.0644,-2.6096,-2.617,-2.6241,-2.6277,-2.6522,-2.6888,0.0,-2.7689,-2.8065,-2.8525,-2.8845,-2.906,-2.9312,-2.9551,-2.9801,-2.9946,-3.006,-3.015,-3.0194,-3.0271,-3.0482,-3.082,-3.073,-3.2038,-3.5594,-3.5994,-3.5996,-3.5996,-3.5994,-3.5991,-3.5991,-3.5991,-3.5994,-3.5994,-3.6001,-3.5976,-3.5969,-3.5679,-3.551,-3.552,-3.5507,-3.5518,-3.5484,-3.5315,-3.5224,-3.5254,-3.5217,-3.5172,-3.5094,-3.3953,-3.3434,-3.3393,-3.3415,-3.3393,-3.34,-3.3409,-3.2879,-3.2126,-3.1913,-3.1542,-3.1151,-3.0952,-3.0871,-3.0831,-3.0551,-3.051,-3.0468,-3.0258,-3.0215,-3.0172,-2.9913,-2.9738,-2.956,-2.9515,-2.9059,-2.8559,-2.8271,-2.7929,-2.7429,-2.6811,-2.6361,-2.5932,-2.5633,-2.5244,-2.5018,-2.5018,-2.5018,-2.4962,-2.4848,-2.4791,-2.465,-2.4363,-2.3787,-2.3069,-2.211,-2.2402,-2.2613,-2.2501,-2.2905,-2.3261,-2.3664,-2.3688,-2.3713,-2.3761,-2.2434,-2.1677,-2.1603,-2.0594,-2.0092,-2.0,-2.0801,-2.0937,-2.6345,-2.6521,-2.659,-2.6556,-2.6856,-2.7238,-2.7452,-2.7805,-2.8174,-2.8551,-2.8962,-2.9291,-2.9377,-2.9697,-3.0,-3.009,-3.0171,-3.024,-3.0316,-3.0287,-3.0394,-3.0683,-3.0626,-3.1187,-3.2826,-3.2985,-3.3807,-3.584,-3.5985,-3.6017,-3.6017,-3.6017,-3.6013,-3.6001,-3.5992,-3.6015,-3.6009,-3.5689,-3.5504,-3.5513,-3.5398,-3.533,-3.5308,-3.5223,-3.5196,-3.5169,-3.4946,-3.4835,-3.4772,-3.3771,-3.3386,-3.3386,-3.3393,-3.3393,-3.3364,-3.3096,-3.2601,-3.2056,-3.1877,-3.15,-3.1072,-3.0952,-3.0871,-3.0749,-3.0551,-3.0426,-3.0333,-3.0248,-3.0087,-2.9913,-2.9694,-2.938,-2.9106,-2.8935,-2.8415,-2.7879,-2.778,-2.7327,-2.6811,-2.6308,-2.596,-2.5605,-2.5244,-2.5075,-2.4962,-2.4905,-2.4905,-2.4708,-2.4279,-2.4654,-2.4879,-2.4587,-2.3929,-2.3176,-2.2361,-2.2636,-2.2842,-2.2685,-2.3001,-2.3479,-2.4194,-2.4218,-2.4362,-2.465,-2.4003,-2.3488,-2.2992,-2.2403,-2.1803,-2.1383,-2.155,-2.1523,-2.6415,-2.6623,-2.6791,-2.6758,-2.7147,-2.7542,-2.766,-2.7946,-2.8308,-2.8587,-2.9007,-2.9353,-2.9399,-2.9787,-3.0068,-3.0171,-3.0209,-3.0237,-3.0318,-3.1046,-3.1703,-3.2064,-3.1328,-3.0775,-3.0778,-3.0785,-3.2232,-3.575,-3.6005,-3.5997,-3.5958,-3.5958,-3.5943,-3.5988,-3.5972,-3.5956,-3.5958,-3.5599,-3.5418,-3.5415,-3.527,-3.52,-3.519,-3.5107,-3.502,-3.5,-3.448,-3.4278,-3.424,-3.354,-3.3304,-3.3268,-3.3274,-3.3214,-3.3086,-3.2631,-3.226,-3.1917,-3.1699,-3.1317,-3.0952,-3.0871,-3.079,-3.0634,-3.0468,-3.0333,-3.0162,-3.0044,-2.987,-2.9694,-2.9425,-2.9152,-2.8873,-2.8463,-2.7898,-2.7399,-2.7144,-2.6654,-2.615,-2.5769,-2.555,-2.5244,-2.5075,-2.4962,-2.4959,-2.5007,-2.4776,-2.4426,-2.3927,-2.4381,-2.4557,-2.4149,-2.3766,-2.3255,-2.2593,-2.2845,-2.3052,-2.2959,-2.3306,-2.3814,-2.4515,-2.4677,-2.4987,-2.5516,-2.5302,-2.4989,-2.4545,-2.3853,-2.3197,-2.2587,-2.2247,-2.2051,-2.6203,-2.6452,-2.6725,-2.6889,-2.7391,-2.7926,-2.8029,-2.8334,-2.8612,-2.8687,-2.8938,-2.9212,-2.9438,-2.9715,-2.9953,-3.0157,-3.0204,-3.0219,-3.019,-3.3018,-3.5188,-3.5599,-3.2701,-3.0707,-3.0697,-3.0779,-3.2265,-3.5749,-3.6011,-3.5928,-3.5811,-3.5811,-3.5872,-3.6013,-3.5857,-3.5823,-3.5816,-3.5418,-3.5213,-3.5216,-3.5212,-3.5183,-3.5169,-3.4794,-3.462,-3.4555,-3.3777,-3.3438,-3.3415,-3.3138,-3.3008,-3.3014,-3.2961,-3.2737,-3.2403,-3.2056,-3.1986,-3.2022,-3.1585,-3.1201,-3.0871,-3.0749,-3.0708,-3.0667,-3.0333,-3.0205,-3.0119,-2.9649,-2.9515,-2.9425,-2.9183,-2.9137,-2.892,-2.8271,-2.783,-2.7246,-2.6279,-2.577,-2.5439,-2.5131,-2.5018,-2.5018,-2.5018,-2.4905,-2.498,-2.5486,-2.4788,-2.4115,-2.409,-2.3806,-2.3423,-2.2707,-2.3029,-2.3044,-2.2374,-2.2769,-2.318,-2.3548,-2.3936,-2.4371,-2.4754,-2.5087,-2.554,-2.6069,-2.5312,-2.5171,-2.5624,-2.3982,-2.3202,-2.3122,-2.2705,-2.25,-2.6486,-2.6624,-2.6858,-2.7213,-2.7636,-2.7982,-2.8057,-2.8386,-2.8662,-2.8637,-2.8855,-2.9191,-2.9379,-2.9662,-2.9905,-3.0098,-3.0175,-3.0129,-3.0013,-3.2981,-3.5254,-3.5405,-3.2605,-3.0714,-3.072,-3.0724,-3.2143,-3.5616,-3.5872,-3.584,-3.5779,-3.5801,-3.5825,-3.5875,-3.5549,-3.5379,-3.54,-3.5292,-3.5216,-3.5189,-3.4925,-3.4813,-3.4785,-3.4658,-3.4067,-3.3154,-3.287,-3.3433,-3.4576,-3.4501,-3.463,-3.4858,-3.4825,-3.4445,-3.3846,-3.3477,-3.3175,-3.2774,-3.1501,-3.0918,-3.079,-3.0708,-3.0841,-3.098,-3.0893,-3.0985,-3.1098,-3.0957,-3.0768,-3.0592,-3.0431,-2.9565,-2.8697,-2.8312,-2.7156,-2.6155,-2.6218,-2.599,-2.584,-2.6131,-2.6212,-2.6153,-2.6007,-2.5948,-2.5895,-2.5792,-2.4746,-2.4067,-2.4237,-2.3374,-2.2931,-2.3509,-2.3284,-2.2981,-2.2761,-2.3198,-2.3633,-2.4011,-2.4778,-2.5338,-2.5789,-2.616,-2.6478,-2.6647,-2.6348,-2.6344,-2.6458,-2.5678,-2.496,-2.4395,-2.3969,-2.3513,-2.6452,-2.6624,-2.6891,-2.7338,-2.773,-2.801,-2.8228,-2.8474,-2.8662,-2.8612,-2.8797,-2.9038,-2.9299,-2.9533,-2.9753,-3.0083,-3.0121,-3.0035,-2.9825,-3.2797,-3.5005,-3.4993,-3.2234,-3.0444,-3.064,-3.0643,-3.1591,-3.3796,-3.5088,-3.5775,-3.5813,-3.567,-3.5534,-3.5383,-3.5105,-3.5055,-3.5207,-3.5069,-3.4999,-3.4982,-3.4713,-3.4583,-3.4582,-3.4315,-3.413,-3.4016,-3.3441,-3.4062,-3.5411,-3.518,-3.5223,-3.5473,-3.5297,-3.4828,-3.4168,-3.3733,-3.328,-3.2727,-3.1732,-3.1347,-3.1262,-3.1143,-3.1254,-3.1421,-3.1375,-3.1452,-3.1598,-3.1469,-3.1223,-3.0892,-3.0709,-2.9754,-2.874,-2.8228,-2.7199,-2.6327,-2.6483,-2.6331,-2.6348,-2.6607,-2.6688,-2.6627,-2.6478,-2.633,-2.5935,-2.5043,-2.4406,-2.4089,-2.4306,-2.3244,-2.2871,-2.3599,-2.3431,-2.3263,-2.3263,-2.3722,-2.4084,-2.4393,-2.507,-2.5615,-2.6077,-2.6458,-2.6856,-2.72,-2.7224,-2.732,-2.7488,-2.6939,-2.6197,-2.5278,-2.4767,-2.3993,-2.6203,-2.6417,-2.6791,-2.7303,-2.7666,-2.7982,-2.851,-2.8587,-2.8587,-2.8587,-2.8662,-2.8821,-2.9191,-2.9353,-2.955,-3.0065,-3.0011,-2.9863,-2.9729,-3.2391,-3.4413,-3.4563,-3.1684,-2.9931,-3.0521,-3.0583,-3.0601,-3.0627,-3.3766,-3.57,-3.5753,-3.5388,-3.5009,-3.4615,-3.4615,-3.4791,-3.5173,-3.4813,-3.4602,-3.4609,-3.4577,-3.455,-3.446,-3.385,-3.4861,-3.6953,-3.5393,-3.5146,-3.5757,-3.519,-3.4942,-3.4977,-3.4492,-3.3905,-3.3372,-3.3028,-3.2492,-3.206,-3.2294,-3.2321,-3.221,-3.1978,-3.1916,-3.1901,-3.1726,-3.1662,-3.1645,-3.1318,-3.0935,-3.0495,-3.0121,-2.9696,-2.9127,-2.8082,-2.7822,-2.7589,-2.6958,-2.6803,-2.6742,-2.6559,-2.6497,-2.6436,-2.625,-2.5936,-2.5142,-2.3629,-2.3807,-2.4082,-2.4082,-2.3446,-2.3045,-2.3067,-2.3504,-2.3766,-2.3766,-2.4224,-2.453,-2.453,-2.4903,-2.5295,-2.5707,-2.6147,-2.6765,-2.7675,-2.7753,-2.8017,-2.8522,-2.7592,-2.6753,-2.5819,-2.4914,-2.3993,-2.6241,-2.6277,-2.6521,-2.7269,-2.7482,-2.7725,-2.8458,-2.8587,-2.8587,-2.8587,-2.8612,-2.87,-2.9016,-2.9191,-2.9414,-2.9626,-2.9793,-2.983,-2.9739,-3.0414,-3.1863,-3.4301,-3.156,-2.9708,-3.0376,-3.0441,-3.0233,-2.9794,-3.3446,-3.5469,-3.4912,-3.4791,-3.4699,-3.4579,-3.462,-3.4655,-3.4739,-3.4642,-3.4607,-3.4612,-3.4389,-3.3834,-3.3051,-3.5133,-3.6723,-3.7751,-3.599,-3.547,-3.5786,-3.5565,-3.5843,-3.6256,-3.5697,-3.5197,-3.4802,-3.43,-3.3907,-3.3501,-3.3401,-3.2741,-3.1978,-3.1931,-3.2128,-3.2399,-3.2382,-3.2514,-3.2615,-3.2044,-3.1719,-3.1389,-3.0683,-2.9755,-2.8971,-2.8559,-2.7774,-2.71,-2.7228,-2.7274,-2.713,-2.6883,-2.6206,-2.5735,-2.5735,-2.5033,-2.4565,-2.4476,-2.4116,-2.3829,-2.3829,-2.3601,-2.3678,-2.4071,-2.4224,-2.429,-2.429,-2.4727,-2.4989,-2.4989,-2.5724,-2.6147,-2.6332,-2.7059,-2.7631,-2.7853,-2.8148,-2.8378,-2.8522,-2.7592,-2.6753,-2.5819,-2.4914,-2.4176,-2.6099,-2.617,-2.6417,-2.7017,-2.7303,-2.7517,-2.8128,-2.8406,-2.851,-2.851,-2.8562,-2.8687,-2.8915,-2.9052,-2.9206,-2.9528,-2.9701,-2.9795,-2.97,-2.9603,-3.0258,-3.2081,-3.0602,-2.9533,-2.9927,-2.9848,-2.9677,-2.9439,-3.299,-3.4996,-3.4453,-3.4408,-3.4417,-3.4442,-3.4427,-3.4473,-3.4596,-3.446,-3.4427,-3.4412,-3.3733,-3.3762,-3.4451,-3.6013,-3.6998,-3.7466,-3.6399,-3.6038,-3.6182,-3.6177,-3.6226,-3.6367,-3.5864,-3.5374,-3.4816,-3.4382,-3.4018,-3.3745,-3.3571,-3.3029,-3.246,-3.251,-3.2615,-3.2812,-3.2812,-3.2698,-3.2492,-3.2099,-3.1649,-3.1072,-3.045,-2.9647,-2.8904,-2.8595,-2.8001,-2.74,-2.7208,-2.7196,-2.7013,-2.6382,-2.5812,-2.5348,-2.5278,-2.4818,-2.4488,-2.4732,-2.436,-2.4137,-2.4334,-2.4181,-2.4181,-2.4465,-2.4661,-2.4792,-2.4792,-2.5229,-2.5491,-2.5491,-2.5981,-2.6279,-2.6528,-2.7044,-2.7371,-2.7615,-2.8042,-2.8283,-2.8283,-2.751,-2.6783,-2.5871,-2.5123,-2.4432,-2.5844,-2.6063,-2.6314,-2.6657,-2.6987,-2.7334,-2.7636,-2.8017,-2.8291,-2.8183,-2.8252,-2.8431,-2.8494,-2.8529,-2.8741,-2.9423,-2.9651,-2.9692,-2.9662,-2.9488,-2.9407,-2.9386,-2.9377,-2.9342,-2.9339,-2.9153,-2.9093,-2.9344,-3.2538,-3.4431,-3.4196,-3.4188,-3.4186,-3.42,-3.42,-3.4327,-3.4544,-3.4186,-3.3936,-3.396,-3.2905,-3.3979,-3.6892,-3.6506,-3.6494,-3.6759,-3.6661,-3.665,-3.6684,-3.6602,-3.6284,-3.582,-3.5419,-3.4816,-3.4136,-3.3745,-3.3435,-3.3256,-3.3256,-3.315,-3.3096,-3.3203,-3.315,-3.2935,-3.2935,-3.2382,-3.1705,-3.1649,-3.0955,-3.0086,-2.9685,-2.931,-2.883,-2.8222,-2.8091,-2.7868,-2.6909,-2.6637,-2.6296,-2.5438,-2.5182,-2.4966,-2.4768,-2.4831,-2.483,-2.4667,-2.4574,-2.4749,-2.5207,-2.4858,-2.4596,-2.4661,-2.5033,-2.5273,-2.5273,-2.5666,-2.5906,-2.5906,-2.5906,-2.6052,-2.6445,-2.6445,-2.6693,-2.7103,-2.7534,-2.7824,-2.7731,-2.7218,-2.659,-2.5934,-2.5233,-2.4606,-2.5659,-2.5807,-2.6026,-2.6245,-2.659,-2.6954,-2.7172,-2.7607,-2.7727,-2.7055,-2.7103,-2.7118,-2.6523,-2.6525,-2.7063,-2.8537,-2.9302,-2.9646,-2.9465,-2.9423,-2.9397,-2.9391,-2.9206,-2.9074,-2.9045,-2.9015,-2.9023,-2.9075,-3.2066,-3.4037,-3.4203,-3.4179,-3.4227,-3.4218,-3.4191,-3.4229,-3.4295,-3.3241,-3.2696,-3.2714,-3.2508,-3.3811,-3.645,-3.6549,-3.6606,-3.662,-3.6661,-3.669,-3.6643,-3.6114,-3.5786,-3.5654,-3.4673,-3.4218,-3.405,-3.3466,-3.315,-3.3096,-3.302,-3.2966,-3.2966,-3.3096,-3.2687,-3.213,-3.213,-3.1534,-3.0778,-3.0329,-2.9903,-2.9442,-2.8712,-2.8481,-2.8222,-2.7338,-2.7136,-2.6934,-2.5951,-2.5087,-2.4541,-2.4397,-2.4181,-2.3993,-2.393,-2.4305,-2.4667,-2.507,-2.5054,-2.5229,-2.571,-2.536,-2.5207,-2.5622,-2.5732,-2.5775,-2.5775,-2.5863,-2.5906,-2.5906,-2.5906,-2.5906,-2.5968,-2.6279,-2.6528,-2.661,-2.7103,-2.7227,-2.6941,-2.6174,-2.5539,-2.5189,-2.4316,-2.4085,-2.5432,-2.5584,-2.577,-2.5848,-2.6137,-2.6319,-2.6017,-2.6433,-2.665,-2.5911,-2.6109,-2.6239,-2.5857,-2.5886,-2.6333,-2.7497,-2.8654,-2.9304,-2.9212,-2.9191,-2.92,-2.9193,-2.9075,-2.8993,-2.8984,-2.8998,-2.9002,-2.9004,-3.1863,-3.3709,-3.3993,-3.3666,-3.3616,-3.3963,-3.3328,-3.2955,-3.293,-3.2371,-3.2464,-3.3282,-3.4055,-3.5142,-3.6466,-3.6481,-3.6498,-3.6568,-3.6485,-3.636,-3.6105,-3.5688,-3.5203,-3.4655,-3.4086,-3.3662,-3.3466,-3.3096,-3.302,-3.302,-3.2912,-3.2609,-3.2302,-3.2327,-3.2104,-3.1792,-3.1792,-3.1013,-2.9997,-2.9718,-2.9345,-2.8931,-2.8417,-2.7999,-2.7604,-2.6934,-2.6089,-2.5394,-2.5253,-2.4522,-2.3944,-2.4234,-2.4172,-2.4203,-2.4443,-2.4683,-2.5011,-2.5491,-2.5557,-2.5561,-2.5443,-2.5521,-2.5644,-2.5884,-2.5906,-2.5906,-2.5906,-2.5906,-2.5906,-2.5906,-2.5906,-2.5906,-2.5906,-2.6293,-2.651,-2.651,-2.6816,-2.6951,-2.6824,-2.568,-2.5118,-2.5079,-2.439,-2.4145,-2.5162,-2.5355,-2.5546,-2.547,-2.5566,-2.5527,-2.49,-2.5178,-2.5377,-2.4746,-2.5003,-2.5287,-2.5146,-2.5136,-2.5358,-2.5948,-2.7344,-2.8516,-2.892,-2.9008,-2.9016,-2.9007,-2.8998,-2.8989,-2.8892,-2.8967,-2.8991,-2.8913,-3.1601,-3.3332,-3.3576,-3.292,-3.2821,-3.3327,-3.2348,-3.1824,-3.1775,-3.1775,-3.2582,-3.4115,-3.537,-3.6098,-3.6331,-3.6019,-3.5959,-3.6071,-3.595,-3.5688,-3.5328,-3.5111,-3.4544,-3.3732,-3.3527,-3.3193,-3.2912,-3.2827,-3.2827,-3.2827,-3.2664,-3.2191,-3.1622,-3.1507,-3.1334,-3.1246,-3.1246,-3.03,-2.9254,-2.9254,-2.8867,-2.8406,-2.8186,-2.7654,-2.7139,-2.6577,-2.5325,-2.4272,-2.4703,-2.4336,-2.4006,-2.4421,-2.4574,-2.4668,-2.5017,-2.5005,-2.5117,-2.5673,-2.5464,-2.5211,-2.485,-2.5126,-2.5295,-2.5295,-2.5549,-2.5738,-2.5738,-2.5549,-2.5464,-2.5464,-2.555,-2.5615,-2.5615,-2.598,-2.6237,-2.6237,-2.6381,-2.6415,-2.634,-2.5361,-2.4933,-2.4966,-2.4526,-2.4328,-2.4878,-2.5084,-2.5278,-2.5084,-2.4842,-2.4547,-2.4337,-2.4208,-2.3947,-2.3459,-2.3619,-2.3667,-2.325,-2.3162,-2.3193,-2.3247,-2.5016,-2.6971,-2.8765,-2.8998,-2.8991,-2.9002,-2.8991,-2.8907,-2.864,-2.8846,-2.8897,-2.8663,-3.1128,-3.2746,-3.2877,-3.2281,-3.1895,-3.1983,-3.1845,-3.1777,-3.1804,-3.1804,-3.2565,-3.4081,-3.4672,-3.5113,-3.5396,-3.4751,-3.4584,-3.4783,-3.4783,-3.4688,-3.4463,-3.3971,-3.37,-3.3598,-3.3118,-3.2935,-3.2912,-3.2718,-3.2633,-3.2523,-3.1823,-3.1595,-3.1422,-3.0807,-3.0179,-2.969,-2.969,-2.9093,-2.8417,-2.8417,-2.8314,-2.8053,-2.7575,-2.7424,-2.7126,-2.5948,-2.5092,-2.4513,-2.4557,-2.45,-2.4443,-2.4486,-2.4653,-2.4772,-2.4816,-2.4325,-2.4276,-2.5105,-2.4145,-2.3627,-2.4402,-2.3887,-2.3367,-2.3367,-2.4337,-2.502,-2.502,-2.4423,-2.3973,-2.3973,-2.4378,-2.4513,-2.4513,-2.4937,-2.5159,-2.5159,-2.5199,-2.5053,-2.4811,-2.4716,-2.4564,-2.4295,-2.4196,-2.4214,-2.4021,-2.4492,-2.4846,-2.4806,-2.4351,-2.3834,-2.3348,-2.3042,-2.2671,-2.2018,-2.2341,-2.2677,-2.2432,-2.2561,-2.2998,-2.3854,-2.4257,-2.5526,-2.8578,-2.8992,-2.893,-2.8773,-2.876,-2.8735,-2.8626,-2.916,-2.9848,-3.0521,-3.1282,-3.1915,-3.2262,-3.219,-3.1949,-3.1603,-3.1634,-3.1662,-3.1579,-3.1579,-3.2178,-3.3397,-3.3584,-3.403,-3.4731,-3.446,-3.4397,-3.4496,-3.4496,-3.4301,-3.3903,-3.3598,-3.3287,-3.2926,-3.2272,-3.2302,-3.2523,-3.1652,-3.1595,-3.1823,-3.1131,-3.0891,-3.0783,-3.0381,-3.0062,-2.9882,-2.9859,-2.9388,-2.8905,-2.9147,-2.8818,-2.8291,-2.7931,-2.7115,-2.6099,-2.5182,-2.4724,-2.4574,-2.4836,-2.4821,-2.4805,-2.5109,-2.5139,-2.4829,-2.4303,-2.3937,-2.3694,-2.3501,-2.3066,-2.2629,-2.2561,-2.2648,-2.2541,-2.2031,-2.3086,-2.38,-2.38,-2.4042,-2.4115,-2.4115,-2.4536,-2.4776,-2.4776,-2.5197,-2.5438,-2.5438,-2.5228,-2.5158,-2.5044,-2.4579,-2.4282,-2.4152,-2.4152,-2.4152,-2.3271,-2.3763,-2.4245,-2.4533,-2.3996,-2.3305,-2.2954,-2.2591,-2.2202,-2.1693,-2.2145,-2.2601,-2.2635,-2.2762,-2.3131,-2.3919,-2.3545,-2.4506,-2.8355,-2.8897,-2.8622,-2.7951,-2.7897,-2.8147,-2.8829,-2.9751,-3.0642,-3.1567,-3.1426,-3.131,-3.1473,-3.1731,-3.1737,-3.1491,-3.1551,-3.1466,-3.124,-3.1201,-3.1712,-3.2685,-3.2552,-3.3083,-3.417,-3.4003,-3.3903,-3.3853,-3.3853,-3.3649,-3.3235,-3.313,-3.2788,-3.2247,-3.1709,-3.1652,-3.1736,-3.0807,-3.0807,-3.1161,-3.0592,-3.0347,-3.0294,-3.0069,-2.9821,-2.9661,-2.978,-2.9388,-2.8976,-2.9258,-2.8656,-2.7804,-2.7656,-2.6665,-2.5577,-2.5062,-2.4902,-2.4827,-2.4884,-2.47,-2.4535,-2.4596,-2.4402,-2.4059,-2.3347,-2.2999,-2.2648,-2.2277,-2.1836,-2.148,-2.1248,-2.1409,-2.1445,-2.0958,-2.168,-2.2396,-2.2928,-2.3422,-2.3764,-2.3965,-2.4355,-2.459,-2.459,-2.5019,-2.5234,-2.5234,-2.5063,-2.5001,-2.5001,-2.443,-2.4152,-2.4152,-2.4152,-2.4152,-2.2776,-2.3059,-2.345,-2.4369,-2.3723,-2.3,-2.3468,-2.3086,-2.266,-2.2961,-2.3315,-2.3687,-2.4046,-2.3755,-2.3283,-2.2624,-2.2528,-2.3957,-2.8031,-2.8599,-2.8029,-2.6398,-2.6208,-2.713,-2.9362,-3.056,-3.1139,-3.1028,-3.1219,-3.1151,-3.0559,-3.0723,-3.1038,-3.1462,-3.15,-3.1308,-3.0804,-3.0804,-3.1299,-3.2204,-3.1757,-3.2237,-3.3598,-3.3118,-3.2827,-3.2633,-3.2633,-3.2523,-3.2382,-3.2382,-3.2048,-3.148,-3.148,-3.1131,-3.051,-3.051,-3.051,-3.0476,-3.0207,-3.0081,-3.0062,-2.9873,-2.9196,-2.8558,-2.8971,-2.867,-2.8214,-2.8337,-2.7351,-2.6302,-2.6302,-2.6147,-2.5884,-2.5884,-2.5717,-2.5274,-2.4296,-2.3953,-2.3521,-2.2629,-2.2189,-2.2031,-2.2031,-2.1051,-2.0619,-2.1606,-2.0529,-2.0002,-2.0907,-2.0184,-1.9787,-2.0058,-2.0091,-2.0823,-2.2555,-2.2387,-2.2339,-2.2848,-2.3327,-2.3547,-2.3547,-2.3932,-2.4251,-2.4251,-2.4251,-2.4251,-2.4251,-2.4152,-2.4152,-2.4152,-2.4152,-2.4152,-2.1445,-2.2448,-2.3406,-2.3709,-2.3394,-2.3071,-2.3231,-2.2617,-2.2046,-2.2061,-2.248,-2.3056,-2.3589,-2.3969,-2.3778,-2.2564,-2.2377,-2.2751,-2.3779,-2.568,-2.6775,-2.6258,-2.708,-2.8318,-2.9868,-3.0345,-3.0455,-3.0401,-3.0534,-3.0435,-2.9892,-2.9935,-3.0064,-3.0309,-3.036,-3.0318,-3.014,-3.014,-3.0563,-3.1438,-3.1275,-3.1785,-3.2788,-3.2633,-3.2523,-3.2468,-3.2468,-3.2216,-3.1766,-3.1652,-3.1218,-3.054,-2.9997,-2.9936,-3.0086,-2.9184,-2.9093,-2.9463,-2.9356,-2.9578,-2.9805,-2.947,-2.9372,-2.9403,-2.8815,-2.8341,-2.7898,-2.7591,-2.7275,-2.677,-2.6222,-2.5859,-2.5549,-2.485,-2.4488,-2.4145,-2.3153,-2.2717,-2.2473,-2.2208,-2.1943,-2.1606,-2.0962,-2.0512,-2.0167,-1.982,-1.9363,-1.9277,-1.9816,-1.9662,-1.9604,-1.9942,-2.0216,-2.054,-2.1234,-2.2057,-2.2479,-2.2188,-2.334,-2.3754,-2.3341,-2.3881,-2.4152,-2.4152,-2.4152,-2.4152,-2.4152,-2.4152,-2.4152,-2.4152,-2.4152,-2.3755,-2.0783,-2.1741,-2.2575,-2.2965,-2.2979,-2.2909,-2.3077,-2.2879,-2.2613,-2.2524,-2.313,-2.3802,-2.4097,-2.4747,-2.4968,-2.4101,-2.2929,-2.2429,-2.3338,-2.5057,-2.6339,-2.6691,-2.7708,-2.8721,-2.9532,-2.9939,-3.0028,-2.9772,-2.9892,-2.9761,-2.9271,-2.9271,-2.9225,-2.912,-2.954,-2.9717,-2.9528,-2.9483,-2.991,-3.0842,-3.076,-3.1321,-3.2382,-3.2358,-3.2327,-3.2302,-3.1992,-3.1622,0.0,-3.0925,-3.036,-2.9723,-2.9192,-2.9129,-2.9184,-2.8379,-2.8448,-2.8953,-2.8739,-2.9065,-2.9496,-2.9001,-2.8864,-2.8743,-2.7787,-2.7495,-2.7443,-2.6849,-2.661,-2.6445,-2.5906,-2.538,-2.4765,-2.4145,-2.3521,-2.2824,-2.1924,-2.148,-2.123,-2.0872,-2.0709,-2.0439,-1.9803,-1.9712,-1.9546,-1.892,-1.8939,-1.9113,-1.9352,-1.9479,-1.9685,-2.0019,-2.0257,-2.0452,-2.067,-2.166,-2.2275,-2.2076,-2.2997,-2.3438,-2.302,-2.3338,-2.3637,-2.3836,-2.3836,-2.3954,-2.4152,-2.4152,-2.3954,-2.3538,-2.3538,-2.2937,0.0,-2.0955,-2.1264,-2.2161,-2.2438,-2.2575,-2.3024,-2.364,0.0,-2.4055,-2.4741,-2.5322,-2.5137,-2.5589,-2.6084,-2.6316,-2.3936,-2.2948,-2.5579,-2.6016,-2.6488,-2.7507,-2.8025,-2.8418,-2.8725,-2.9448,-2.9673,-2.9194,-2.9271,-2.9134,-2.8654,-2.8654,-2.8415,-2.802,-2.8904,-2.9271,-2.9028,-2.892,-2.9321,-3.0299,-3.0173,-3.0846,-3.221,-3.2104,-3.2079,-3.2023,-3.1276,-3.0925,-3.0778,-3.0179,-2.9504,-2.8939,-2.8876,-2.8546,-2.8079,-2.8132,-2.8412,-2.8739,-2.8375,-2.8545,-2.895,-2.8494,-2.781,-2.694,-2.6135,-2.6467,-2.694,-2.6135,-2.5738,-2.557,-2.5464,-2.4594,-2.3714,-2.3607,-2.2736,-2.1587,-2.0692,-2.0331,-1.9894,-1.9012,-1.8827,-1.8827,-1.8827,-1.8843,-1.8875,-1.8875,-1.9177,-1.9415,-1.9352,-1.962,-1.9937,-2.0184,-2.0332,-2.0458,-2.079,-2.1318,-2.1928,-2.2333,-2.2434,-2.2535,-2.2434,-2.2535,-2.2719,-2.322,-2.322,-2.3538,-2.3954,-2.3954,-2.3438,-2.2316,-2.2316,-2.1709,-2.045,0.0,-2.1609,-2.1438,-2.1769,-2.2449,0.0,-2.3881,0.0,0.0,0.0,-2.403,-2.3986,-2.2492,-2.1647,-2.2797,-2.3687,-2.4115,-2.3738,-2.4471,-2.5778,-2.7656,-2.7632,-2.7891,-2.9143,-2.9207,-2.8982,-2.8528,-2.8622,-2.8511,-2.8008,-2.8008,-2.8039,-2.802,-2.773,-2.775,-2.8235,-2.8235,-2.8614,-2.9337,-2.9265,-2.9759,-3.0532,-3.0514,-3.051,-3.051,-3.03,-2.9936,-2.9442,-2.9219,-2.8648,-2.8091,-2.7894,-2.7789,-2.7735,-2.8155,-2.798,-2.7627,-2.8371,-2.8349,-2.7883,-2.7566,-2.694,-2.6135,-2.5822,-2.5801,-2.5968,-2.5738,-2.5464,-2.5105,-2.4402,-2.3887,-2.3173,-2.1658,-2.1051,-2.0439,-1.9455,-1.918,-1.9088,-1.8827,-1.8827,-1.8827,-1.8827,-1.9066,-1.9241,-1.9241,-1.9526,-1.965,-1.9208,-1.92,-1.9179,-1.8904,-1.945,-1.9907,-1.9983,-2.1011,-2.1623,-2.1318,-2.203,-2.2333,-2.1928,-2.2333,-2.2535,-2.2736,-2.2736,-2.2417,-2.1996,-2.1996,-2.1489,-2.0554,-2.0554,-2.004,-1.9,-2.0191,-2.1262,-2.0954,-2.1188,-2.1615,-2.2178,-2.3155,0.0,0.0,0.0,-2.3224,-2.2031,-1.9878,-1.8731,-2.0312,-2.1894,-2.3028,-2.3338,-2.4106,-2.5353,-2.734,-2.7169,-2.7363,-2.8685,-2.8654,-2.8367,-2.8027,-2.8027,-2.7959,-2.774,-2.774,-2.764,-2.7408,-2.7049,-2.7071,-2.756,-2.7225,-2.7447,-2.8231,-2.8414,-2.8856,-2.961,-2.9832,-2.9875,-2.9903,-2.947,-2.9093,-2.8712,-2.8352,-2.796,-2.759,-2.7188,-2.7188,-2.7468,-2.7367,-2.7369,-2.7503,-2.7648,-2.7254,-2.6634,-2.6521,-2.6052,-2.5464,-2.4935,-2.468,-2.4594,-2.4765,-2.4594,-2.4145,-2.3173,-2.2473,-2.1747,-2.0692,-2.0076,-1.9455,-1.892,-1.8827,-1.8827,-1.8827,-1.897,-1.8988,-1.8504,-1.8781,-1.8916,-1.8529,-1.8799,-1.887,-1.8542,-1.8687,-1.864,-1.8408,-1.884,-1.9049,-1.9049,-1.9761,-2.0395,-2.0925,-2.1113,-2.1113,-2.0806,-2.0688,-2.0775,-2.0979,-2.1183,-2.1167,-2.0656,-2.0656,-2.0246,-1.9317,-1.9317,-1.8693,-1.7159,-1.8565,-2.0135,-2.0498,-2.0578,-2.0542,-2.0542,0.0,0.0,0.0,0.0,0.0,-1.9847,-1.8037,-1.7329,-1.8672,-1.976,-2.1235,-2.3606,-2.4169,-2.4958,-2.6639,-2.658,-2.6826,-2.7777,-2.783,-2.773,-2.756,-2.7458,-2.7408,-2.7408,-2.7458,-2.7203,-2.6578,-2.6472,-2.6549,-2.6811,-2.6254,-2.6349,-2.7083,-2.7428,-2.7963,-2.8734,-2.9144,-2.9358,-2.938,-2.8648,-2.8352,-2.8287,-2.759,-2.7323,-2.7255,-2.6483,-2.6671,-2.7165,-2.6431,-2.6822,-2.7581,-2.6572,-2.5924,-2.557,-2.5549,-2.5295,-2.485,-2.3973,-2.3434,-2.3173,-2.326,-2.3173,-2.2911,-2.1943,-2.1051,-2.0257,-2.0076,-1.9455,-1.8827,-1.8827,-1.8827,-1.8843,-1.8907,-1.9067,-1.9003,-1.8267,-1.8341,-1.8251,-1.7554,-1.7733,-1.7928,-1.7825,-1.8047,-1.8213,-1.8003,-1.8108,-1.8213,-1.8213,-1.8318,-1.9049,-2.0395,-1.9879,-1.9465,-1.9465,-1.884,-1.8617,-1.902,-1.9524,-1.9731,-1.9612,-1.9612,-1.9005,-1.7975,-1.7975,-1.745,-1.6553,-1.677,-1.7511,-1.9473,-1.9955,-1.9963,-1.9963,0.0,0.0,0.0,0.0,0.0,0.0,-1.8439,-1.8567,-1.8087,-1.9466,-2.1245,-2.3288,-2.3244,-2.3628,-2.5394,-2.5588,-2.592,-2.6821,-2.6625,-2.6654,-2.7233,-2.6893,-2.6683,-2.6683,-2.6788,-2.6549,-2.596,-2.5495,-2.5272,-2.5328,-2.5687,-2.5879,-2.6046,-2.61,-2.6471,-2.71,-2.714,-2.7444,-2.7829,-2.7723,-2.7656,-2.759,-2.6892,-2.6552,-2.6483,-2.5721,-2.5778,-2.6287,-2.6624,-2.67,-2.6516,-2.5931,-2.5673,-2.557,-2.538,-2.468,-2.3973,-2.3607,-2.2911,-2.2031,-2.1141,-2.1409,-2.1784,-2.0782,-2.0439,-2.0076,-1.9271,-1.892,-1.8827,-1.8827,-1.8827,-1.8923,-1.9225,-1.875,-1.8393,-1.8453,-1.8282,-1.7992,-1.789,-1.8156,-1.8039,-1.7397,-1.7331,-1.7147,-1.6311,-1.6935,-1.7358,-1.7358,-1.8003,-1.8527,-1.8736,-1.8632,-1.8632,-1.8632,-1.8422,-1.8422,-1.8527,-1.8617,-1.8304,-1.766,-1.766,-1.7147,-1.6311,-1.6311,-1.6205,-1.5177,-1.5581,-1.6218,-1.6566,-1.7291,-1.8007,-1.8107,-1.813,0.0,0.0,0.0,0.0,0.0,-1.7341,-1.7773,-1.8341,-1.9592,-2.0957,-2.2419,-2.2271,-2.2611,-2.4238,-2.4291,-2.4629,-2.5765,-2.5714,-2.5797,-2.6176,-2.6068,-2.6014,-2.6014,-2.6122,-2.596,-2.5384,-2.5104,-2.4848,-2.4505,-2.4394,-2.454,-2.4878,-2.5181,-2.5648,-2.6197,-2.6116,-2.6355,-2.6892,-2.6483,-2.6277,-2.6277,-2.5931,-2.5791,-2.5721,-2.4921,-2.523,-2.6019,-2.6453,-2.6302,-2.5804,-2.502,-2.4594,-2.4317,-2.3714,-2.3086,-2.2561,-2.1943,-2.1409,-2.0872,-1.9803,-2.0167,-2.0709,-1.9712,-1.9455,-1.9363,-1.892,-1.8827,-1.8827,-1.8827,-1.8598,-1.8502,-1.8655,-1.8296,-1.7882,-1.7608,-1.7476,-1.7368,-1.6847,-1.6963,-1.6948,-1.6524,-1.6524,-1.6311,-1.5885,-1.6311,-1.6524,-1.6524,-1.6842,-1.7265,-1.7674,-1.7779,-1.7569,-1.7054,-1.7054,-1.7054,-1.7054,-1.7054,-1.6842,-1.6524,-1.6524,-1.6311,-1.5885,-1.5885,-1.5885,-1.4015,-1.4709,-1.5195,-1.4164,-1.4924,-1.5987,-1.619,-1.6049,0.0,0.0,0.0,0.0,-1.6001,-1.6256,-1.6997,-1.8415,-1.9509,-2.0442,-2.122,-2.1232,-2.1718,-2.3139,-2.3278,-2.3662,-2.4856,-2.4964,-2.5077,-2.53,-2.53,-2.53,-2.53,-2.5273,-2.4993,-2.4452,-2.4337,-2.4047,-2.3628,-2.31,-2.322,-2.3865,-2.4185,-2.469,-2.5294,-2.5184,-2.5468,-2.6139,-2.5511,-2.53,-2.53,-2.5087,-2.5016,-2.4945,-2.4196,-2.4608,-2.5652,-2.5927,-2.57,-2.5041,-2.4231,-2.3521,-2.2911,-2.2208,-2.1695,-2.1248,-2.0529,-2.0167,-1.9803,-1.9012,-1.9363,-1.9803,-1.9012,-1.8827,-1.8735,-1.855,-1.8535,-1.8473,-1.8365,-1.8123,-1.7867,-1.8013,-1.7839,-1.736,-1.6821,-1.6794,-1.6617,-1.5992,-1.5885,-1.5885,-1.5885,-1.5885,-1.5885,-1.5885,-1.5885,-1.5885,-1.5885,-1.5885,-1.6205,-1.6829,-1.6935,-1.6617,-1.5885,-1.5885,-1.5885,-1.5885,-1.5885,-1.5885,-1.5885,-1.5885,-1.5922,-1.5982,-1.5982,-1.6018,-1.3862,-1.4094,-1.4064,-1.3629,-1.4128,0.0,-1.475,-1.4083,0.0,-1.4291,0.0,0.0,-1.4812,-1.6047,-1.7194,-1.7626,-1.875,-1.9554,-1.9457,-2.0067,-2.0888,-2.2083,-2.2804,-2.3447,-2.4116,-2.4189,-2.4394,-2.5021,-2.4624,-2.4394,-2.4394,-2.3936,-2.3382,-2.2774,-2.2372,-2.2125,-2.2063,-2.2101,-2.2531,-2.316,-2.258,-2.2829,-2.3821,-2.3845,-2.4382,-2.537,-2.53,-2.53,-2.5229,-2.4492,-2.4181,-2.4154,-2.3633,-2.3932,-2.4652,-2.5123,-2.4723,-2.3887,-2.3521,-2.2824,-2.2031,-2.1784,-2.1159,-2.0439,-2.0348,-1.9637,-1.892,-1.8827,-1.8827,-1.892,-1.8827,-1.8827,-1.8643,-1.7978,-1.7777,-1.768,-1.7227,-1.7119,-1.7204,-1.7778,-1.7217,-1.6808,-1.7068,-1.6499,-1.5992,-1.5885,-1.5885,-1.5885,-1.5885,-1.5885,-1.5885,-1.5885,-1.5885,-1.5885,-1.5885,-1.5885,-1.5885,-1.5992,-1.5992,-1.5992,-1.5885,-1.5885,-1.5885,-1.5885,-1.5885,-1.5885,-1.5885,-1.5885,-1.6018,-1.626,-1.6272,-1.6416,-1.3235,-1.3083,-1.2806,-1.2145,-1.2444,0.0,0.0,-1.3665,-1.3701,-1.4005,-1.411,0.0,-1.4935,-1.5575,-1.6268,-1.6996,-1.7815,-1.8319,-1.8216,-1.8478,-1.9095,-2.0256,-2.0661,-2.1189,-2.2128,-2.2224,-2.2347,-2.2567,-2.2531,-2.247,-2.247,-2.2384,-2.22,-2.1978,-2.1815,-2.169,-2.169,-2.1353,-2.129,-2.1518,-2.1916,-2.2654,-2.3688,-2.3223,-2.3606,-2.4492,-2.3936,-2.3717,-2.3644,-2.3202,-2.3054,-2.3045,-2.3487,-2.3612,-2.37,-2.4152,-2.3627,-2.2561,-2.1924,-2.1302,-2.0782,-2.0076,-1.9637,-1.9363,-1.9363,-1.9088,-1.8827,-1.8827,-1.8442,-1.8257,-1.8643,-1.8442,-1.8071,-1.7792,-1.7472,-1.7184,-1.7008,-1.6851,-1.6773,-1.7101,-1.6561,-1.6187,-1.6393,-1.6099,-1.5885,-1.5885,-1.5885,-1.5885,-1.5885,-1.5885,-1.5885,-1.5885,-1.5885,-1.5885,-1.5885,-1.5885,-1.5885,-1.5885,-1.5885,-1.5885,-1.5885,-1.5885,-1.5885,-1.5885,-1.5885,-1.5885,-1.5885,-1.5885,-1.5946,-1.603,-1.6042,-1.6103,-1.1826,-1.1525,-1.1182,-1.0754,0.0,0.0,-1.2111,-1.2656,-1.3084,-1.3113,-1.329,-1.3756,-1.4907,-1.5356,-1.5732,-1.632,-1.7048,-1.7468,-1.7246,-1.7413,-1.7891,-1.8951,-1.9258,-1.975,-2.074,-2.0968,-2.1123,-2.1123,-2.125,-2.1313,-2.1313,-2.1187,-2.1123,-2.1123,-2.0996,-2.0869,-2.0869,-2.0484,-2.0291,-2.0291,-2.0974,-2.1888,-2.2954,-2.2434,-2.27,-2.3621,-2.2905,-2.2628,-2.2628,-2.2478,-2.2497,-2.2759,-2.3054,-2.3165,-2.3123,-2.3162,-2.2473,-2.1409,-2.0692,-2.024,-1.9712,-1.9012,-1.8827,-1.8827,-1.8827,-1.8643,-1.8442,-1.8442,-1.7885,-1.7527,-1.8115,-1.7774,-1.734,-1.716,-1.6868,-1.6592,-1.65,-1.6354,-1.6238,-1.6327,-1.6082,-1.5885,-1.5885,-1.5885,-1.5885,-1.5885,-1.5885,-1.5885,-1.5885,-1.5885,-1.5885,-1.5885,-1.5885,-1.5885,-1.5885,-1.5885,-1.5885,-1.5885,-1.5885,-1.5885,-1.5885,-1.5885,-1.5885,-1.5885,-1.5885,-1.5885,-1.5885,-1.5885,-1.5934,-1.6018,-1.6018,-1.5851,-0.9652,-0.9381,-0.9284,-0.9506,0.0,0.0,-1.0327,-1.0812,-1.12,-1.12,-1.197,-1.3148,-1.4623,-1.5425,-1.5771,-1.5519,-1.6577,-1.7101,-1.6368,-1.6933,-1.7612,-1.8213,-1.8938,-1.9613,-2.0114,-2.0762,-2.106,-2.106,-2.106,-2.106,-2.106,-2.042,-2.0096,-2.0096,-1.9594,-1.9285,-1.9285,-1.9483,-1.9615,-1.9615,-1.9615,-2.0172,-2.1301,-2.1301,-2.1819,-2.2703,-2.2478,-2.2402,-2.2402,-2.2402,-2.2801,-2.3325,-2.2371,-2.2408,-2.2911,-2.205,-2.1069,-2.0257,-2.0257,-1.9637,-1.8827,-1.8827,-1.8827,-1.8827,-1.8827,-1.8257,-1.7684,-1.7684,-1.7138,-1.6658,-1.6966,-1.6826,-1.6483,-1.5888,-1.5771,-1.5729,-1.5585,-1.5499,-1.5584,-1.5837,-1.5885,-1.5885,-1.5885,-1.5885,-1.5885,-1.5885,-1.5885,-1.5885,-1.5885,-1.5885,-1.5885,-1.5885,-1.5885,-1.5885,-1.5885,-1.5885,-1.5885,-1.5885,-1.5885,-1.5885,-1.5885,-1.5885,-1.5885,-1.5885,-1.5885,-1.5885,-1.5885,-1.5885,-1.6018,-1.6272,-1.6296,-1.5765,-0.9576,-0.9174,-0.8989,-0.9453,0.0,0.0,0.0,-1.0353,0.0,0.0,-1.1989,-1.2587,-1.3327,-1.3659,-1.3995,-1.4696,-1.5139,-1.5449,-1.5642,-1.5853,-1.6209,-1.6835,-1.753,-1.8175,-1.8723,-1.9318,-1.9704,-1.9704,-1.9704,-1.9704,-1.9704,-1.9528,-1.9396,-1.9396,-1.9264,-1.8931,-1.8375,-1.8931,-1.8998,-1.8509,-1.9065,-1.997,-2.109,-2.109,-2.1602,-2.2478,-2.2252,-2.1852,-2.1221,-2.0508,-2.0716,-2.1403,-2.1051,-2.1047,-2.1141,-2.0782,-2.0076,-1.9271,-1.9271,-1.9012,-1.8827,-1.8827,-1.8442,-1.8071,-1.8071,-1.7512,-1.6994,-1.7127,-1.6608,-1.6095,-1.6388,-1.6004,-1.5681,-1.6043,-1.5821,-1.5614,-1.5463,-1.5644,-1.5801,-1.5873,-1.5885,-1.5885,-1.5885,-1.5885,-1.5885,-1.5885,-1.5885,-1.5885,-1.5885,-1.5244,-1.4708,-1.4708,-1.3825,-1.3285,-1.3393,-1.403,-1.4137,-1.3501,-1.4266,-1.503,-1.5885,-1.5885,-1.5885,-1.5885,-1.5885,-1.5458,-1.4708,-1.5458,-1.5053,-1.3604,-1.4538,-1.4325,-0.8742,-0.8326,-0.808,-0.8669,-0.8217,-0.7788,-0.8546,-0.9712,-1.0786,-1.1644,-1.2002,-1.2307,-1.2982,-1.3126,-1.3372,-1.4016,-1.4112,-1.435,-1.4942,-1.4824,-1.5034,-1.6076,-1.6301,-1.6664,-1.7566,-1.8201,-1.8596,-1.8664,-1.8931,-1.8998,-1.8664,-1.8931,-1.8865,-1.824,-1.8509,-1.8307,-1.756,-1.7969,-1.7969,-1.756,-1.8104,-1.8854,-1.9857,-2.0196,-2.0687,-2.1318,-2.1068,-2.0682,-2.0138,-1.9678,-1.9879,-2.0503,-2.0225,-2.0237,-2.0257,-1.9803,-1.9363,-1.8827,-1.8827,-1.8643,-1.835,-1.835,-1.7885,-1.7232,-1.7232,-1.6848,-1.632,-1.6497,-1.6045,-1.5607,-1.5885,-1.5565,-1.536,-1.5858,-1.5676,-1.5523,-1.5632,-1.5777,-1.5885,-1.5885,-1.5885,-1.5885,-1.5885,-1.5565,-1.5244,-1.5244,-1.5018,-1.4911,-1.5018,-1.4266,-1.3511,-1.3166,-1.2299,-1.1864,-1.2082,-1.2507,-1.2615,-1.2082,-1.2733,-1.3491,-1.4137,-1.4363,-1.4482,-1.4482,-1.4482,-1.4159,-1.3511,-1.4245,-1.3853,-1.255,-1.3416,-1.3189,-0.7652,-0.7163,-0.6971,-0.7558,-0.7405,-0.7313,-0.8004,-0.8862,-0.9905,-1.1523,-1.1941,-1.223,-1.3191,-1.3346,-1.3329,-1.339,-1.339,-1.3631,-1.4291,-1.3907,-1.4109,-1.5712,-1.5314,-1.5388,-1.6562,-1.7244,-1.7696,-1.7901,-1.8509,-1.8596,-1.7969,-1.8529,-1.8307,-1.6941,-1.756,-1.756,-1.6802,-1.6872,-1.6872,-1.6802,-1.6872,-1.7293,-1.8008,-1.8874,-1.9408,-1.959,-1.9274,-1.9177,-1.9213,-1.9453,-1.9869,-2.0183,-1.9713,-1.9737,-2.0076,-1.918,-1.8735,-1.8735,-1.8735,-1.8257,-1.7606,-1.7606,-1.7138,-1.6494,-1.6522,-1.6142,-1.5673,-1.5725,-1.5445,-1.5197,-1.5463,-1.5535,-1.5535,-1.5535,-1.5535,-1.5596,-1.5837,-1.5885,-1.5779,-1.5779,-1.5672,-1.5672,-1.5672,-1.4696,-1.3943,-1.3943,-1.3511,-1.3176,-1.348,-1.295,-1.2191,-1.1411,-1.1193,-1.1193,-1.1193,-1.1302,-1.1302,-1.1193,-1.1302,-1.1302,-1.1193,-1.1973,-1.2309,-1.2309,-1.2436,-1.2337,-1.2228,-1.2543,-1.2534,-1.232,-1.2625,-1.2038,-0.7521,-0.7163,-0.6971,-0.7558,-0.7533,-0.7395,-0.7744,-0.8186,-0.8961,-1.0474,-1.1257,-1.1794,-1.2251,-1.2163,-1.2166,-1.2642,-1.2704,-1.2948,-1.3631,-1.3829,-1.4053,-1.4435,-1.4985,-1.549,-1.5865,-1.6478,-1.6922,-1.7148,-1.7285,-1.7285,-1.7148,-1.7285,-1.7217,-1.6941,-1.7079,-1.6802,-1.6035,-1.6594,-1.6594,-1.6035,-1.6594,-1.6938,-1.7128,-1.8008,-1.8731,-1.9335,-1.8638,-1.8318,-1.8273,-1.7929,-1.8058,-1.8403,-1.8499,-1.8781,-1.9088,-1.892,-1.8442,-1.7978,-1.7978,-1.7419,-1.6857,-1.6857,-1.6292,-1.5668,-1.5893,-1.5524,-1.4998,-1.5413,-1.5469,-1.5475,-1.5741,-1.5801,-1.5801,-1.5801,-1.5801,-1.5825,-1.5873,-1.5565,-1.5148,-1.5148,-1.4266,-1.3501,-1.3501,-1.2733,-1.2073,-1.2073,-1.1964,-1.1964,-1.1955,-1.1101,-1.0343,-1.0233,-0.914,-0.8478,-0.8699,-0.9347,-0.9449,-0.8809,-0.9684,-0.9794,-0.8809,-1.0891,-1.2091,-1.2091,-1.2358,-1.2108,-1.1218,-1.2307,-1.1837,-1.0133,-1.0988,-1.0715,-0.7129,-0.6786,-0.6557,-0.6827,-0.6934,-0.7064,-0.7178,-0.7805,-0.86,-0.9604,-1.0584,-1.1231,-1.0903,-1.1367,-1.1736,-1.156,-1.1841,-1.2336,-1.3116,-1.3123,-1.3445,-1.4442,-1.4344,-1.4571,-1.5377,-1.5774,-1.6018,-1.6385,-1.6733,-1.6733,-1.6385,-1.6733,-1.6594,-1.5824,-1.6175,-1.5965,-1.5204,-1.5613,-1.5613,-1.5204,-1.5613,-1.5931,-1.6294,-1.7106,-1.7638,-1.7997,-1.761,-1.7367,-1.74,-1.7456,-1.7447,-1.7301,-1.7794,-1.7919,-1.7714,-1.7714,-1.7512,-1.7138,-1.7138,-1.6669,-1.6008,-1.6008,-1.5639,-1.5105,-1.5243,-1.5183,-1.5149,-1.5415,-1.5596,-1.5716,-1.5849,-1.5672,-1.5458,-1.5458,-1.5458,-1.5458,-1.5458,-1.4708,-1.3943,-1.3943,-1.295,-1.2181,-1.2181,-1.1311,-1.0655,-1.0655,-1.0437,-1.0327,-1.0429,-0.9677,-0.903,-0.8589,-0.782,-0.7493,-0.7598,-0.8036,-0.814,-0.7598,-0.8208,-0.8357,-0.7691,-0.9202,-1.0107,-1.0136,-1.0416,-1.0281,-0.9717,-1.0439,-1.0171,-0.902,-0.9632,-0.958,-0.6474,-0.6148,-0.5783,-0.5656,-0.6036,-0.64,-0.6434,-0.7346,-0.8337,-0.8675,-0.9805,-1.0579,-0.9738,-1.0731,-1.1344,-1.0467,-1.0835,-1.1594,-1.2341,-1.2182,-1.258,-1.4356,-1.3669,-1.361,-1.4887,-1.5039,-1.5199,-1.5559,-1.6228,-1.6316,-1.563,-1.6175,-1.5895,-1.4633,-1.5275,-1.5275,-1.4649,-1.4561,-1.4561,-1.4561,-1.476,-1.5051,-1.5543,-1.6314,-1.666,-1.6826,-1.6762,-1.6778,-1.6873,-1.7423,-1.7255,-1.6787,-1.7261,-1.7138,-1.6588,-1.6588,-1.6494,-1.64,-1.64,-1.5913,-1.5248,-1.5248,-1.4971,-1.4727,-1.4775,-1.5113,-1.5511,-1.5559,-1.5611,-1.5672,-1.5565,-1.503,-1.46,-1.4385,-1.4385,-1.4385,-1.46,-1.3511,-1.2417,-1.2417,-1.1638,-1.0975,-1.0757,-1.0006,-0.9361,-0.9361,-0.892,-0.8699,-0.8906,-0.8582,-0.8042,-0.7265,-0.7154,-0.7165,-0.7182,-0.7187,-0.7192,-0.7214,-0.7312,-0.7366,-0.7366,-0.7713,-0.7968,-0.8093,-0.8317,-0.8488,-0.8488,-0.8622,-0.8683,-0.8683,-0.8799,-0.8854,-0.5477,-0.5058,-0.4524,-0.4194,-0.4855,-0.5672,-0.5618,-0.6511,-0.7459,-0.7635,-0.8917,-0.995,-0.9915,-0.9988,-1.0011,-0.9688,-0.9835,-1.006,-1.0217,-1.1136,-1.1911,-1.2191,-1.2956,-1.3665,-1.4201,-1.4537,-1.4673,-1.4737,-1.5154,-1.5259,-1.4792,-1.4848,-1.4776,-1.4649,-1.4705,-1.4705,-1.4561,-1.4561,-1.4561,-1.4577,-1.5253,-1.528,-1.4847,-1.5809,-1.6584,-1.7191,-1.6873,-1.6921,-1.7239,-1.6927,-1.6815,-1.6699,-1.6707,-1.6683,-1.6588,-1.6588,-1.6197,-1.5534,-1.5534,-1.5057,-1.4484,-1.4484,-1.4582,-1.4763,-1.4992,-1.527,-1.5547,-1.5777,-1.5541,-1.4922,-1.4137,-1.3609,-1.296,-1.2181,-1.1647,-1.1655,-1.2852,-1.1982,-1.1,-1.1,-0.9904,-0.8699,-0.7925,-0.7593,-0.7598,-0.7598,-0.7487,-0.7487,-0.7487,-0.7376,-0.7376,-0.7265,-0.7154,-0.7198,-0.7301,-0.7312,-0.7355,-0.7464,-0.7486,-0.7497,-0.7497,-0.7611,-0.779,-0.7773,-0.826,-0.8622,-0.8622,-0.8763,-0.883,-0.883,-0.8604,-0.8494,-0.444,-0.4125,-0.3816,-0.388,-0.4309,-0.4926,-0.542,-0.6115,-0.6641,-0.6783,-0.7712,-0.8499,-0.8443,-0.9127,-0.9597,-0.903,-0.9429,-0.9872,-1.0239,-1.0775,-1.1344,-1.2018,-1.2151,-1.2452,-1.3185,-1.3521,-1.3682,-1.384,-1.4194,-1.4444,-1.4577,-1.4346,-1.4274,-1.4561,-1.4561,-1.4489,-1.4129,-1.4129,-1.4129,-1.4129,-1.4501,-1.4766,-1.4974,-1.517,-1.5631,-1.6048,-1.59,-1.5915,-1.6078,-1.6053,-1.5828,-1.5542,-1.5778,-1.5724,-1.5369,-1.5441,-1.5197,-1.4796,-1.4958,-1.4715,-1.4328,-1.4485,-1.4714,-1.4879,-1.4836,-1.4664,-1.4445,-1.4234,-1.3609,-1.295,-1.2606,-1.2082,-1.1546,-1.1101,-1.0303,-0.969,-1.0257,-0.9911,-0.9361,-0.8803,-0.8257,-0.7598,-0.7265,-0.7154,-0.7154,-0.7154,-0.7154,-0.7154,-0.7154,-0.7154,-0.7182,-0.7247,-0.7258,-0.7307,-0.7426,-0.7437,-0.7459,-0.7513,-0.7584,-0.7622,-0.7622,-0.7736,-0.7796,-0.7796,-0.8032,-0.8153,-0.8153,-0.8332,-0.836,-0.836,-0.8244,-0.8122,-0.2963,-0.2729,-0.2707,-0.31,-0.3537,-0.4001,-0.4851,-0.5461,-0.5815,-0.5815,-0.6368,-0.6744,-0.6754,-0.8059,-0.8896,-0.8368,-0.8815,-0.949,-1.0001,-1.026,-1.0742,-1.1613,-1.1329,-1.1403,-1.2218,-1.2566,-1.2875,-1.2952,-1.3389,-1.3842,-1.4145,-1.3768,-1.3768,-1.4129,-1.4201,-1.3985,-1.355,-1.355,-1.3579,-1.3667,-1.3867,-1.4135,-1.4617,-1.4671,-1.462,-1.4583,-1.4847,-1.5074,-1.5241,-1.5287,-1.5066,-1.4644,-1.4961,-1.4821,-1.4425,-1.4642,-1.463,-1.4521,-1.4666,-1.4582,-1.4437,-1.4445,-1.4483,-1.4526,-1.4167,-1.3646,-1.3048,-1.2625,-1.1855,-1.1193,-1.0975,-1.0586,-1.0082,-0.9853,-0.9096,-0.8375,-0.8233,-0.8177,-0.7931,-0.7376,-0.7154,-0.7154,-0.7154,-0.7154,-0.7154,-0.7154,-0.7154,-0.7154,-0.7154,-0.7182,-0.7236,-0.7328,-0.7366,-0.7432,-0.7557,-0.7568,-0.7578,-0.7606,-0.7693,-0.7741,-0.7741,-0.7823,-0.7872,-0.7872,-0.7872,-0.7872,-0.7872,-0.7872,-0.7872,-0.7872,-0.7872,-0.7872,-0.0712,-0.0578,-0.0701,-0.1237,-0.1988,-0.2806,-0.3355,-0.4201,-0.4865,-0.4865,-0.4838,-0.496,-0.5583,-0.6615,-0.7437,-0.7514,-0.7739,-0.8075,-0.8436,-0.9319,-0.9981,-0.9992,-1.0669,-1.118,-1.1452,-1.2067,-1.2496,-1.2365,-1.2981,-1.3262,-1.298,-1.2966,-1.2966,-1.2966,-1.2966,-1.2966,-1.2966,-1.2966,-1.3047,-1.3341,-1.3877,-1.3858,-1.3326,-1.4161,-1.4053,-1.3285,-1.4287,-1.5091,-1.5548,-1.4847,-1.4644,-1.4823,-1.4469,-1.4461,-1.4702,-1.4714,-1.4859,-1.5028,-1.4799,-1.4702,-1.4592,-1.3998,-1.3456,-1.2967,-1.268,-1.214,-1.1629,-1.1629,-1.1202,-1.0554,-0.9669,-0.9133,-0.8577,-0.7664,-0.7536,-0.7475,-0.735,-0.7348,-0.7265,-0.7154,-0.7154,-0.7154,-0.7154,-0.7154,-0.7154,-0.7154,-0.7154,-0.7154,-0.7154,-0.7252,-0.7328,-0.7334,-0.7437,-0.7562,-0.7682,-0.7693,-0.7736,-0.7845,-0.7856,-0.7861,-0.7861,-0.7867,-0.7872,-0.7872,-0.7872,-0.7872,-0.7872,-0.7872,-0.7872,-0.7872,-0.7872,-0.7872,-0.026,0.0193,0.0513,-0.0444,-0.0899,-0.1381,-0.2659,-0.3491,-0.3966,-0.3966,-0.4281,-0.4527,-0.4186,-0.5356,-0.6502,-0.69,-0.7503,-0.7997,-0.8036,-0.8656,-0.9311,-0.9841,-0.969,-0.9755,-1.0357,-1.0802,-1.1115,-1.1329,-1.1789,-1.2337,-1.2907,-1.2526,-1.2526,-1.2893,-1.2893,-1.2673,-1.2305,-1.1935,-1.2065,-1.2746,-1.2752,-1.2964,-1.3419,-1.3372,-1.3299,-1.3121,-1.3536,-1.3875,-1.4231,-1.396,-1.413,-1.4551,-1.4558,-1.4727,-1.4992,-1.5161,-1.5173,-1.4987,-1.4589,-1.4348,-1.4033,-1.3063,-1.2547,-1.2265,-1.1558,-1.0724,-0.9998,-0.9677,-0.9092,-0.8389,-0.8051,-0.7926,-0.7823,-0.7668,-0.7486,-0.741,-0.7448,-0.7296,-0.7154,-0.7154,-0.7154,-0.7154,-0.7154,-0.7154,-0.7154,-0.7154,-0.722,-0.7269,-0.7269,-0.7377,-0.7486,-0.7562,-0.7611,-0.7682,-0.7801,-0.7812,-0.7828,-0.7867,-0.7872,-0.7872,-0.7872,-0.7872,-0.7872,-0.7872,-0.7872,-0.7872,-0.7872,-0.7872,-0.7872,-0.7872,-0.7872,-0.7915,0.0263,0.0,0.0,0.0065,-0.013,-0.0395,-0.1913,-0.2482,-0.2826,-0.3036,-0.347,-0.37,-0.3352,-0.4312,-0.539,-0.6143,-0.6838,-0.7426,-0.7753,-0.8161,-0.8703,-0.9387,-0.9008,-0.8932,-0.9463,-0.9755,-0.9981,-1.0293,-1.0818,-1.1403,-1.2083,-1.1848,-1.1861,-1.2305,-1.2305,-1.2083,-1.17,-1.1352,-1.1536,-1.2195,-1.2172,-1.2539,-1.3307,-1.2979,-1.2892,-1.2988,-1.3085,-1.3278,-1.3532,-1.3701,-1.4039,-1.4461,-1.4739,-1.5004,-1.5258,-1.5439,-1.5127,-1.4608,-1.4333,-1.3711,-1.2832,-1.2084,-1.1417,-1.0906,-1.0147,-0.9354,-0.8478,-0.8202,-0.7725,-0.7345,-0.7388,-0.7486,-0.7611,-0.7731,-0.7573,-0.7421,-0.7502,-0.7328,-0.7154,-0.7154,-0.7154,-0.7154,-0.7154,-0.7154,-0.7171,-0.7209,-0.7285,-0.735,-0.7394,-0.7502,-0.7611,-0.7693,-0.7736,-0.779,-0.7861,-0.7872,-0.7872,-0.7872,-0.7872,-0.7872,-0.7872,-0.7872,-0.7872,-0.7872,-0.7872,-0.7888,-0.7932,-0.7888,-0.7894,-0.7932,-0.7932,-0.8019,0.0,0.0,0.0,0.0471,0.0336,0.0067,-0.1008,-0.1277,-0.1479,-0.2018,-0.2202,-0.2382,-0.3147,-0.3503,-0.4077,-0.5432,-0.5657,-0.6153,-0.7524,-0.7778,-0.8008,-0.8627,-0.8703,-0.8703,-0.8703,-0.9008,-0.9246,-0.9322,-0.9992,-1.0519,-1.0519,-1.0881,-1.1105,-1.1105,-1.1105,-1.1117,-1.1129,-1.1395,-1.1673,-1.1938,-1.2445,-1.2699,-1.2711,-1.2988,-1.2964,-1.2735,-1.3025,-1.3302,-1.358,-1.4087,-1.4473,-1.4763,-1.4915,-1.5179,-1.5407,-1.5407,-1.459,-1.3633,-1.4023,-1.2863,-1.1098,-1.1141,-1.0152,-0.8824,-0.8549,-0.7826,-0.7187,-0.7307,-0.7345,-0.7377,-0.7497,-0.7616,-0.7736,-0.7839,-0.7687,-0.7519,-0.7513,-0.7323,-0.7154,-0.7154,-0.7154,-0.7154,-0.7154,-0.716,-0.7198,-0.7317,-0.7339,-0.7388,-0.7508,-0.7633,-0.7709,-0.7709,-0.7807,-0.7872,-0.7872,-0.7872,-0.7872,-0.7872,-0.7872,-0.7872,-0.7872,-0.7877,-0.7877,-0.7877,-0.7883,-0.7943,-0.8062,-0.7937,-0.7937,-0.8057,-0.8062,-0.8198,0.1076,0.0,0.0,0.0,0.0,0.0,0.0067,-0.0471,-0.0874,-0.1412,-0.1581,-0.1834,-0.2443,-0.2663,-0.3116,-0.4173,-0.5183,-0.6033,-0.6542,-0.7318,-0.8008,-0.8627,-0.8322,-0.8246,-0.8627,-0.8399,-0.8551,-0.9246,-0.9765,-1.0218,-1.0519,-1.0881,-1.1105,-1.1105,-1.1105,-1.1202,-1.1407,-1.1492,-1.1757,-1.2204,-1.2349,-1.2518,-1.2711,-1.2783,-1.2892,-1.3037,-1.3495,-1.3833,-1.4087,-1.4244,-1.469,-1.5179,-1.4194,-1.3941,-1.404,-1.2959,-1.245,-1.2008,-1.1517,-1.0985,-1.0363,-0.9256,-0.868,-0.831,-0.778,-0.7511,-0.7312,-0.7432,-0.7529,-0.7627,-0.7741,-0.7801,-0.7812,-0.7763,-0.7633,-0.7497,-0.7404,-0.7263,-0.7154,-0.7154,-0.7154,-0.7154,-0.7154,-0.7225,-0.7296,-0.7328,-0.7486,-0.7611,-0.7649,-0.7752,-0.7823,-0.7823,-0.785,-0.7872,-0.7872,-0.7883,-0.7888,-0.7888,-0.7899,-0.7899,-0.7894,-0.797,-0.8019,-0.7894,-0.7975,-0.8039,-0.7954,-0.7958,-0.7953,-0.8071,-0.8167,-0.7061,0.0,0.0,0.0,0.1611,0.0,0.0,0.047,0.0067,-0.0403,-0.1143,-0.1387,-0.1648,-0.2184,-0.2401,-0.2623,-0.3207,-0.4224,-0.5234,-0.6009,-0.6626,-0.7242,-0.7855,-0.7633,-0.7625,-0.8246,-0.8008,-0.8169,-0.9008,-0.9387,-0.9916,-1.0443,-1.0881,-1.1105,-1.1105,-1.1226,-1.1371,-1.1528,-1.1745,-1.2011,-1.2312,-1.2421,-1.2554,-1.2711,-1.2831,-1.3025,-1.3225,-1.3368,-1.3607,-1.3941,-1.3336,-1.3722,-1.4444,-1.3042,-1.2607,-1.2714,-1.1846,-1.1084,-1.0498,-1.0339,-0.9724,-0.8974,-0.8295,-0.796,-0.7814,-0.7403,-0.7372,-0.7437,-0.7562,-0.7682,-0.7785,-0.7856,-0.7872,-0.7845,-0.7731,-0.7606,-0.7486,-0.7361,-0.7241,-0.7154,-0.7154,-0.7192,-0.723,-0.723,-0.7334,-0.7432,-0.7481,-0.7611,-0.772,-0.7769,-0.7839,-0.7883,-0.7883,-0.7888,-0.7888,-0.7888,-0.7899,-0.7424,-0.6341,-0.6222,-0.6243,-0.6277,-0.735,-0.8028,-0.8033,-0.6928,-0.6855,-0.7961,-0.7965,-0.7444,-0.6369,-0.7675,-0.7464,0.0,0.0,0.0,0.2214,0.1745,0.0,0.0604,0.047,0.0134,-0.0941,-0.1195,-0.1459,-0.2044,-0.2203,-0.2353,-0.2431,-0.3136,-0.4151,-0.555,-0.586,-0.617,-0.6788,-0.6865,-0.7019,-0.7633,-0.7633,-0.7855,-0.8551,-0.9018,-0.9625,-1.0368,-1.0842,-1.1079,-1.1154,-1.1431,-1.1588,-1.1624,-1.2083,-1.2324,-1.2361,-1.259,-1.2699,-1.2711,-1.2814,-1.31,-1.3306,-1.2672,-1.2752,-1.309,-1.1829,-1.2018,-1.2991,-1.1783,-1.1302,-1.1193,-1.1084,-1.021,-0.9208,-0.9815,-0.8784,-0.7249,-0.7895,-0.7697,-0.7339,-0.7366,-0.7453,-0.7562,-0.7687,-0.7796,-0.7872,-0.7872,-0.7872,-0.7839,-0.7709,-0.7595,-0.7481,-0.7345,-0.7241,-0.7176,-0.7176,-0.7263,-0.7339,-0.7355,-0.7459,-0.7578,-0.7687,-0.7714,-0.7763,-0.7861,-0.7888,-0.7782,-0.7541,-0.7429,-0.7434,-0.7449,-0.7701,-0.6864,-0.4542,-0.3786,-0.3429,-0.3472,-0.6331,-0.8038,-0.8167,-0.5307,-0.5216,-0.7959,-0.8112,-0.6658,-0.3562,-0.6301,-0.7699,0.0,0.0,0.3101,0.3032,0.2415,0.0,0.1745,0.1343,0.074,0.0134,-0.007,-0.0291,-0.0801,-0.0987,-0.1256,-0.204,-0.2663,-0.3441,-0.4763,-0.5467,-0.617,-0.6788,-0.6402,-0.6325,-0.7019,-0.6556,-0.671,-0.7855,-0.878,-0.9463,-0.9755,-1.0548,-1.1124,-1.1366,-1.1709,-1.195,-1.2155,-1.2264,-1.2421,-1.2626,-1.2674,-1.2699,-1.2711,-1.2102,-1.21,-1.2433,-1.1639,-1.1559,-1.1838,-1.0309,-1.0716,-1.2135,-1.0421,-0.9779,-0.9559,-0.8472,-0.7814,-0.7575,-0.7672,-0.7494,-0.726,-0.7348,-0.7326,-0.7372,-0.7573,-0.7649,-0.7693,-0.7807,-0.7856,-0.7872,-0.7872,-0.7872,-0.7818,-0.7606,-0.7535,-0.7459,-0.7236,-0.7258,-0.7209,-0.7209,-0.7215,-0.7366,-0.7359,-0.7477,-0.7568,-0.7595,-0.7686,-0.7877,-0.7899,-0.7905,-0.7069,-0.4883,-0.464,-0.4662,-0.4718,-0.666,-0.7709,-0.7207,-0.3083,-0.0771,-0.0772,-0.5349,-0.7903,-0.7903,-0.5318,-0.5222,-0.7952,-0.8328,-0.5893,-0.0804,-0.1344,-0.1616,0.4018,0.4055,0.4041,0.3988,0.3422,0.0,0.0,0.2262,0.1577,0.0959,0.0496,0.0073,-0.0445,-0.0613,-0.0864,-0.1569,-0.235,-0.321,-0.4307,-0.5007,-0.5556,-0.5944,-0.5634,-0.5736,-0.6434,-0.6139,-0.6325,-0.7242,-0.8026,-0.869,-0.9154,-1.0069,-1.0841,-1.1327,-1.1813,-1.1934,-1.1638,-1.1763,-1.1634,-1.1316,-1.1316,-1.1381,-1.1422,-1.1051,-1.1159,-1.159,-1.0587,-1.0387,-1.0534,-0.9099,-0.9023,-0.9684,-0.8692,-0.8251,-0.814,-0.7482,-0.7154,-0.7143,-0.7089,-0.7149,-0.7247,-0.7247,-0.7366,-0.754,-0.7665,-0.7741,-0.7796,-0.7856,-0.7872,-0.7872,-0.7872,-0.7828,-0.7741,-0.7568,-0.7481,-0.7404,-0.729,-0.7204,-0.6819,-0.5627,-0.5401,-0.5886,-0.7256,-0.651,-0.5722,-0.5726,-0.5802,-0.5862,-0.5862,-0.7046,-0.7355,-0.5994,-0.357,-0.1917,-0.1931,-0.3226,-0.4015,-0.3911,-0.1434,0.0,0.0,-0.252,-0.3998,-0.3998,-0.2684,-0.2559,-0.391,-0.4176,-0.2827,0.0,0.0,0.0,0.4933,0.4965,0.496,0.4937,0.4426,0.3831,0.0,0.0,0.0,0.1761,0.108,0.0443,-0.0075,-0.0232,-0.0392,-0.0703,-0.1562,-0.2657,-0.4133,-0.4691,-0.5018,-0.5018,-0.5018,-0.5218,-0.5904,-0.5969,-0.6146,-0.6563,-0.7123,-0.7748,-0.8347,-0.9423,-1.0274,-1.0773,-1.1581,-1.155,-1.07,-1.0877,-1.0626,-0.9923,-0.9923,-0.9967,-1.0129,-1.0032,-1.0236,-1.0552,-0.9519,-0.9096,-0.9251,-0.8042,-0.7493,-0.7493,-0.7265,-0.7154,-0.7154,-0.7154,-0.7154,-0.716,-0.7182,-0.7252,-0.7345,-0.7388,-0.7557,-0.7736,-0.7736,-0.7796,-0.7872,-0.7872,-0.7872,-0.7872,-0.7872,-0.7785,-0.7676,-0.7562,-0.7459,-0.7268,-0.668,-0.6829,-0.6565,-0.4691,-0.3877,-0.4488,-0.716,-0.601,-0.433,-0.3337,-0.313,-0.3162,-0.3162,-0.4996,-0.6344,-0.636,-0.2592,0.0,0.0,0.0,0.0,0.0,0.0,0.0,0.0,0.0,0.0,0.0,0.0,0.0,0.0,0.0,0.0,0.0,0.0,0.0,0.5901,0.5854,0.5821,0.5689,0.5147,0.4565,0.4549,0.0,0.333,0.2464,0.0,0.196,0.1135,0.0,0.0,0.0993,0.0541,-0.101,-0.4422,-0.4958,-0.5018,-0.5018,-0.5018,-0.5061,-0.5256,-0.5737,-0.5941,-0.5564,-0.6532,-0.709,-0.7065,-0.8563,-0.9424,-0.9424,-1.0303,-1.0509,-1.0058,-1.0,-1.0009,-0.9923,-0.9923,-0.9944,-0.9956,-0.925,-0.9031,-0.9175,-0.8094,-0.7701,-0.7826,-0.7376,-0.7265,-0.7265,-0.7265,-0.7154,-0.7154,-0.7154,-0.7154,-0.7171,-0.7279,-0.7323,-0.7372,-0.7589,-0.7747,-0.785,-0.785,-0.7861,-0.7872,-0.7872,-0.7872,-0.7872,-0.7872,-0.7785,-0.7676,-0.7562,-0.7519,-0.6778,-0.4488,-0.5651,-0.714,-0.6893,-0.5112,-0.4511,-0.7311,-0.763,-0.58,-0.1133,-0.0383,-0.0386,-0.0386,-0.0645,-0.0908,-0.0919,-0.0394,0.0,0.0,0.0,0.0,0.0,0.0,0.0,0.0,0.0,0.0,0.0,0.0,0.0,0.0,0.0,0.0,0.0,0.0,0.0,0.6186,0.5778,0.553,0.6009,0.5457,0.4983,0.5359,0.4973,0.4309,0.386,0.0,0.0,0.0,0.0,0.0,0.0,0.0701,-0.039,-0.3168,-0.4361,-0.5018,-0.5018,-0.5018,-0.5061,-0.5175,-0.5564,-0.5644,-0.5455,-0.5889,-0.6338,-0.6733,-0.7733,-0.8422,-0.8759,-0.9625,-0.9671,-0.8965,-0.8877,-0.8615,-0.8105,-0.8019,-0.8055,-0.8196,-0.7865,-0.7859,-0.8081,-0.7466,-0.7332,-0.7382,-0.7265,-0.7154,-0.7154,-0.7154,-0.7154,-0.7154,-0.7154,-0.7198,-0.7269,-0.7317,-0.7426,-0.7578,-0.7747,-0.7834,-0.7872,-0.7872,-0.7872,-0.7872,-0.7872,-0.7872,-0.7856,-0.7917,-0.7812,-0.7718,-0.7802,-0.7502,-0.6197,-0.2384,-0.2302,-0.3822,-0.671,-0.4082,-0.1916,-0.3046,-0.3313,-0.2558,-0.0384,0.0,0.0,0.0,0.0,0.0,0.0,0.0,0.0,0.0,0.0,0.0,0.0,0.0,0.0,0.0,0.0,0.0,0.0,0.0,0.0,0.0,0.0,0.0,0.0,0.0,0.0,0.6152,0.567,0.5366,0.598,0.5701,0.5396,0.5901,0.5682,0.5255,0.4947,0.4417,0.0,0.0,0.0,0.2035,0.0778,0.0,-0.0234,-0.225,-0.3982,-0.5023,-0.5018,-0.5072,-0.5143,-0.523,-0.5426,-0.5529,-0.5474,-0.5518,-0.5734,-0.6288,-0.6994,-0.7482,-0.7826,-0.8528,-0.8536,-0.7746,-0.7746,-0.7422,-0.6764,-0.6721,-0.6762,-0.6964,-0.6986,-0.7118,-0.7357,-0.7227,-0.7154,-0.7154,-0.7154,-0.7154,-0.7154,-0.7154,-0.7176,-0.7203,-0.7203,-0.7258,-0.7345,-0.7415,-0.7573,-0.7763,-0.7845,-0.7872,-0.7872,-0.7872,-0.7872,-0.7872,-0.7872,-0.785,-0.7933,-0.7856,-0.7267,-0.6837,-0.7729,-0.7584,-0.5823,-0.0986,0.0,-0.1008,-0.4532,-0.2339,0.0,0.0,0.0,0.0,0.0,0.0,0.0,0.0,0.0,0.0,0.0,0.0,0.0,0.0,0.0,0.0,0.0,0.0,0.0,0.0,0.0,0.0,0.0,0.0,0.0,0.0,0.0,0.0,0.0,0.0,0.0,0.5795,0.5813,0.5813,0.5813,0.5928,0.5962,0.603,0.6146,0.6015,0.5151,0.4996,0.4453,0.2823,0.1881,0.1167,0.0685,0.031,0.0,0.0,-0.3951,-0.504,-0.5018,-0.5219,-0.536,-0.5366,-0.5474,-0.5513,-0.5714,-0.5616,-0.5605,-0.5719,-0.6428,-0.6605,-0.6169,-0.6789,-0.6959,-0.6428,-0.6428,-0.6496,-0.663,-0.6771,-0.6851,-0.7027,-0.7154,-0.7243,-0.726,-0.7154,-0.7154,-0.7154,-0.7154,-0.7154,-0.7154,-0.7154,-0.7225,-0.7328,-0.7328,-0.7334,-0.7372,-0.7606,-0.7769,-0.7867,-0.7872,-0.7872,-0.7872,-0.7872,-0.7872,-0.7872,-0.7872,-0.7922,-0.7845,-0.784,-0.5954,-0.4725,-0.7235,-0.7591,-0.583,-0.1006,0.0,-0.0,-0.0263,-0.0132,0.0,0.0,0.0,0.0,0.0,0.0,0.0,0.0,0.0,0.0,0.0,0.0,0.0,0.0,0.0,0.0,0.0,0.0,0.0,0.0,0.0,0.0,0.0,0.0,0.0,0.0,0.0,0.0,0.0,0.0,0.0,0.5748,0.544,0.5177,0.5782,0.5538,0.5376,0.6083,0.622,0.6183,0.5944,0.5867,0.5318,0.3679,0.3129,0.2421,0.0854,0.0234,-0.094,0.0,-0.3722,-0.3774,-0.5058,-0.5355,-0.5371,-0.5371,-0.5551,-0.5687,-0.573,-0.5697,-0.5692,-0.573,-0.5908,-0.5997,-0.5819,-0.6263,-0.6346,-0.6169,-0.6256,-0.6362,-0.6491,-0.652,-0.6676,-0.6851,-0.6973,-0.7116,-0.7154,-0.7154,-0.7154,-0.7154,-0.7154,-0.7154,-0.7165,-0.7241,-0.7301,-0.7334,-0.7334,-0.7437,-0.76,-0.7758,-0.7839,-0.7872,-0.7872,-0.7872,-0.7872,-0.7872,-0.7877,-0.7872,-0.7911,-0.7928,-0.795,-0.7884,-0.7286,-0.5867,-0.3346,-0.2498,-0.2019,-0.0388,0.0,0.0,0.0,0.0,0.0,0.0,0.0,0.0,0.0,0.0,0.0,0.0,0.0,0.0,0.0,0.0,0.0,0.0,0.0,0.0,0.0,0.0,0.0,0.0,0.0,0.0,0.0,0.0,0.0,0.0,0.0,0.0,0.0,0.0,0.0,0.5517,0.5262,0.5117,0.5762,0.565,0.5536,0.6224,0.6376,0.6337,0.6013,0.6179,0.5854,0.385,0.3691,0.313,0.1208,0.0403,-0.0725,0.0,-0.277,-0.3207,-0.511,-0.5371,-0.5352,-0.5431,-0.5616,-0.5735,-0.5735,-0.5735,-0.5735,-0.5735,-0.5735,-0.5735,-0.5735,-0.5908,-0.6014,-0.6059,-0.6184,-0.6332,-0.6401,-0.6458,-0.6676,-0.6872,-0.6991,-0.7084,-0.7154,-0.7154,-0.7154,-0.7154,-0.7154,-0.7182,-0.7225,-0.7307,-0.7388,-0.7464,-0.7464,-0.7589,-0.7774,-0.7845,-0.7872,-0.7872,-0.7872,-0.7877,-0.7883,-0.7883,-0.7861,-0.7707,-0.6687,-0.72,-0.785,-0.795,-0.6544,-0.4253,-0.0761,0.0,0.0,0.0,0.0,0.0,0.0,0.0,0.0,0.0,0.0,0.0,0.0,0.0,0.0,0.0,0.0,0.0,0.0,0.0,0.0,0.0,0.0,0.0,0.0,0.0,0.0,0.0,0.0,0.0,0.0,0.0,0.0,0.0,0.0,0.0,0.0,0.0,0.0]}]]